<?xml version='1.0' encoding='UTF-8'?><gpx version="1.1" creator="JPX - https://github.com/jenetics/jpx" xmlns="http://www.topografix.com/GPX/1/1"><trk><trkseg><trkpt lat="45.235477" lon="9.0372306"><ele>67.0</ele><time>2026-03-29T07:37:11.42Z</time></trkpt><trkpt lat="45.2355372" lon="9.0371937"><ele>67.0</ele><time>2026-03-29T07:37:42.323Z</time></trkpt><trkpt lat="45.2356031" lon="9.0371467"><ele>67.0</ele><time>2026-03-29T07:37:45.411Z</time></trkpt><trkpt lat="45.2356602" lon="9.0370703"><ele>67.0</ele><time>2026-03-29T07:37:48.445Z</time></trkpt><trkpt lat="45.2357248" lon="9.036973"><ele>67.0</ele><time>2026-03-29T07:37:51.424Z</time></trkpt><trkpt lat="45.235781" lon="9.0368893"><ele>67.0</ele><time>2026-03-29T07:37:54.413Z</time></trkpt><trkpt lat="45.2358444" lon="9.0368134"><ele>67.0</ele><time>2026-03-29T07:37:57.426Z</time></trkpt><trkpt lat="45.2359045" lon="9.0367341"><ele>67.0</ele><time>2026-03-29T07:38:00.422Z</time></trkpt><trkpt lat="45.2359693" lon="9.0366475"><ele>67.0</ele><time>2026-03-29T07:38:03.415Z</time></trkpt><trkpt lat="45.2360222" lon="9.0365659"><ele>67.0</ele><time>2026-03-29T07:38:06.411Z</time></trkpt><trkpt lat="45.2360704" lon="9.0364748"><ele>67.0</ele><time>2026-03-29T07:38:09.412Z</time></trkpt><trkpt lat="45.2361266" lon="9.0363839"><ele>67.0</ele><time>2026-03-29T07:38:12.411Z</time></trkpt><trkpt lat="45.236183" lon="9.036283"><ele>67.0</ele><time>2026-03-29T07:38:15.437Z</time></trkpt><trkpt lat="45.2362343" lon="9.0361797"><ele>67.0</ele><time>2026-03-29T07:38:18.413Z</time></trkpt><trkpt lat="45.2362986" lon="9.0360897"><ele>67.0</ele><time>2026-03-29T07:38:21.421Z</time></trkpt><trkpt lat="45.2363572" lon="9.0360033"><ele>67.0</ele><time>2026-03-29T07:38:24.423Z</time></trkpt><trkpt lat="45.236398" lon="9.0359306"><ele>67.0</ele><time>2026-03-29T07:38:26.411Z</time></trkpt><trkpt lat="45.236438" lon="9.0358593"><ele>67.0</ele><time>2026-03-29T07:38:28.436Z</time></trkpt><trkpt lat="45.2364779" lon="9.0357406"><ele>67.33333333333333</ele><time>2026-03-29T07:38:31.42Z</time></trkpt><trkpt lat="45.2365135" lon="9.0356315"><ele>67.66666666666666</ele><time>2026-03-29T07:38:34.428Z</time></trkpt><trkpt lat="45.2365292" lon="9.0355063"><ele>68.0</ele><time>2026-03-29T07:38:37.411Z</time></trkpt><trkpt lat="45.2365382" lon="9.0353884"><ele>68.33333333333333</ele><time>2026-03-29T07:38:40.436Z</time></trkpt><trkpt lat="45.2365477" lon="9.0352756"><ele>68.66666666666667</ele><time>2026-03-29T07:38:43.505Z</time></trkpt><trkpt lat="45.2365683" lon="9.0351755"><ele>69.0</ele><time>2026-03-29T07:38:46.413Z</time></trkpt><trkpt lat="45.2365223" lon="9.0350801"><ele>69.0</ele><time>2026-03-29T07:38:51.43Z</time></trkpt><trkpt lat="45.2364714" lon="9.0350031"><ele>69.0</ele><time>2026-03-29T07:38:54.42Z</time></trkpt><trkpt lat="45.2364356" lon="9.0349062"><ele>69.0</ele><time>2026-03-29T07:38:57.412Z</time></trkpt><trkpt lat="45.2364034" lon="9.0348276"><ele>69.0</ele><time>2026-03-29T07:39:01.411Z</time></trkpt><trkpt lat="45.2363409" lon="9.0347596"><ele>69.0</ele><time>2026-03-29T07:39:05.411Z</time></trkpt><trkpt lat="45.2362831" lon="9.0346953"><ele>69.0</ele><time>2026-03-29T07:39:08.44Z</time></trkpt><trkpt lat="45.2362259" lon="9.0346528"><ele>69.0</ele><time>2026-03-29T07:39:11.439Z</time></trkpt><trkpt lat="45.2361749" lon="9.0345837"><ele>68.66666666666667</ele><time>2026-03-29T07:39:14.417Z</time></trkpt><trkpt lat="45.2361038" lon="9.0345227"><ele>68.33333333333333</ele><time>2026-03-29T07:39:17.447Z</time></trkpt><trkpt lat="45.2360409" lon="9.0344715"><ele>68.0</ele><time>2026-03-29T07:39:19.434Z</time></trkpt><trkpt lat="45.2359792" lon="9.0344287"><ele>67.66666666666666</ele><time>2026-03-29T07:39:21.413Z</time></trkpt><trkpt lat="45.2359087" lon="9.0343611"><ele>67.33333333333333</ele><time>2026-03-29T07:39:24.435Z</time></trkpt><trkpt lat="45.2358402" lon="9.0342979"><ele>67.0</ele><time>2026-03-29T07:39:27.425Z</time></trkpt><trkpt lat="45.2357884" lon="9.0342405"><ele>67.0</ele><time>2026-03-29T07:39:29.432Z</time></trkpt><trkpt lat="45.2357153" lon="9.0341631"><ele>67.0</ele><time>2026-03-29T07:39:32.417Z</time></trkpt><trkpt lat="45.2356469" lon="9.0340848"><ele>67.0</ele><time>2026-03-29T07:39:35.419Z</time></trkpt><trkpt lat="45.235585" lon="9.0340367"><ele>67.0</ele><time>2026-03-29T07:39:37.409Z</time></trkpt><trkpt lat="45.2355197" lon="9.0339897"><ele>67.0</ele><time>2026-03-29T07:39:39.431Z</time></trkpt><trkpt lat="45.235449" lon="9.0339406"><ele>67.0</ele><time>2026-03-29T07:39:41.428Z</time></trkpt><trkpt lat="45.2353763" lon="9.0338897"><ele>66.83333333333333</ele><time>2026-03-29T07:39:43.427Z</time></trkpt><trkpt lat="45.2353247" lon="9.0338334"><ele>66.66666666666666</ele><time>2026-03-29T07:39:45.436Z</time></trkpt><trkpt lat="45.2352408" lon="9.0337817"><ele>66.5</ele><time>2026-03-29T07:39:48.414Z</time></trkpt><trkpt lat="45.2351601" lon="9.0337318"><ele>66.33333333333333</ele><time>2026-03-29T07:39:51.491Z</time></trkpt><trkpt lat="45.2350969" lon="9.0336903"><ele>66.16666666666667</ele><time>2026-03-29T07:39:53.427Z</time></trkpt><trkpt lat="45.23503" lon="9.0336393"><ele>66.0</ele><time>2026-03-29T07:39:55.416Z</time></trkpt><trkpt lat="45.2349637" lon="9.0335891"><ele>66.0</ele><time>2026-03-29T07:39:57.412Z</time></trkpt><trkpt lat="45.2348941" lon="9.033535"><ele>66.0</ele><time>2026-03-29T07:39:59.443Z</time></trkpt><trkpt lat="45.2348276" lon="9.0334775"><ele>66.0</ele><time>2026-03-29T07:40:01.412Z</time></trkpt><trkpt lat="45.2347621" lon="9.0334232"><ele>66.0</ele><time>2026-03-29T07:40:03.429Z</time></trkpt><trkpt lat="45.2347016" lon="9.0333742"><ele>66.0</ele><time>2026-03-29T07:40:05.432Z</time></trkpt><trkpt lat="45.2346459" lon="9.0333185"><ele>66.0</ele><time>2026-03-29T07:40:07.415Z</time></trkpt><trkpt lat="45.2345769" lon="9.0332754"><ele>66.0</ele><time>2026-03-29T07:40:09.421Z</time></trkpt><trkpt lat="45.2345132" lon="9.0332303"><ele>66.16666666666667</ele><time>2026-03-29T07:40:11.421Z</time></trkpt><trkpt lat="45.2344404" lon="9.0331692"><ele>66.33333333333333</ele><time>2026-03-29T07:40:13.43Z</time></trkpt><trkpt lat="45.2343683" lon="9.0330993"><ele>66.5</ele><time>2026-03-29T07:40:16.428Z</time></trkpt><trkpt lat="45.2342931" lon="9.0330208"><ele>66.66666666666666</ele><time>2026-03-29T07:40:19.447Z</time></trkpt><trkpt lat="45.2342173" lon="9.0329505"><ele>66.83333333333333</ele><time>2026-03-29T07:40:22.416Z</time></trkpt><trkpt lat="45.2341397" lon="9.0328766"><ele>67.0</ele><time>2026-03-29T07:40:25.417Z</time></trkpt><trkpt lat="45.2340744" lon="9.0328285"><ele>67.0</ele><time>2026-03-29T07:40:27.416Z</time></trkpt><trkpt lat="45.234015" lon="9.0327807"><ele>67.0</ele><time>2026-03-29T07:40:29.416Z</time></trkpt><trkpt lat="45.2339578" lon="9.0327402"><ele>67.0</ele><time>2026-03-29T07:40:31.42Z</time></trkpt><trkpt lat="45.233901" lon="9.0326946"><ele>67.0</ele><time>2026-03-29T07:40:33.413Z</time></trkpt><trkpt lat="45.2338376" lon="9.0326513"><ele>67.0</ele><time>2026-03-29T07:40:35.411Z</time></trkpt><trkpt lat="45.233781" lon="9.0325989"><ele>67.0</ele><time>2026-03-29T07:40:37.413Z</time></trkpt><trkpt lat="45.2337178" lon="9.0325504"><ele>67.0</ele><time>2026-03-29T07:40:39.437Z</time></trkpt><trkpt lat="45.2336645" lon="9.0324999"><ele>66.66666666666666</ele><time>2026-03-29T07:40:41.428Z</time></trkpt><trkpt lat="45.2336147" lon="9.0324426"><ele>66.33333333333333</ele><time>2026-03-29T07:40:43.427Z</time></trkpt><trkpt lat="45.2335391" lon="9.032369"><ele>66.0</ele><time>2026-03-29T07:40:46.427Z</time></trkpt><trkpt lat="45.2334573" lon="9.0323001"><ele>65.66666666666667</ele><time>2026-03-29T07:40:49.433Z</time></trkpt><trkpt lat="45.233397" lon="9.0322466"><ele>65.33333333333334</ele><time>2026-03-29T07:40:51.413Z</time></trkpt><trkpt lat="45.2333401" lon="9.0322068"><ele>65.0</ele><time>2026-03-29T07:40:53.411Z</time></trkpt><trkpt lat="45.2332799" lon="9.0321695"><ele>65.0</ele><time>2026-03-29T07:40:55.429Z</time></trkpt><trkpt lat="45.23322" lon="9.0321185"><ele>65.0</ele><time>2026-03-29T07:40:57.433Z</time></trkpt><trkpt lat="45.2331676" lon="9.0320599"><ele>65.0</ele><time>2026-03-29T07:40:59.414Z</time></trkpt><trkpt lat="45.2330921" lon="9.0319828"><ele>65.0</ele><time>2026-03-29T07:41:02.44Z</time></trkpt><trkpt lat="45.2330314" lon="9.0319507"><ele>65.0</ele><time>2026-03-29T07:41:04.428Z</time></trkpt><trkpt lat="45.2329612" lon="9.031896"><ele>65.0</ele><time>2026-03-29T07:41:07.426Z</time></trkpt><trkpt lat="45.2328851" lon="9.0318364"><ele>65.0</ele><time>2026-03-29T07:41:10.416Z</time></trkpt><trkpt lat="45.2328135" lon="9.0317837"><ele>65.0</ele><time>2026-03-29T07:41:13.426Z</time></trkpt><trkpt lat="45.2327561" lon="9.0317432"><ele>65.0</ele><time>2026-03-29T07:41:15.418Z</time></trkpt><trkpt lat="45.232681" lon="9.0316717"><ele>65.0</ele><time>2026-03-29T07:41:18.424Z</time></trkpt><trkpt lat="45.2326152" lon="9.0316243"><ele>65.0</ele><time>2026-03-29T07:41:20.413Z</time></trkpt><trkpt lat="45.2325619" lon="9.0315716"><ele>65.0</ele><time>2026-03-29T07:41:22.407Z</time></trkpt><trkpt lat="45.2324802" lon="9.0315015"><ele>65.00000000000001</ele><time>2026-03-29T07:41:25.417Z</time></trkpt><trkpt lat="45.2324228" lon="9.0314642"><ele>65.0</ele><time>2026-03-29T07:41:27.411Z</time></trkpt><trkpt lat="45.2323395" lon="9.031403"><ele>65.0</ele><time>2026-03-29T07:41:30.418Z</time></trkpt><trkpt lat="45.2322793" lon="9.0313646"><ele>65.0</ele><time>2026-03-29T07:41:32.418Z</time></trkpt><trkpt lat="45.2322152" lon="9.0313131"><ele>65.0</ele><time>2026-03-29T07:41:34.493Z</time></trkpt><trkpt lat="45.2321508" lon="9.0312692"><ele>65.00000000000001</ele><time>2026-03-29T07:41:36.431Z</time></trkpt><trkpt lat="45.2320925" lon="9.0312278"><ele>65.0</ele><time>2026-03-29T07:41:38.419Z</time></trkpt><trkpt lat="45.2320354" lon="9.031188"><ele>65.0</ele><time>2026-03-29T07:41:40.418Z</time></trkpt><trkpt lat="45.2319728" lon="9.0311506"><ele>65.0</ele><time>2026-03-29T07:41:42.423Z</time></trkpt><trkpt lat="45.2318937" lon="9.0311196"><ele>65.0</ele><time>2026-03-29T07:41:45.411Z</time></trkpt><trkpt lat="45.2318053" lon="9.0310988"><ele>65.0</ele><time>2026-03-29T07:41:48.425Z</time></trkpt><trkpt lat="45.2317425" lon="9.0310796"><ele>65.0</ele><time>2026-03-29T07:41:50.422Z</time></trkpt><trkpt lat="45.2316553" lon="9.0310498"><ele>65.0</ele><time>2026-03-29T07:41:53.412Z</time></trkpt><trkpt lat="45.2315862" lon="9.0310309"><ele>65.0</ele><time>2026-03-29T07:41:55.426Z</time></trkpt><trkpt lat="45.2314963" lon="9.0309829"><ele>65.0</ele><time>2026-03-29T07:41:58.447Z</time></trkpt><trkpt lat="45.2314337" lon="9.0309538"><ele>65.0</ele><time>2026-03-29T07:42:00.439Z</time></trkpt><trkpt lat="45.2313494" lon="9.030917"><ele>65.0</ele><time>2026-03-29T07:42:03.495Z</time></trkpt><trkpt lat="45.2312606" lon="9.0308895"><ele>65.0</ele><time>2026-03-29T07:42:06.449Z</time></trkpt><trkpt lat="45.2311671" lon="9.0308538"><ele>65.0</ele><time>2026-03-29T07:42:09.434Z</time></trkpt><trkpt lat="45.2311044" lon="9.0308232"><ele>64.85714285714286</ele><time>2026-03-29T07:42:11.428Z</time></trkpt><trkpt lat="45.231048" lon="9.0307768"><ele>64.71428571428572</ele><time>2026-03-29T07:42:13.415Z</time></trkpt><trkpt lat="45.2309854" lon="9.0307466"><ele>64.57142857142857</ele><time>2026-03-29T07:42:15.483Z</time></trkpt><trkpt lat="45.2309214" lon="9.0307214"><ele>64.42857142857143</ele><time>2026-03-29T07:42:17.422Z</time></trkpt><trkpt lat="45.2308488" lon="9.030689"><ele>64.28571428571428</ele><time>2026-03-29T07:42:20.414Z</time></trkpt><trkpt lat="45.2307669" lon="9.0306466"><ele>64.14285714285714</ele><time>2026-03-29T07:42:23.407Z</time></trkpt><trkpt lat="45.2307134" lon="9.0305534"><ele>64.0</ele><time>2026-03-29T07:42:26.442Z</time></trkpt><trkpt lat="45.2307195" lon="9.0304391"><ele>63.99999999999999</ele><time>2026-03-29T07:42:29.425Z</time></trkpt><trkpt lat="45.2307334" lon="9.0303485"><ele>64.0</ele><time>2026-03-29T07:42:31.411Z</time></trkpt><trkpt lat="45.2307628" lon="9.030228"><ele>64.0</ele><time>2026-03-29T07:42:34.435Z</time></trkpt><trkpt lat="45.2307673" lon="9.0300995"><ele>64.0</ele><time>2026-03-29T07:42:37.441Z</time></trkpt><trkpt lat="45.2307629" lon="9.0299778"><ele>63.99999999999999</ele><time>2026-03-29T07:42:40.448Z</time></trkpt><trkpt lat="45.2307443" lon="9.0298675"><ele>64.0</ele><time>2026-03-29T07:42:43.435Z</time></trkpt><trkpt lat="45.2307455" lon="9.0297443"><ele>64.0</ele><time>2026-03-29T07:42:46.417Z</time></trkpt><trkpt lat="45.2307653" lon="9.029653"><ele>63.99999999999999</ele><time>2026-03-29T07:42:49.414Z</time></trkpt><trkpt lat="45.230783" lon="9.0295439"><ele>64.0</ele><time>2026-03-29T07:42:53.441Z</time></trkpt><trkpt lat="45.2308045" lon="9.0294582"><ele>64.0</ele><time>2026-03-29T07:42:55.428Z</time></trkpt><trkpt lat="45.2308369" lon="9.0293663"><ele>63.99999999999999</ele><time>2026-03-29T07:42:57.43Z</time></trkpt><trkpt lat="45.2308724" lon="9.0292812"><ele>64.0</ele><time>2026-03-29T07:42:59.429Z</time></trkpt><trkpt lat="45.2309139" lon="9.0292137"><ele>64.0</ele><time>2026-03-29T07:43:01.422Z</time></trkpt><trkpt lat="45.2309622" lon="9.0291289"><ele>64.0</ele><time>2026-03-29T07:43:03.421Z</time></trkpt><trkpt lat="45.2310059" lon="9.0290392"><ele>63.99999999999999</ele><time>2026-03-29T07:43:05.491Z</time></trkpt><trkpt lat="45.2310533" lon="9.0289532"><ele>64.0</ele><time>2026-03-29T07:43:07.498Z</time></trkpt><trkpt lat="45.2310942" lon="9.0288656"><ele>64.0</ele><time>2026-03-29T07:43:09.417Z</time></trkpt><trkpt lat="45.2311374" lon="9.0287846"><ele>63.99999999999999</ele><time>2026-03-29T07:43:11.426Z</time></trkpt><trkpt lat="45.2311738" lon="9.0287019"><ele>64.0</ele><time>2026-03-29T07:43:13.424Z</time></trkpt><trkpt lat="45.2312141" lon="9.0286217"><ele>64.0</ele><time>2026-03-29T07:43:15.411Z</time></trkpt><trkpt lat="45.2312738" lon="9.0285215"><ele>63.99999999999999</ele><time>2026-03-29T07:43:18.413Z</time></trkpt><trkpt lat="45.231327" lon="9.0284442"><ele>64.0</ele><time>2026-03-29T07:43:21.427Z</time></trkpt><trkpt lat="45.2314029" lon="9.0283988"><ele>64.0</ele><time>2026-03-29T07:43:25.433Z</time></trkpt><trkpt lat="45.2314833" lon="9.028444"><ele>64.0</ele><time>2026-03-29T07:43:29.431Z</time></trkpt><trkpt lat="45.231569" lon="9.0284762"><ele>63.99999999999999</ele><time>2026-03-29T07:43:32.436Z</time></trkpt><trkpt lat="45.2316415" lon="9.0285223"><ele>64.0</ele><time>2026-03-29T07:43:35.41Z</time></trkpt><trkpt lat="45.2317211" lon="9.0285543"><ele>64.16666666666666</ele><time>2026-03-29T07:43:39.41Z</time></trkpt><trkpt lat="45.2317953" lon="9.0285818"><ele>64.33333333333333</ele><time>2026-03-29T07:43:42.419Z</time></trkpt><trkpt lat="45.2318667" lon="9.0285998"><ele>64.5</ele><time>2026-03-29T07:43:45.409Z</time></trkpt><trkpt lat="45.2319504" lon="9.0286294"><ele>64.66666666666667</ele><time>2026-03-29T07:43:48.444Z</time></trkpt><trkpt lat="45.2320375" lon="9.0286982"><ele>64.83333333333334</ele><time>2026-03-29T07:43:51.423Z</time></trkpt><trkpt lat="45.2320966" lon="9.0287434"><ele>65.0</ele><time>2026-03-29T07:43:53.406Z</time></trkpt><trkpt lat="45.2321527" lon="9.0287861"><ele>65.0</ele><time>2026-03-29T07:43:55.442Z</time></trkpt><trkpt lat="45.2322274" lon="9.028852"><ele>65.0</ele><time>2026-03-29T07:43:58.411Z</time></trkpt><trkpt lat="45.2323049" lon="9.0289119"><ele>65.0</ele><time>2026-03-29T07:44:01.434Z</time></trkpt><trkpt lat="45.2323758" lon="9.0289677"><ele>65.0</ele><time>2026-03-29T07:44:04.426Z</time></trkpt><trkpt lat="45.2324324" lon="9.0290219"><ele>65.0</ele><time>2026-03-29T07:44:07.433Z</time></trkpt><trkpt lat="45.2325049" lon="9.0290743"><ele>65.0</ele><time>2026-03-29T07:44:10.436Z</time></trkpt><trkpt lat="45.2325774" lon="9.029136"><ele>65.33333333333334</ele><time>2026-03-29T07:44:13.448Z</time></trkpt><trkpt lat="45.232645" lon="9.0291963"><ele>65.66666666666667</ele><time>2026-03-29T07:44:16.434Z</time></trkpt><trkpt lat="45.2327195" lon="9.0292588"><ele>66.0</ele><time>2026-03-29T07:44:19.421Z</time></trkpt><trkpt lat="45.2327927" lon="9.0293287"><ele>66.33333333333333</ele><time>2026-03-29T07:44:22.419Z</time></trkpt><trkpt lat="45.2328592" lon="9.0293955"><ele>66.66666666666666</ele><time>2026-03-29T07:44:25.407Z</time></trkpt><trkpt lat="45.2329244" lon="9.0294521"><ele>67.0</ele><time>2026-03-29T07:44:28.42Z</time></trkpt><trkpt lat="45.2330019" lon="9.0295127"><ele>67.0</ele><time>2026-03-29T07:44:31.418Z</time></trkpt><trkpt lat="45.2330734" lon="9.0295623"><ele>67.0</ele><time>2026-03-29T07:44:34.45Z</time></trkpt><trkpt lat="45.2331484" lon="9.0296111"><ele>67.0</ele><time>2026-03-29T07:44:37.423Z</time></trkpt><trkpt lat="45.2332213" lon="9.0296708"><ele>67.0</ele><time>2026-03-29T07:44:40.416Z</time></trkpt><trkpt lat="45.2332925" lon="9.0297304"><ele>67.0</ele><time>2026-03-29T07:44:43.434Z</time></trkpt><trkpt lat="45.2333683" lon="9.0297962"><ele>67.0</ele><time>2026-03-29T07:44:46.442Z</time></trkpt><trkpt lat="45.2334274" lon="9.0298276"><ele>66.71428571428572</ele><time>2026-03-29T07:44:48.436Z</time></trkpt><trkpt lat="45.2334915" lon="9.0297951"><ele>66.42857142857143</ele><time>2026-03-29T07:44:51.512Z</time></trkpt><trkpt lat="45.2335435" lon="9.0297254"><ele>66.14285714285714</ele><time>2026-03-29T07:44:54.414Z</time></trkpt><trkpt lat="45.2335878" lon="9.0296425"><ele>65.85714285714286</ele><time>2026-03-29T07:44:57.413Z</time></trkpt><trkpt lat="45.2336284" lon="9.029562"><ele>65.57142857142857</ele><time>2026-03-29T07:45:00.425Z</time></trkpt><trkpt lat="45.2336457" lon="9.0294657"><ele>65.28571428571429</ele><time>2026-03-29T07:45:04.512Z</time></trkpt><trkpt lat="45.2336704" lon="9.0293789"><ele>65.0</ele><time>2026-03-29T07:45:08.408Z</time></trkpt><trkpt lat="45.2337272" lon="9.0293335"><ele>65.0</ele><time>2026-03-29T07:45:23.444Z</time></trkpt><trkpt lat="45.2337886" lon="9.0293547"><ele>65.0</ele><time>2026-03-29T07:45:29.427Z</time></trkpt><trkpt lat="45.2338834" lon="9.0293121"><ele>65.0</ele><time>2026-03-29T07:45:47.414Z</time></trkpt><trkpt lat="45.2339557" lon="9.0292838"><ele>65.0</ele><time>2026-03-29T07:45:52.411Z</time></trkpt><trkpt lat="45.2340175" lon="9.0292412"><ele>65.0</ele><time>2026-03-29T07:45:56.443Z</time></trkpt><trkpt lat="45.2340799" lon="9.0291894"><ele>65.0</ele><time>2026-03-29T07:46:00.427Z</time></trkpt><trkpt lat="45.2341521" lon="9.0291776"><ele>65.14285714285715</ele><time>2026-03-29T07:46:05.439Z</time></trkpt><trkpt lat="45.2342121" lon="9.0292534"><ele>65.28571428571429</ele><time>2026-03-29T07:46:23.44Z</time></trkpt><trkpt lat="45.2342743" lon="9.0292737"><ele>65.42857142857143</ele><time>2026-03-29T07:46:30.43Z</time></trkpt><trkpt lat="45.2343396" lon="9.0292728"><ele>65.57142857142858</ele><time>2026-03-29T07:46:34.417Z</time></trkpt><trkpt lat="45.234405" lon="9.0293255"><ele>65.71428571428572</ele><time>2026-03-29T07:46:37.421Z</time></trkpt><trkpt lat="45.234471" lon="9.0293598"><ele>65.85714285714286</ele><time>2026-03-29T07:46:40.415Z</time></trkpt><trkpt lat="45.2345455" lon="9.0293181"><ele>66.0</ele><time>2026-03-29T07:46:44.411Z</time></trkpt><trkpt lat="45.2345851" lon="9.0292459"><ele>66.0</ele><time>2026-03-29T07:46:47.408Z</time></trkpt><trkpt lat="45.2346211" lon="9.0291433"><ele>66.0</ele><time>2026-03-29T07:46:50.426Z</time></trkpt><trkpt lat="45.2346484" lon="9.0290315"><ele>66.0</ele><time>2026-03-29T07:46:53.435Z</time></trkpt><trkpt lat="45.2346878" lon="9.0289458"><ele>66.0</ele><time>2026-03-29T07:46:56.422Z</time></trkpt><trkpt lat="45.2347384" lon="9.0288649"><ele>66.0</ele><time>2026-03-29T07:46:59.432Z</time></trkpt><trkpt lat="45.2347736" lon="9.0287688"><ele>66.0</ele><time>2026-03-29T07:47:02.487Z</time></trkpt><trkpt lat="45.2348005" lon="9.0286878"><ele>66.0</ele><time>2026-03-29T07:47:05.432Z</time></trkpt><trkpt lat="45.2348495" lon="9.0286314"><ele>66.0</ele><time>2026-03-29T07:47:08.413Z</time></trkpt><trkpt lat="45.2349306" lon="9.0286018"><ele>66.0</ele><time>2026-03-29T07:47:12.476Z</time></trkpt><trkpt lat="45.2350007" lon="9.028584"><ele>66.0</ele><time>2026-03-29T07:47:15.423Z</time></trkpt><trkpt lat="45.2350723" lon="9.0285864"><ele>66.0</ele><time>2026-03-29T07:47:18.437Z</time></trkpt><trkpt lat="45.2351471" lon="9.028628"><ele>66.0</ele><time>2026-03-29T07:47:22.432Z</time></trkpt><trkpt lat="45.2351944" lon="9.0287469"><ele>66.0</ele><time>2026-03-29T07:47:27.422Z</time></trkpt><trkpt lat="45.235205" lon="9.0288501"><ele>66.0</ele><time>2026-03-29T07:47:31.431Z</time></trkpt><trkpt lat="45.2352388" lon="9.0289545"><ele>66.0</ele><time>2026-03-29T07:47:35.417Z</time></trkpt><trkpt lat="45.2352671" lon="9.0290674"><ele>66.0</ele><time>2026-03-29T07:47:38.426Z</time></trkpt><trkpt lat="45.2353146" lon="9.0291531"><ele>66.0</ele><time>2026-03-29T07:47:41.407Z</time></trkpt><trkpt lat="45.2353848" lon="9.0291968"><ele>66.0</ele><time>2026-03-29T07:47:44.433Z</time></trkpt><trkpt lat="45.2354585" lon="9.029208"><ele>66.0</ele><time>2026-03-29T07:47:47.42Z</time></trkpt><trkpt lat="45.2355383" lon="9.0291965"><ele>66.0</ele><time>2026-03-29T07:47:51.412Z</time></trkpt><trkpt lat="45.2356151" lon="9.0292158"><ele>66.0</ele><time>2026-03-29T07:47:55.416Z</time></trkpt><trkpt lat="45.2356789" lon="9.0292345"><ele>66.0</ele><time>2026-03-29T07:47:58.417Z</time></trkpt><trkpt lat="45.2357426" lon="9.0292566"><ele>66.0</ele><time>2026-03-29T07:48:02.414Z</time></trkpt><trkpt lat="45.2358183" lon="9.029232"><ele>66.0</ele><time>2026-03-29T07:48:05.409Z</time></trkpt><trkpt lat="45.2358993" lon="9.0292283"><ele>66.0</ele><time>2026-03-29T07:48:08.432Z</time></trkpt><trkpt lat="45.2359652" lon="9.0292408"><ele>66.5</ele><time>2026-03-29T07:48:11.415Z</time></trkpt><trkpt lat="45.2360333" lon="9.0292401"><ele>67.0</ele><time>2026-03-29T07:48:14.434Z</time></trkpt><trkpt lat="45.2360999" lon="9.0292361"><ele>67.5</ele><time>2026-03-29T07:48:17.442Z</time></trkpt><trkpt lat="45.2361703" lon="9.0292336"><ele>68.0</ele><time>2026-03-29T07:48:21.442Z</time></trkpt><trkpt lat="45.2362454" lon="9.0292739"><ele>68.5</ele><time>2026-03-29T07:48:25.426Z</time></trkpt><trkpt lat="45.2363223" lon="9.0292772"><ele>69.0</ele><time>2026-03-29T07:48:29.435Z</time></trkpt><trkpt lat="45.2364097" lon="9.0292806"><ele>69.0</ele><time>2026-03-29T07:48:33.43Z</time></trkpt><trkpt lat="45.2364765" lon="9.0292563"><ele>69.0</ele><time>2026-03-29T07:48:36.438Z</time></trkpt><trkpt lat="45.2365354" lon="9.029221"><ele>69.0</ele><time>2026-03-29T07:48:39.437Z</time></trkpt><trkpt lat="45.236593" lon="9.0291489"><ele>69.0</ele><time>2026-03-29T07:48:42.44Z</time></trkpt><trkpt lat="45.236656" lon="9.0291251"><ele>69.0</ele><time>2026-03-29T07:48:45.412Z</time></trkpt><trkpt lat="45.2374325" lon="9.0297751"><ele>68.0</ele><time>2026-03-29T07:50:35.387Z</time></trkpt><trkpt lat="45.2367387" lon="9.0290173"><ele>68.0</ele><time>2026-03-29T07:54:49.398Z</time></trkpt><trkpt lat="45.2367671" lon="9.0291455"><ele>68.0</ele><time>2026-03-29T07:55:27.414Z</time></trkpt><trkpt lat="45.2366995" lon="9.0291516"><ele>68.0</ele><time>2026-03-29T07:55:32.409Z</time></trkpt><trkpt lat="45.2366665" lon="9.0292563"><ele>68.0</ele><time>2026-03-29T07:55:36.427Z</time></trkpt><trkpt lat="45.2366106" lon="9.0293082"><ele>68.0</ele><time>2026-03-29T07:55:40.416Z</time></trkpt><trkpt lat="45.2365318" lon="9.0292903"><ele>68.0</ele><time>2026-03-29T07:55:45.407Z</time></trkpt><trkpt lat="45.2364586" lon="9.0292696"><ele>68.16666666666667</ele><time>2026-03-29T07:55:51.429Z</time></trkpt><trkpt lat="45.2363931" lon="9.0292474"><ele>68.33333333333334</ele><time>2026-03-29T07:55:54.424Z</time></trkpt><trkpt lat="45.2363193" lon="9.0292435"><ele>68.5</ele><time>2026-03-29T07:55:57.415Z</time></trkpt><trkpt lat="45.2362474" lon="9.0292255"><ele>68.66666666666667</ele><time>2026-03-29T07:56:01.415Z</time></trkpt><trkpt lat="45.2361684" lon="9.0291968"><ele>68.83333333333333</ele><time>2026-03-29T07:56:05.487Z</time></trkpt><trkpt lat="45.2360833" lon="9.0291769"><ele>69.0</ele><time>2026-03-29T07:56:08.423Z</time></trkpt><trkpt lat="45.235997" lon="9.0291656"><ele>69.0</ele><time>2026-03-29T07:56:11.409Z</time></trkpt><trkpt lat="45.2359106" lon="9.0291842"><ele>69.0</ele><time>2026-03-29T07:56:14.422Z</time></trkpt><trkpt lat="45.2358215" lon="9.0291797"><ele>69.0</ele><time>2026-03-29T07:56:17.405Z</time></trkpt><trkpt lat="45.2357573" lon="9.0291649"><ele>69.0</ele><time>2026-03-29T07:56:19.417Z</time></trkpt><trkpt lat="45.2356759" lon="9.029145"><ele>69.0</ele><time>2026-03-29T07:56:22.413Z</time></trkpt><trkpt lat="45.2355931" lon="9.0291636"><ele>69.0</ele><time>2026-03-29T07:56:25.41Z</time></trkpt><trkpt lat="45.2355202" lon="9.0291603"><ele>68.5</ele><time>2026-03-29T07:56:28.411Z</time></trkpt><trkpt lat="45.235454" lon="9.0291298"><ele>68.0</ele><time>2026-03-29T07:56:31.424Z</time></trkpt><trkpt lat="45.2353897" lon="9.0290655"><ele>67.5</ele><time>2026-03-29T07:56:34.41Z</time></trkpt><trkpt lat="45.2353452" lon="9.0289753"><ele>67.0</ele><time>2026-03-29T07:56:38.407Z</time></trkpt><trkpt lat="45.2353069" lon="9.028901"><ele>66.5</ele><time>2026-03-29T07:56:41.422Z</time></trkpt><trkpt lat="45.2352758" lon="9.0287892"><ele>66.0</ele><time>2026-03-29T07:56:45.471Z</time></trkpt><trkpt lat="45.2352503" lon="9.0286741"><ele>66.0</ele><time>2026-03-29T07:56:49.41Z</time></trkpt><trkpt lat="45.2352097" lon="9.0286025"><ele>66.0</ele><time>2026-03-29T07:56:52.413Z</time></trkpt><trkpt lat="45.235132" lon="9.0285626"><ele>66.0</ele><time>2026-03-29T07:56:56.409Z</time></trkpt><trkpt lat="45.2350619" lon="9.0285534"><ele>66.0</ele><time>2026-03-29T07:56:59.417Z</time></trkpt><trkpt lat="45.2349836" lon="9.0285307"><ele>66.0</ele><time>2026-03-29T07:57:02.41Z</time></trkpt><trkpt lat="45.2349134" lon="9.0285528"><ele>66.0</ele><time>2026-03-29T07:57:06.434Z</time></trkpt><trkpt lat="45.2348797" lon="9.0286411"><ele>66.0</ele><time>2026-03-29T07:57:10.42Z</time></trkpt><trkpt lat="45.2348313" lon="9.0287493"><ele>66.0</ele><time>2026-03-29T07:57:13.407Z</time></trkpt><trkpt lat="45.2347916" lon="9.0288578"><ele>66.0</ele><time>2026-03-29T07:57:16.427Z</time></trkpt><trkpt lat="45.2347547" lon="9.0289673"><ele>66.0</ele><time>2026-03-29T07:57:19.445Z</time></trkpt><trkpt lat="45.2347232" lon="9.0290869"><ele>66.0</ele><time>2026-03-29T07:57:22.436Z</time></trkpt><trkpt lat="45.2346983" lon="9.0291706"><ele>66.0</ele><time>2026-03-29T07:57:24.421Z</time></trkpt><trkpt lat="45.2346665" lon="9.0292858"><ele>66.0</ele><time>2026-03-29T07:57:27.408Z</time></trkpt><trkpt lat="45.2346909" lon="9.029386"><ele>66.0</ele><time>2026-03-29T07:57:30.429Z</time></trkpt><trkpt lat="45.2347489" lon="9.0294716"><ele>66.0</ele><time>2026-03-29T07:57:33.411Z</time></trkpt><trkpt lat="45.2347965" lon="9.0295475"><ele>66.0</ele><time>2026-03-29T07:57:36.484Z</time></trkpt><trkpt lat="45.2348665" lon="9.029635"><ele>66.0</ele><time>2026-03-29T07:57:39.415Z</time></trkpt><trkpt lat="45.2349213" lon="9.0297006"><ele>66.0</ele><time>2026-03-29T07:57:41.434Z</time></trkpt><trkpt lat="45.2349898" lon="9.0297893"><ele>66.0</ele><time>2026-03-29T07:57:44.405Z</time></trkpt><trkpt lat="45.2350441" lon="9.0298728"><ele>66.0</ele><time>2026-03-29T07:57:47.404Z</time></trkpt><trkpt lat="45.2351095" lon="9.0299592"><ele>66.0</ele><time>2026-03-29T07:57:50.415Z</time></trkpt><trkpt lat="45.2351795" lon="9.0300514"><ele>66.0</ele><time>2026-03-29T07:57:53.441Z</time></trkpt><trkpt lat="45.2352459" lon="9.0301426"><ele>66.0</ele><time>2026-03-29T07:57:56.411Z</time></trkpt><trkpt lat="45.2353071" lon="9.0302324"><ele>66.0</ele><time>2026-03-29T07:57:59.423Z</time></trkpt><trkpt lat="45.2353716" lon="9.0303181"><ele>66.0</ele><time>2026-03-29T07:58:02.42Z</time></trkpt><trkpt lat="45.2354355" lon="9.0304009"><ele>66.0</ele><time>2026-03-29T07:58:05.49Z</time></trkpt><trkpt lat="45.235508" lon="9.0304861"><ele>66.0</ele><time>2026-03-29T07:58:08.413Z</time></trkpt><trkpt lat="45.2355814" lon="9.0305735"><ele>66.0</ele><time>2026-03-29T07:58:11.411Z</time></trkpt><trkpt lat="45.2356553" lon="9.0306518"><ele>66.0</ele><time>2026-03-29T07:58:14.406Z</time></trkpt><trkpt lat="45.2357372" lon="9.0307058"><ele>66.16666666666667</ele><time>2026-03-29T07:58:17.406Z</time></trkpt><trkpt lat="45.2358038" lon="9.0307441"><ele>66.33333333333333</ele><time>2026-03-29T07:58:19.41Z</time></trkpt><trkpt lat="45.2358683" lon="9.0307743"><ele>66.5</ele><time>2026-03-29T07:58:21.415Z</time></trkpt><trkpt lat="45.235933" lon="9.0308115"><ele>66.66666666666666</ele><time>2026-03-29T07:58:23.426Z</time></trkpt><trkpt lat="45.2360106" lon="9.030866"><ele>66.83333333333333</ele><time>2026-03-29T07:58:26.412Z</time></trkpt><trkpt lat="45.2360905" lon="9.0309392"><ele>67.0</ele><time>2026-03-29T07:58:29.41Z</time></trkpt><trkpt lat="45.2361697" lon="9.0310167"><ele>67.0</ele><time>2026-03-29T07:58:32.439Z</time></trkpt><trkpt lat="45.2362361" lon="9.0310945"><ele>67.0</ele><time>2026-03-29T07:58:35.44Z</time></trkpt><trkpt lat="45.2362834" lon="9.0311921"><ele>67.0</ele><time>2026-03-29T07:58:38.442Z</time></trkpt><trkpt lat="45.2363183" lon="9.0312994"><ele>67.0</ele><time>2026-03-29T07:58:41.41Z</time></trkpt><trkpt lat="45.2363319" lon="9.0313891"><ele>67.0</ele><time>2026-03-29T07:58:44.403Z</time></trkpt><trkpt lat="45.2363732" lon="9.0314835"><ele>67.0</ele><time>2026-03-29T07:58:47.401Z</time></trkpt><trkpt lat="45.2364243" lon="9.0315487"><ele>67.14285714285714</ele><time>2026-03-29T07:58:49.426Z</time></trkpt><trkpt lat="45.2364873" lon="9.0315822"><ele>67.28571428571428</ele><time>2026-03-29T07:58:52.405Z</time></trkpt><trkpt lat="45.2365666" lon="9.0315904"><ele>67.42857142857142</ele><time>2026-03-29T07:58:55.409Z</time></trkpt><trkpt lat="45.2366474" lon="9.0316256"><ele>67.57142857142857</ele><time>2026-03-29T07:58:58.431Z</time></trkpt><trkpt lat="45.2367031" lon="9.0316726"><ele>67.71428571428571</ele><time>2026-03-29T07:59:00.433Z</time></trkpt><trkpt lat="45.2367665" lon="9.0317278"><ele>67.85714285714285</ele><time>2026-03-29T07:59:02.433Z</time></trkpt><trkpt lat="45.2368243" lon="9.0317747"><ele>68.0</ele><time>2026-03-29T07:59:04.435Z</time></trkpt><trkpt lat="45.23688" lon="9.0318204"><ele>67.99999999999999</ele><time>2026-03-29T07:59:06.431Z</time></trkpt><trkpt lat="45.2369398" lon="9.0318679"><ele>68.0</ele><time>2026-03-29T07:59:08.49Z</time></trkpt><trkpt lat="45.2369992" lon="9.03191"><ele>68.0</ele><time>2026-03-29T07:59:10.482Z</time></trkpt><trkpt lat="45.23706" lon="9.0319625"><ele>68.0</ele><time>2026-03-29T07:59:12.42Z</time></trkpt><trkpt lat="45.2371181" lon="9.0320346"><ele>68.0</ele><time>2026-03-29T07:59:15.429Z</time></trkpt><trkpt lat="45.2371723" lon="9.0321094"><ele>67.99999999999999</ele><time>2026-03-29T07:59:18.43Z</time></trkpt><trkpt lat="45.2372206" lon="9.0322015"><ele>68.0</ele><time>2026-03-29T07:59:21.404Z</time></trkpt><trkpt lat="45.2372635" lon="9.0322931"><ele>67.83333333333334</ele><time>2026-03-29T07:59:24.432Z</time></trkpt><trkpt lat="45.2373102" lon="9.0323975"><ele>67.66666666666667</ele><time>2026-03-29T07:59:27.408Z</time></trkpt><trkpt lat="45.2373539" lon="9.0325086"><ele>67.5</ele><time>2026-03-29T07:59:30.421Z</time></trkpt><trkpt lat="45.2373812" lon="9.0326248"><ele>67.33333333333333</ele><time>2026-03-29T07:59:33.501Z</time></trkpt><trkpt lat="45.2373891" lon="9.0327136"><ele>67.16666666666666</ele><time>2026-03-29T07:59:35.491Z</time></trkpt><trkpt lat="45.2374022" lon="9.0328367"><ele>67.0</ele><time>2026-03-29T07:59:38.409Z</time></trkpt><trkpt lat="45.2374184" lon="9.0329278"><ele>67.0</ele><time>2026-03-29T07:59:40.431Z</time></trkpt><trkpt lat="45.2374288" lon="9.0330256"><ele>67.0</ele><time>2026-03-29T07:59:42.432Z</time></trkpt><trkpt lat="45.2374439" lon="9.0331196"><ele>67.0</ele><time>2026-03-29T07:59:44.428Z</time></trkpt><trkpt lat="45.2374428" lon="9.0332207"><ele>67.0</ele><time>2026-03-29T07:59:46.411Z</time></trkpt><trkpt lat="45.2374338" lon="9.0333157"><ele>67.0</ele><time>2026-03-29T07:59:48.432Z</time></trkpt><trkpt lat="45.2374283" lon="9.0334092"><ele>67.0</ele><time>2026-03-29T07:59:50.409Z</time></trkpt><trkpt lat="45.2374257" lon="9.0335382"><ele>67.0</ele><time>2026-03-29T07:59:53.466Z</time></trkpt><trkpt lat="45.2374291" lon="9.033632"><ele>67.33333333333333</ele><time>2026-03-29T07:59:55.432Z</time></trkpt><trkpt lat="45.2374305" lon="9.0337655"><ele>67.66666666666666</ele><time>2026-03-29T07:59:58.432Z</time></trkpt><trkpt lat="45.2374389" lon="9.033867"><ele>68.0</ele><time>2026-03-29T08:00:00.432Z</time></trkpt><trkpt lat="45.2374368" lon="9.0339648"><ele>68.33333333333333</ele><time>2026-03-29T08:00:02.512Z</time></trkpt><trkpt lat="45.2374401" lon="9.0340984"><ele>68.66666666666667</ele><time>2026-03-29T08:00:05.426Z</time></trkpt><trkpt lat="45.2374349" lon="9.03419"><ele>69.0</ele><time>2026-03-29T08:00:07.411Z</time></trkpt><trkpt lat="45.2374148" lon="9.0343122"><ele>69.0</ele><time>2026-03-29T08:00:10.418Z</time></trkpt><trkpt lat="45.2373447" lon="9.0343604"><ele>69.0</ele><time>2026-03-29T08:00:13.411Z</time></trkpt><trkpt lat="45.2372828" lon="9.0343376"><ele>69.0</ele><time>2026-03-29T08:00:15.401Z</time></trkpt><trkpt lat="45.2372056" lon="9.0342929"><ele>69.0</ele><time>2026-03-29T08:00:18.411Z</time></trkpt><trkpt lat="45.2371276" lon="9.034249"><ele>69.0</ele><time>2026-03-29T08:00:21.404Z</time></trkpt><trkpt lat="45.2370685" lon="9.0342119"><ele>69.0</ele><time>2026-03-29T08:00:23.428Z</time></trkpt><trkpt lat="45.2370023" lon="9.0341755"><ele>69.0</ele><time>2026-03-29T08:00:25.413Z</time></trkpt><trkpt lat="45.2369419" lon="9.0341496"><ele>69.0</ele><time>2026-03-29T08:00:27.494Z</time></trkpt><trkpt lat="45.2368735" lon="9.0341469"><ele>69.0</ele><time>2026-03-29T08:00:29.407Z</time></trkpt><trkpt lat="45.2368009" lon="9.0342118"><ele>69.0</ele><time>2026-03-29T08:00:32.428Z</time></trkpt><trkpt lat="45.2367427" lon="9.034288"><ele>69.0</ele><time>2026-03-29T08:00:36.412Z</time></trkpt><trkpt lat="45.2366648" lon="9.0343159"><ele>69.0</ele><time>2026-03-29T08:00:39.395Z</time></trkpt><trkpt lat="45.2365796" lon="9.0343807"><ele>69.0</ele><time>2026-03-29T08:00:42.394Z</time></trkpt><trkpt lat="45.2364491" lon="9.0345227"><ele>69.0</ele><time>2026-03-29T08:00:46.426Z</time></trkpt><trkpt lat="45.2364635" lon="9.0346317"><ele>69.0</ele><time>2026-03-29T08:00:48.423Z</time></trkpt><trkpt lat="45.236493" lon="9.0347288"><ele>69.0</ele><time>2026-03-29T08:00:50.425Z</time></trkpt><trkpt lat="45.2363955" lon="9.0347646"><ele>69.0</ele><time>2026-03-29T08:00:53.427Z</time></trkpt><trkpt lat="45.2363238" lon="9.0347232"><ele>69.0</ele><time>2026-03-29T08:00:55.428Z</time></trkpt><trkpt lat="45.2362676" lon="9.0346593"><ele>69.0</ele><time>2026-03-29T08:00:57.407Z</time></trkpt><trkpt lat="45.2361955" lon="9.0346007"><ele>68.66666666666667</ele><time>2026-03-29T08:00:59.436Z</time></trkpt><trkpt lat="45.2361209" lon="9.0345365"><ele>68.33333333333333</ele><time>2026-03-29T08:01:02.426Z</time></trkpt><trkpt lat="45.2360483" lon="9.0344516"><ele>68.0</ele><time>2026-03-29T08:01:05.481Z</time></trkpt><trkpt lat="45.235988" lon="9.0344064"><ele>67.66666666666666</ele><time>2026-03-29T08:01:07.429Z</time></trkpt><trkpt lat="45.2359303" lon="9.0343542"><ele>67.33333333333333</ele><time>2026-03-29T08:01:09.431Z</time></trkpt><trkpt lat="45.2358625" lon="9.0343069"><ele>67.0</ele><time>2026-03-29T08:01:11.429Z</time></trkpt><trkpt lat="45.2357933" lon="9.0342498"><ele>67.0</ele><time>2026-03-29T08:01:13.439Z</time></trkpt><trkpt lat="45.2357368" lon="9.0342075"><ele>67.0</ele><time>2026-03-29T08:01:15.414Z</time></trkpt><trkpt lat="45.235675" lon="9.034155"><ele>67.0</ele><time>2026-03-29T08:01:17.424Z</time></trkpt><trkpt lat="45.2356005" lon="9.0340887"><ele>67.0</ele><time>2026-03-29T08:01:19.417Z</time></trkpt><trkpt lat="45.2355301" lon="9.0340245"><ele>67.0</ele><time>2026-03-29T08:01:21.414Z</time></trkpt><trkpt lat="45.2354631" lon="9.0339644"><ele>67.0</ele><time>2026-03-29T08:01:23.41Z</time></trkpt><trkpt lat="45.235392" lon="9.0339053"><ele>66.83333333333333</ele><time>2026-03-29T08:01:25.432Z</time></trkpt><trkpt lat="45.235335" lon="9.0338671"><ele>66.66666666666666</ele><time>2026-03-29T08:01:27.415Z</time></trkpt><trkpt lat="45.2352651" lon="9.0338183"><ele>66.5</ele><time>2026-03-29T08:01:29.424Z</time></trkpt><trkpt lat="45.2351917" lon="9.033774"><ele>66.33333333333333</ele><time>2026-03-29T08:01:31.435Z</time></trkpt><trkpt lat="45.235113" lon="9.0337373"><ele>66.16666666666667</ele><time>2026-03-29T08:01:33.425Z</time></trkpt><trkpt lat="45.235037" lon="9.0336881"><ele>66.0</ele><time>2026-03-29T08:01:35.43Z</time></trkpt><trkpt lat="45.2349551" lon="9.0336286"><ele>66.0</ele><time>2026-03-29T08:01:37.416Z</time></trkpt><trkpt lat="45.2348766" lon="9.0335758"><ele>66.0</ele><time>2026-03-29T08:01:39.423Z</time></trkpt><trkpt lat="45.234814" lon="9.0335208"><ele>66.0</ele><time>2026-03-29T08:01:41.429Z</time></trkpt><trkpt lat="45.2347495" lon="9.0334627"><ele>66.0</ele><time>2026-03-29T08:01:43.431Z</time></trkpt><trkpt lat="45.2346505" lon="9.0333635"><ele>66.0</ele><time>2026-03-29T08:01:46.409Z</time></trkpt><trkpt lat="45.2345871" lon="9.0333121"><ele>66.0</ele><time>2026-03-29T08:01:48.432Z</time></trkpt><trkpt lat="45.2345217" lon="9.03327"><ele>66.14285714285714</ele><time>2026-03-29T08:01:50.431Z</time></trkpt><trkpt lat="45.2344426" lon="9.0332235"><ele>66.28571428571429</ele><time>2026-03-29T08:01:52.43Z</time></trkpt><trkpt lat="45.2343738" lon="9.0332007"><ele>66.42857142857143</ele><time>2026-03-29T08:01:54.414Z</time></trkpt><trkpt lat="45.2343064" lon="9.0332047"><ele>66.57142857142857</ele><time>2026-03-29T08:01:56.434Z</time></trkpt><trkpt lat="45.2342387" lon="9.03322"><ele>66.71428571428571</ele><time>2026-03-29T08:01:58.407Z</time></trkpt><trkpt lat="45.2341779" lon="9.0332459"><ele>66.85714285714286</ele><time>2026-03-29T08:02:00.435Z</time></trkpt><trkpt lat="45.2341074" lon="9.0333098"><ele>67.0</ele><time>2026-03-29T08:02:02.407Z</time></trkpt><trkpt lat="45.2340407" lon="9.0333693"><ele>66.33333333333333</ele><time>2026-03-29T08:02:04.408Z</time></trkpt><trkpt lat="45.2339948" lon="9.0334455"><ele>65.66666666666666</ele><time>2026-03-29T08:02:06.433Z</time></trkpt><trkpt lat="45.2339512" lon="9.0335168"><ele>65.0</ele><time>2026-03-29T08:02:08.408Z</time></trkpt><trkpt lat="45.2339015" lon="9.0335902"><ele>64.33333333333333</ele><time>2026-03-29T08:02:10.414Z</time></trkpt><trkpt lat="45.2338499" lon="9.033656"><ele>63.666666666666664</ele><time>2026-03-29T08:02:12.409Z</time></trkpt><trkpt lat="45.2337794" lon="9.0337332"><ele>63.0</ele><time>2026-03-29T08:02:14.435Z</time></trkpt><trkpt lat="45.2336966" lon="9.0338085"><ele>63.0</ele><time>2026-03-29T08:02:17.434Z</time></trkpt><trkpt lat="45.2336447" lon="9.0338655"><ele>63.0</ele><time>2026-03-29T08:02:19.402Z</time></trkpt><trkpt lat="45.2335909" lon="9.0339228"><ele>63.0</ele><time>2026-03-29T08:02:21.432Z</time></trkpt><trkpt lat="45.2335323" lon="9.0339686"><ele>63.0</ele><time>2026-03-29T08:02:23.445Z</time></trkpt><trkpt lat="45.2334684" lon="9.0340229"><ele>63.0</ele><time>2026-03-29T08:02:25.436Z</time></trkpt><trkpt lat="45.2333998" lon="9.0340985"><ele>63.0</ele><time>2026-03-29T08:02:27.413Z</time></trkpt><trkpt lat="45.2333428" lon="9.0341718"><ele>63.0</ele><time>2026-03-29T08:02:29.406Z</time></trkpt><trkpt lat="45.2332793" lon="9.0342659"><ele>63.285714285714285</ele><time>2026-03-29T08:02:32.411Z</time></trkpt><trkpt lat="45.2332112" lon="9.0343624"><ele>63.57142857142857</ele><time>2026-03-29T08:02:35.437Z</time></trkpt><trkpt lat="45.233173" lon="9.0344457"><ele>63.85714285714286</ele><time>2026-03-29T08:02:37.416Z</time></trkpt><trkpt lat="45.2331279" lon="9.0345192"><ele>64.14285714285714</ele><time>2026-03-29T08:02:39.416Z</time></trkpt><trkpt lat="45.2330941" lon="9.0346017"><ele>64.42857142857143</ele><time>2026-03-29T08:02:41.404Z</time></trkpt><trkpt lat="45.2330618" lon="9.0346898"><ele>64.71428571428572</ele><time>2026-03-29T08:02:43.43Z</time></trkpt><trkpt lat="45.2330228" lon="9.0347715"><ele>65.0</ele><time>2026-03-29T08:02:45.43Z</time></trkpt><trkpt lat="45.2329955" lon="9.0348676"><ele>65.0</ele><time>2026-03-29T08:02:47.417Z</time></trkpt><trkpt lat="45.2329632" lon="9.0349691"><ele>65.0</ele><time>2026-03-29T08:02:50.429Z</time></trkpt><trkpt lat="45.2329247" lon="9.0350771"><ele>65.0</ele><time>2026-03-29T08:02:53.412Z</time></trkpt><trkpt lat="45.2329047" lon="9.0351626"><ele>65.0</ele><time>2026-03-29T08:02:55.429Z</time></trkpt><trkpt lat="45.2328794" lon="9.0352848"><ele>65.0</ele><time>2026-03-29T08:02:58.435Z</time></trkpt><trkpt lat="45.2328514" lon="9.0353664"><ele>65.0</ele><time>2026-03-29T08:03:00.405Z</time></trkpt><trkpt lat="45.2328263" lon="9.0354585"><ele>65.0</ele><time>2026-03-29T08:03:02.408Z</time></trkpt><trkpt lat="45.2327839" lon="9.0355838"><ele>65.0</ele><time>2026-03-29T08:03:05.43Z</time></trkpt><trkpt lat="45.2327413" lon="9.0356803"><ele>65.0</ele><time>2026-03-29T08:03:07.423Z</time></trkpt><trkpt lat="45.2327012" lon="9.0357733"><ele>65.0</ele><time>2026-03-29T08:03:09.428Z</time></trkpt><trkpt lat="45.2326593" lon="9.0358541"><ele>65.0</ele><time>2026-03-29T08:03:11.447Z</time></trkpt><trkpt lat="45.2326191" lon="9.0359323"><ele>65.0</ele><time>2026-03-29T08:03:13.443Z</time></trkpt><trkpt lat="45.2325742" lon="9.0360203"><ele>65.00000000000001</ele><time>2026-03-29T08:03:15.429Z</time></trkpt><trkpt lat="45.2325302" lon="9.0361125"><ele>65.0</ele><time>2026-03-29T08:03:17.409Z</time></trkpt><trkpt lat="45.2324927" lon="9.036205"><ele>65.0</ele><time>2026-03-29T08:03:19.409Z</time></trkpt><trkpt lat="45.2324559" lon="9.0362888"><ele>65.0</ele><time>2026-03-29T08:03:21.434Z</time></trkpt><trkpt lat="45.2324154" lon="9.0363758"><ele>65.0</ele><time>2026-03-29T08:03:23.411Z</time></trkpt><trkpt lat="45.2323732" lon="9.0364545"><ele>65.00000000000001</ele><time>2026-03-29T08:03:25.439Z</time></trkpt><trkpt lat="45.2323319" lon="9.0365401"><ele>65.0</ele><time>2026-03-29T08:03:27.44Z</time></trkpt><trkpt lat="45.2322791" lon="9.0366611"><ele>65.0</ele><time>2026-03-29T08:03:30.424Z</time></trkpt><trkpt lat="45.2322366" lon="9.0367777"><ele>65.0</ele><time>2026-03-29T08:03:33.407Z</time></trkpt><trkpt lat="45.232204" lon="9.0368653"><ele>65.0</ele><time>2026-03-29T08:03:35.404Z</time></trkpt><trkpt lat="45.2321685" lon="9.0369909"><ele>65.0</ele><time>2026-03-29T08:03:38.429Z</time></trkpt><trkpt lat="45.2321429" lon="9.0370873"><ele>65.0</ele><time>2026-03-29T08:03:40.431Z</time></trkpt><trkpt lat="45.2321346" lon="9.037195"><ele>65.0</ele><time>2026-03-29T08:03:42.441Z</time></trkpt><trkpt lat="45.2321239" lon="9.0373025"><ele>65.0</ele><time>2026-03-29T08:03:44.437Z</time></trkpt><trkpt lat="45.23212" lon="9.0374151"><ele>65.0</ele><time>2026-03-29T08:03:46.427Z</time></trkpt><trkpt lat="45.2321247" lon="9.0375382"><ele>65.0</ele><time>2026-03-29T08:03:49.422Z</time></trkpt><trkpt lat="45.232126" lon="9.0376656"><ele>65.0</ele><time>2026-03-29T08:03:52.433Z</time></trkpt><trkpt lat="45.2321304" lon="9.0377655"><ele>65.0</ele><time>2026-03-29T08:03:54.434Z</time></trkpt><trkpt lat="45.2321701" lon="9.0378516"><ele>65.0</ele><time>2026-03-29T08:03:56.436Z</time></trkpt><trkpt lat="45.232214" lon="9.0379225"><ele>65.00000000000001</ele><time>2026-03-29T08:03:58.431Z</time></trkpt><trkpt lat="45.2322634" lon="9.0379868"><ele>65.0</ele><time>2026-03-29T08:04:00.43Z</time></trkpt><trkpt lat="45.2323072" lon="9.03806"><ele>65.0</ele><time>2026-03-29T08:04:02.437Z</time></trkpt><trkpt lat="45.2323377" lon="9.0381446"><ele>65.0</ele><time>2026-03-29T08:04:04.411Z</time></trkpt><trkpt lat="45.2323551" lon="9.0382416"><ele>65.0</ele><time>2026-03-29T08:04:06.408Z</time></trkpt><trkpt lat="45.2323553" lon="9.0383499"><ele>65.00000000000001</ele><time>2026-03-29T08:04:08.422Z</time></trkpt><trkpt lat="45.2323447" lon="9.03845"><ele>65.0</ele><time>2026-03-29T08:04:10.418Z</time></trkpt><trkpt lat="45.2323294" lon="9.0385447"><ele>64.85714285714286</ele><time>2026-03-29T08:04:12.414Z</time></trkpt><trkpt lat="45.2323116" lon="9.0386409"><ele>64.71428571428572</ele><time>2026-03-29T08:04:14.407Z</time></trkpt><trkpt lat="45.232292" lon="9.038741"><ele>64.57142857142857</ele><time>2026-03-29T08:04:16.422Z</time></trkpt><trkpt lat="45.2322743" lon="9.0388352"><ele>64.42857142857143</ele><time>2026-03-29T08:04:18.423Z</time></trkpt><trkpt lat="45.2322518" lon="9.0389368"><ele>64.28571428571428</ele><time>2026-03-29T08:04:20.424Z</time></trkpt><trkpt lat="45.2322355" lon="9.0390249"><ele>64.14285714285714</ele><time>2026-03-29T08:04:22.407Z</time></trkpt><trkpt lat="45.2322121" lon="9.0391484"><ele>64.0</ele><time>2026-03-29T08:04:25.426Z</time></trkpt><trkpt lat="45.232198" lon="9.0392778"><ele>63.666666666666664</ele><time>2026-03-29T08:04:28.407Z</time></trkpt><trkpt lat="45.2321729" lon="9.0394116"><ele>63.33333333333333</ele><time>2026-03-29T08:04:31.424Z</time></trkpt><trkpt lat="45.2321214" lon="9.0395112"><ele>63.0</ele><time>2026-03-29T08:04:34.438Z</time></trkpt><trkpt lat="45.2320621" lon="9.0395798"><ele>62.66666666666667</ele><time>2026-03-29T08:04:37.419Z</time></trkpt><trkpt lat="45.2320037" lon="9.0396385"><ele>62.333333333333336</ele><time>2026-03-29T08:04:39.405Z</time></trkpt><trkpt lat="45.2319436" lon="9.039688"><ele>62.0</ele><time>2026-03-29T08:04:41.433Z</time></trkpt><trkpt lat="45.231867" lon="9.0397048"><ele>62.0</ele><time>2026-03-29T08:04:44.445Z</time></trkpt><trkpt lat="45.2317856" lon="9.0396834"><ele>62.00000000000001</ele><time>2026-03-29T08:04:47.433Z</time></trkpt><trkpt lat="45.231719" lon="9.0396738"><ele>62.0</ele><time>2026-03-29T08:04:49.433Z</time></trkpt><trkpt lat="45.2316485" lon="9.039644"><ele>62.0</ele><time>2026-03-29T08:04:51.428Z</time></trkpt><trkpt lat="45.2315759" lon="9.0396244"><ele>62.00000000000001</ele><time>2026-03-29T08:04:53.422Z</time></trkpt><trkpt lat="45.2315139" lon="9.0396025"><ele>62.0</ele><time>2026-03-29T08:04:55.432Z</time></trkpt><trkpt lat="45.23145" lon="9.0395737"><ele>62.0</ele><time>2026-03-29T08:04:57.427Z</time></trkpt><trkpt lat="45.2313862" lon="9.0395584"><ele>62.00000000000001</ele><time>2026-03-29T08:04:59.437Z</time></trkpt><trkpt lat="45.2312958" lon="9.0395445"><ele>62.0</ele><time>2026-03-29T08:05:02.435Z</time></trkpt><trkpt lat="45.231242" lon="9.0396139"><ele>62.0</ele><time>2026-03-29T08:05:05.43Z</time></trkpt><trkpt lat="45.231194" lon="9.0397227"><ele>62.0</ele><time>2026-03-29T08:05:08.425Z</time></trkpt><trkpt lat="45.2311477" lon="9.0398396"><ele>62.00000000000001</ele><time>2026-03-29T08:05:11.403Z</time></trkpt><trkpt lat="45.2311048" lon="9.0399573"><ele>62.0</ele><time>2026-03-29T08:05:14.425Z</time></trkpt><trkpt lat="45.2310752" lon="9.0400675"><ele>62.00000000000001</ele><time>2026-03-29T08:05:17.424Z</time></trkpt><trkpt lat="45.2310337" lon="9.0401625"><ele>62.0</ele><time>2026-03-29T08:05:20.414Z</time></trkpt><trkpt lat="45.230994" lon="9.040238"><ele>62.0</ele><time>2026-03-29T08:05:23.431Z</time></trkpt><trkpt lat="45.2309557" lon="9.0403251"><ele>62.0</ele><time>2026-03-29T08:05:26.415Z</time></trkpt><trkpt lat="45.2309233" lon="9.0404427"><ele>62.00000000000001</ele><time>2026-03-29T08:05:29.43Z</time></trkpt><trkpt lat="45.2309083" lon="9.0405379"><ele>62.0</ele><time>2026-03-29T08:05:31.429Z</time></trkpt><trkpt lat="45.2308965" lon="9.0406507"><ele>62.00000000000001</ele><time>2026-03-29T08:05:33.445Z</time></trkpt><trkpt lat="45.2308863" lon="9.040756"><ele>62.0</ele><time>2026-03-29T08:05:35.422Z</time></trkpt><trkpt lat="45.2308535" lon="9.0408482"><ele>62.0</ele><time>2026-03-29T08:05:37.427Z</time></trkpt><trkpt lat="45.2307641" lon="9.0408666"><ele>62.0</ele><time>2026-03-29T08:05:40.407Z</time></trkpt><trkpt lat="45.2306779" lon="9.0408301"><ele>62.00000000000001</ele><time>2026-03-29T08:05:43.425Z</time></trkpt><trkpt lat="45.2306074" lon="9.040809"><ele>62.0</ele><time>2026-03-29T08:05:45.409Z</time></trkpt><trkpt lat="45.230536" lon="9.0407876"><ele>62.333333333333336</ele><time>2026-03-29T08:05:47.431Z</time></trkpt><trkpt lat="45.2304614" lon="9.0407501"><ele>62.66666666666667</ele><time>2026-03-29T08:05:49.424Z</time></trkpt><trkpt lat="45.2303899" lon="9.0407224"><ele>63.0</ele><time>2026-03-29T08:05:51.431Z</time></trkpt><trkpt lat="45.2303152" lon="9.0406972"><ele>63.33333333333333</ele><time>2026-03-29T08:05:53.414Z</time></trkpt><trkpt lat="45.230239" lon="9.040683"><ele>63.666666666666664</ele><time>2026-03-29T08:05:55.438Z</time></trkpt><trkpt lat="45.2301629" lon="9.0406829"><ele>64.0</ele><time>2026-03-29T08:05:57.434Z</time></trkpt><trkpt lat="45.2300853" lon="9.0406533"><ele>63.99999999999999</ele><time>2026-03-29T08:05:59.443Z</time></trkpt><trkpt lat="45.2300084" lon="9.0406153"><ele>64.0</ele><time>2026-03-29T08:06:01.484Z</time></trkpt><trkpt lat="45.2299315" lon="9.0405878"><ele>64.0</ele><time>2026-03-29T08:06:03.509Z</time></trkpt><trkpt lat="45.2298595" lon="9.0405513"><ele>64.0</ele><time>2026-03-29T08:06:05.43Z</time></trkpt><trkpt lat="45.2298022" lon="9.0404916"><ele>63.99999999999999</ele><time>2026-03-29T08:06:07.42Z</time></trkpt><trkpt lat="45.2297513" lon="9.0404195"><ele>64.0</ele><time>2026-03-29T08:06:09.43Z</time></trkpt><trkpt lat="45.2296867" lon="9.0403672"><ele>64.14285714285714</ele><time>2026-03-29T08:06:11.414Z</time></trkpt><trkpt lat="45.2296138" lon="9.0403257"><ele>64.28571428571428</ele><time>2026-03-29T08:06:13.407Z</time></trkpt><trkpt lat="45.2295263" lon="9.0403138"><ele>64.42857142857143</ele><time>2026-03-29T08:06:15.441Z</time></trkpt><trkpt lat="45.2294681" lon="9.040272"><ele>64.57142857142857</ele><time>2026-03-29T08:06:17.429Z</time></trkpt><trkpt lat="45.2294182" lon="9.0402072"><ele>64.71428571428572</ele><time>2026-03-29T08:06:21.43Z</time></trkpt><trkpt lat="45.2294165" lon="9.0400977"><ele>64.85714285714286</ele><time>2026-03-29T08:06:26.429Z</time></trkpt><trkpt lat="45.2294186" lon="9.0400029"><ele>65.0</ele><time>2026-03-29T08:06:29.424Z</time></trkpt><trkpt lat="45.2294147" lon="9.0398952"><ele>65.66666666666667</ele><time>2026-03-29T08:06:32.422Z</time></trkpt><trkpt lat="45.2294044" lon="9.0397823"><ele>66.33333333333334</ele><time>2026-03-29T08:06:35.426Z</time></trkpt><trkpt lat="45.2293864" lon="9.0396898"><ele>67.0</ele><time>2026-03-29T08:06:39.423Z</time></trkpt><trkpt lat="45.2293097" lon="9.039697"><ele>67.66666666666667</ele><time>2026-03-29T08:06:42.508Z</time></trkpt><trkpt lat="45.2292235" lon="9.0396582"><ele>68.33333333333333</ele><time>2026-03-29T08:06:45.424Z</time></trkpt><trkpt lat="45.2291684" lon="9.0396038"><ele>69.0</ele><time>2026-03-29T08:06:47.417Z</time></trkpt><trkpt lat="45.2291257" lon="9.0395185"><ele>69.0</ele><time>2026-03-29T08:06:49.408Z</time></trkpt><trkpt lat="45.2290951" lon="9.0394294"><ele>69.0</ele><time>2026-03-29T08:06:51.431Z</time></trkpt><trkpt lat="45.229048" lon="9.0393579"><ele>69.0</ele><time>2026-03-29T08:06:53.422Z</time></trkpt><trkpt lat="45.2289736" lon="9.0392963"><ele>69.0</ele><time>2026-03-29T08:06:56.43Z</time></trkpt><trkpt lat="45.22891" lon="9.0392803"><ele>69.0</ele><time>2026-03-29T08:06:58.42Z</time></trkpt><trkpt lat="45.2288211" lon="9.0392565"><ele>69.0</ele><time>2026-03-29T08:07:01.414Z</time></trkpt><trkpt lat="45.2287467" lon="9.0392592"><ele>68.83333333333333</ele><time>2026-03-29T08:07:03.422Z</time></trkpt><trkpt lat="45.2286687" lon="9.0392611"><ele>68.66666666666667</ele><time>2026-03-29T08:07:05.48Z</time></trkpt><trkpt lat="45.2285925" lon="9.0392409"><ele>68.5</ele><time>2026-03-29T08:07:07.439Z</time></trkpt><trkpt lat="45.2284973" lon="9.0392195"><ele>68.33333333333334</ele><time>2026-03-29T08:07:09.423Z</time></trkpt><trkpt lat="45.2284288" lon="9.0391857"><ele>68.16666666666667</ele><time>2026-03-29T08:07:11.42Z</time></trkpt><trkpt lat="45.2283419" lon="9.0391332"><ele>68.0</ele><time>2026-03-29T08:07:14.422Z</time></trkpt><trkpt lat="45.2282728" lon="9.0391057"><ele>68.16666666666667</ele><time>2026-03-29T08:07:16.424Z</time></trkpt><trkpt lat="45.2281956" lon="9.0390793"><ele>68.33333333333334</ele><time>2026-03-29T08:07:18.479Z</time></trkpt><trkpt lat="45.2281155" lon="9.0390576"><ele>68.5</ele><time>2026-03-29T08:07:20.409Z</time></trkpt><trkpt lat="45.2280391" lon="9.0390507"><ele>68.66666666666667</ele><time>2026-03-29T08:07:22.411Z</time></trkpt><trkpt lat="45.227952" lon="9.0390395"><ele>68.83333333333333</ele><time>2026-03-29T08:07:24.408Z</time></trkpt><trkpt lat="45.2278641" lon="9.0390285"><ele>69.0</ele><time>2026-03-29T08:07:26.408Z</time></trkpt><trkpt lat="45.2277911" lon="9.0390078"><ele>69.0</ele><time>2026-03-29T08:07:28.405Z</time></trkpt><trkpt lat="45.2277086" lon="9.0389643"><ele>69.0</ele><time>2026-03-29T08:07:31.436Z</time></trkpt><trkpt lat="45.2276407" lon="9.038942"><ele>69.0</ele><time>2026-03-29T08:07:33.49Z</time></trkpt><trkpt lat="45.2275581" lon="9.0389303"><ele>69.0</ele><time>2026-03-29T08:07:35.434Z</time></trkpt><trkpt lat="45.2274776" lon="9.0388944"><ele>69.0</ele><time>2026-03-29T08:07:38.446Z</time></trkpt><trkpt lat="45.227415" lon="9.0388804"><ele>69.0</ele><time>2026-03-29T08:07:40.402Z</time></trkpt><trkpt lat="45.2273453" lon="9.0388723"><ele>69.0</ele><time>2026-03-29T08:07:42.426Z</time></trkpt><trkpt lat="45.2272826" lon="9.038801"><ele>69.0</ele><time>2026-03-29T08:07:45.486Z</time></trkpt><trkpt lat="45.2272828" lon="9.0387079"><ele>69.0</ele><time>2026-03-29T08:07:47.42Z</time></trkpt><trkpt lat="45.2273065" lon="9.0386196"><ele>69.0</ele><time>2026-03-29T08:07:49.405Z</time></trkpt><trkpt lat="45.2273323" lon="9.0385236"><ele>69.0</ele><time>2026-03-29T08:07:51.438Z</time></trkpt><trkpt lat="45.2273501" lon="9.0384017"><ele>69.0</ele><time>2026-03-29T08:07:54.409Z</time></trkpt><trkpt lat="45.2273665" lon="9.0383081"><ele>69.0</ele><time>2026-03-29T08:07:57.431Z</time></trkpt><trkpt lat="45.2273365" lon="9.0382187"><ele>68.5</ele><time>2026-03-29T08:08:00.43Z</time></trkpt><trkpt lat="45.2272701" lon="9.0381607"><ele>68.0</ele><time>2026-03-29T08:08:03.414Z</time></trkpt><trkpt lat="45.2272133" lon="9.0380976"><ele>67.5</ele><time>2026-03-29T08:08:05.402Z</time></trkpt><trkpt lat="45.2271761" lon="9.0380162"><ele>67.0</ele><time>2026-03-29T08:08:07.43Z</time></trkpt><trkpt lat="45.2271451" lon="9.0379132"><ele>66.5</ele><time>2026-03-29T08:08:09.427Z</time></trkpt><trkpt lat="45.227107" lon="9.0377894"><ele>66.0</ele><time>2026-03-29T08:08:12.444Z</time></trkpt><trkpt lat="45.2270629" lon="9.0376785"><ele>66.0</ele><time>2026-03-29T08:08:15.433Z</time></trkpt><trkpt lat="45.2270093" lon="9.0375837"><ele>66.0</ele><time>2026-03-29T08:08:18.431Z</time></trkpt><trkpt lat="45.2269645" lon="9.0375006"><ele>66.0</ele><time>2026-03-29T08:08:20.442Z</time></trkpt><trkpt lat="45.2269205" lon="9.0374038"><ele>66.0</ele><time>2026-03-29T08:08:22.432Z</time></trkpt><trkpt lat="45.2268647" lon="9.0372923"><ele>66.0</ele><time>2026-03-29T08:08:25.514Z</time></trkpt><trkpt lat="45.2268331" lon="9.0371953"><ele>66.0</ele><time>2026-03-29T08:08:27.432Z</time></trkpt><trkpt lat="45.2268065" lon="9.0370989"><ele>65.71428571428571</ele><time>2026-03-29T08:08:29.42Z</time></trkpt><trkpt lat="45.2267742" lon="9.0370047"><ele>65.42857142857143</ele><time>2026-03-29T08:08:31.425Z</time></trkpt><trkpt lat="45.2267418" lon="9.0369087"><ele>65.14285714285714</ele><time>2026-03-29T08:08:33.43Z</time></trkpt><trkpt lat="45.2267204" lon="9.0368213"><ele>64.85714285714286</ele><time>2026-03-29T08:08:35.427Z</time></trkpt><trkpt lat="45.2266527" lon="9.0368114"><ele>64.57142857142857</ele><time>2026-03-29T08:08:39.406Z</time></trkpt><trkpt lat="45.2265796" lon="9.0368746"><ele>64.28571428571428</ele><time>2026-03-29T08:08:42.436Z</time></trkpt><trkpt lat="45.2265268" lon="9.0369438"><ele>64.0</ele><time>2026-03-29T08:08:45.408Z</time></trkpt><trkpt lat="45.2264652" lon="9.0370085"><ele>63.99999999999999</ele><time>2026-03-29T08:08:47.434Z</time></trkpt><trkpt lat="45.2264342" lon="9.0370887"><ele>64.0</ele><time>2026-03-29T08:08:49.439Z</time></trkpt><trkpt lat="45.2263618" lon="9.0371325"><ele>64.0</ele><time>2026-03-29T08:08:52.43Z</time></trkpt><trkpt lat="45.2262935" lon="9.0371241"><ele>64.0</ele><time>2026-03-29T08:08:55.407Z</time></trkpt><trkpt lat="45.2262121" lon="9.0371087"><ele>63.99999999999999</ele><time>2026-03-29T08:08:58.43Z</time></trkpt><trkpt lat="45.2261336" lon="9.0371526"><ele>64.0</ele><time>2026-03-29T08:09:01.405Z</time></trkpt><trkpt lat="45.2260661" lon="9.0372579"><ele>63.99999999999999</ele><time>2026-03-29T08:09:04.425Z</time></trkpt><trkpt lat="45.226012" lon="9.0373346"><ele>64.0</ele><time>2026-03-29T08:09:06.419Z</time></trkpt><trkpt lat="45.225971" lon="9.0374201"><ele>64.0</ele><time>2026-03-29T08:09:08.416Z</time></trkpt><trkpt lat="45.225924" lon="9.037531"><ele>64.0</ele><time>2026-03-29T08:09:11.401Z</time></trkpt><trkpt lat="45.2258755" lon="9.0375884"><ele>63.99999999999999</ele><time>2026-03-29T08:09:13.424Z</time></trkpt><trkpt lat="45.2258249" lon="9.0377052"><ele>64.0</ele><time>2026-03-29T08:09:16.427Z</time></trkpt><trkpt lat="45.2257933" lon="9.0378096"><ele>63.99999999999999</ele><time>2026-03-29T08:09:18.427Z</time></trkpt><trkpt lat="45.2257531" lon="9.0379115"><ele>64.0</ele><time>2026-03-29T08:09:20.41Z</time></trkpt><trkpt lat="45.2257122" lon="9.0379865"><ele>64.0</ele><time>2026-03-29T08:09:22.422Z</time></trkpt><trkpt lat="45.2256562" lon="9.0380774"><ele>64.0</ele><time>2026-03-29T08:09:25.43Z</time></trkpt><trkpt lat="45.2255986" lon="9.038163"><ele>63.99999999999999</ele><time>2026-03-29T08:09:28.424Z</time></trkpt><trkpt lat="45.2255508" lon="9.0382241"><ele>64.0</ele><time>2026-03-29T08:09:30.418Z</time></trkpt><trkpt lat="45.2255013" lon="9.0383048"><ele>64.16666666666666</ele><time>2026-03-29T08:09:33.409Z</time></trkpt><trkpt lat="45.225444" lon="9.0383963"><ele>64.33333333333333</ele><time>2026-03-29T08:09:36.419Z</time></trkpt><trkpt lat="45.225407" lon="9.0384749"><ele>64.5</ele><time>2026-03-29T08:09:38.424Z</time></trkpt><trkpt lat="45.2253715" lon="9.038564"><ele>64.66666666666667</ele><time>2026-03-29T08:09:40.42Z</time></trkpt><trkpt lat="45.2253354" lon="9.0386774"><ele>64.83333333333334</ele><time>2026-03-29T08:09:43.433Z</time></trkpt><trkpt lat="45.2252965" lon="9.0387776"><ele>65.0</ele><time>2026-03-29T08:09:46.435Z</time></trkpt><trkpt lat="45.2252707" lon="9.038887"><ele>65.00000000000001</ele><time>2026-03-29T08:09:49.421Z</time></trkpt><trkpt lat="45.2252563" lon="9.0389861"><ele>65.0</ele><time>2026-03-29T08:09:52.432Z</time></trkpt><trkpt lat="45.2252449" lon="9.0390806"><ele>65.0</ele><time>2026-03-29T08:09:55.437Z</time></trkpt><trkpt lat="45.2251984" lon="9.0391481"><ele>65.0</ele><time>2026-03-29T08:09:58.422Z</time></trkpt><trkpt lat="45.2251397" lon="9.0391935"><ele>65.0</ele><time>2026-03-29T08:10:01.43Z</time></trkpt><trkpt lat="45.2250656" lon="9.0392461"><ele>65.00000000000001</ele><time>2026-03-29T08:10:05.405Z</time></trkpt><trkpt lat="45.2250023" lon="9.0392823"><ele>65.0</ele><time>2026-03-29T08:10:08.411Z</time></trkpt><trkpt lat="45.2249411" lon="9.039329"><ele>65.00000000000001</ele><time>2026-03-29T08:10:11.426Z</time></trkpt><trkpt lat="45.2249021" lon="9.0393992"><ele>65.0</ele><time>2026-03-29T08:10:14.433Z</time></trkpt><trkpt lat="45.2248693" lon="9.0395056"><ele>65.0</ele><time>2026-03-29T08:10:17.428Z</time></trkpt><trkpt lat="45.2248287" lon="9.0395979"><ele>65.0</ele><time>2026-03-29T08:10:20.416Z</time></trkpt><trkpt lat="45.224792" lon="9.0396754"><ele>65.0</ele><time>2026-03-29T08:10:23.415Z</time></trkpt><trkpt lat="45.2247214" lon="9.0397432"><ele>65.00000000000001</ele><time>2026-03-29T08:10:26.42Z</time></trkpt><trkpt lat="45.2246805" lon="9.0398324"><ele>65.0</ele><time>2026-03-29T08:10:29.403Z</time></trkpt><trkpt lat="45.2246267" lon="9.0398918"><ele>65.0</ele><time>2026-03-29T08:10:32.43Z</time></trkpt><trkpt lat="45.224573" lon="9.0399604"><ele>65.0</ele><time>2026-03-29T08:10:35.408Z</time></trkpt><trkpt lat="45.224512" lon="9.040051"><ele>65.0</ele><time>2026-03-29T08:10:38.427Z</time></trkpt><trkpt lat="45.2244621" lon="9.0401577"><ele>65.0</ele><time>2026-03-29T08:10:41.432Z</time></trkpt><trkpt lat="45.2244118" lon="9.0402318"><ele>65.0</ele><time>2026-03-29T08:10:43.433Z</time></trkpt><trkpt lat="45.2243843" lon="9.0403186"><ele>65.0</ele><time>2026-03-29T08:10:45.433Z</time></trkpt><trkpt lat="45.2243617" lon="9.0404347"><ele>65.14285714285715</ele><time>2026-03-29T08:10:48.423Z</time></trkpt><trkpt lat="45.2243015" lon="9.0405006"><ele>65.28571428571429</ele><time>2026-03-29T08:10:51.432Z</time></trkpt><trkpt lat="45.2242279" lon="9.0405418"><ele>65.42857142857143</ele><time>2026-03-29T08:10:54.416Z</time></trkpt><trkpt lat="45.2241557" lon="9.0405711"><ele>65.57142857142858</ele><time>2026-03-29T08:10:57.423Z</time></trkpt><trkpt lat="45.2240883" lon="9.0406169"><ele>65.71428571428572</ele><time>2026-03-29T08:11:00.433Z</time></trkpt><trkpt lat="45.224032" lon="9.0406915"><ele>65.85714285714286</ele><time>2026-03-29T08:11:03.431Z</time></trkpt><trkpt lat="45.2240047" lon="9.0407737"><ele>66.0</ele><time>2026-03-29T08:11:06.426Z</time></trkpt><trkpt lat="45.2239552" lon="9.0408524"><ele>65.5</ele><time>2026-03-29T08:11:09.427Z</time></trkpt><trkpt lat="45.2239203" lon="9.0409404"><ele>65.0</ele><time>2026-03-29T08:11:12.44Z</time></trkpt><trkpt lat="45.2238635" lon="9.0410187"><ele>64.5</ele><time>2026-03-29T08:11:15.435Z</time></trkpt><trkpt lat="45.2238077" lon="9.0410601"><ele>64.0</ele><time>2026-03-29T08:11:17.44Z</time></trkpt><trkpt lat="45.2237915" lon="9.0411534"><ele>63.5</ele><time>2026-03-29T08:11:20.432Z</time></trkpt><trkpt lat="45.2238065" lon="9.0412703"><ele>63.0</ele><time>2026-03-29T08:11:23.416Z</time></trkpt><trkpt lat="45.2238416" lon="9.0413958"><ele>63.0</ele><time>2026-03-29T08:11:26.497Z</time></trkpt><trkpt lat="45.223879" lon="9.0414973"><ele>63.0</ele><time>2026-03-29T08:11:29.422Z</time></trkpt><trkpt lat="45.2238878" lon="9.0416025"><ele>63.0</ele><time>2026-03-29T08:11:32.423Z</time></trkpt><trkpt lat="45.2238772" lon="9.0416915"><ele>63.0</ele><time>2026-03-29T08:11:34.436Z</time></trkpt><trkpt lat="45.2238693" lon="9.0417812"><ele>63.0</ele><time>2026-03-29T08:11:36.423Z</time></trkpt><trkpt lat="45.2238683" lon="9.041877"><ele>63.0</ele><time>2026-03-29T08:11:38.414Z</time></trkpt><trkpt lat="45.2238708" lon="9.0420132"><ele>63.0</ele><time>2026-03-29T08:11:41.44Z</time></trkpt><trkpt lat="45.2238873" lon="9.0421362"><ele>63.0</ele><time>2026-03-29T08:11:44.432Z</time></trkpt><trkpt lat="45.2238965" lon="9.0422334"><ele>63.0</ele><time>2026-03-29T08:11:47.431Z</time></trkpt><trkpt lat="45.2239034" lon="9.0423325"><ele>63.0</ele><time>2026-03-29T08:11:50.41Z</time></trkpt><trkpt lat="45.2239097" lon="9.0424326"><ele>63.0</ele><time>2026-03-29T08:11:53.43Z</time></trkpt><trkpt lat="45.2239452" lon="9.0425331"><ele>63.0</ele><time>2026-03-29T08:11:56.429Z</time></trkpt><trkpt lat="45.2239839" lon="9.0426252"><ele>63.0</ele><time>2026-03-29T08:11:59.411Z</time></trkpt><trkpt lat="45.2239966" lon="9.0427141"><ele>63.0</ele><time>2026-03-29T08:12:02.426Z</time></trkpt><trkpt lat="45.2240077" lon="9.0428092"><ele>63.42857142857143</ele><time>2026-03-29T08:12:05.423Z</time></trkpt><trkpt lat="45.2240488" lon="9.0429037"><ele>63.85714285714286</ele><time>2026-03-29T08:12:09.411Z</time></trkpt><trkpt lat="45.2241007" lon="9.0429602"><ele>64.28571428571428</ele><time>2026-03-29T08:12:12.431Z</time></trkpt><trkpt lat="45.2241238" lon="9.0430612"><ele>64.71428571428572</ele><time>2026-03-29T08:12:15.43Z</time></trkpt><trkpt lat="45.2241354" lon="9.0431591"><ele>65.14285714285714</ele><time>2026-03-29T08:12:18.44Z</time></trkpt><trkpt lat="45.2241424" lon="9.0432735"><ele>65.57142857142857</ele><time>2026-03-29T08:12:21.442Z</time></trkpt><trkpt lat="45.2241528" lon="9.0433637"><ele>66.0</ele><time>2026-03-29T08:12:23.455Z</time></trkpt><trkpt lat="45.2241467" lon="9.0434949"><ele>66.0</ele><time>2026-03-29T08:12:26.431Z</time></trkpt><trkpt lat="45.2242144" lon="9.0435477"><ele>66.0</ele><time>2026-03-29T08:12:33.503Z</time></trkpt><trkpt lat="45.2242891" lon="9.043527"><ele>66.0</ele><time>2026-03-29T08:12:41.41Z</time></trkpt><trkpt lat="45.2243111" lon="9.0436271"><ele>66.0</ele><time>2026-03-29T08:12:46.44Z</time></trkpt><trkpt lat="45.224374" lon="9.0436641"><ele>66.0</ele><time>2026-03-29T08:13:01.422Z</time></trkpt><trkpt lat="45.2244105" lon="9.0437695"><ele>66.0</ele><time>2026-03-29T08:13:05.415Z</time></trkpt><trkpt lat="45.2244525" lon="9.0438492"><ele>66.0</ele><time>2026-03-29T08:13:08.408Z</time></trkpt><trkpt lat="45.2244942" lon="9.0439646"><ele>66.0</ele><time>2026-03-29T08:13:11.43Z</time></trkpt><trkpt lat="45.2245179" lon="9.0440552"><ele>66.0</ele><time>2026-03-29T08:13:13.433Z</time></trkpt><trkpt lat="45.2245728" lon="9.0441507"><ele>66.0</ele><time>2026-03-29T08:13:16.406Z</time></trkpt><trkpt lat="45.2246431" lon="9.0441772"><ele>66.0</ele><time>2026-03-29T08:13:20.41Z</time></trkpt><trkpt lat="45.2247089" lon="9.0441502"><ele>66.0</ele><time>2026-03-29T08:13:24.416Z</time></trkpt><trkpt lat="45.2247884" lon="9.0441373"><ele>66.0</ele><time>2026-03-29T08:13:28.427Z</time></trkpt><trkpt lat="45.2248461" lon="9.0440901"><ele>66.0</ele><time>2026-03-29T08:13:31.436Z</time></trkpt><trkpt lat="45.224898" lon="9.0440257"><ele>66.0</ele><time>2026-03-29T08:13:34.429Z</time></trkpt><trkpt lat="45.2249568" lon="9.0439858"><ele>66.0</ele><time>2026-03-29T08:13:38.429Z</time></trkpt><trkpt lat="45.225013" lon="9.0439376"><ele>66.0</ele><time>2026-03-29T08:13:50.426Z</time></trkpt><trkpt lat="45.2250735" lon="9.0439677"><ele>66.0</ele><time>2026-03-29T08:14:07.407Z</time></trkpt><trkpt lat="45.2251546" lon="9.044004"><ele>66.0</ele><time>2026-03-29T08:14:13.405Z</time></trkpt><trkpt lat="45.2252023" lon="9.044077"><ele>66.0</ele><time>2026-03-29T08:14:16.407Z</time></trkpt><trkpt lat="45.2252552" lon="9.0441578"><ele>66.0</ele><time>2026-03-29T08:14:19.417Z</time></trkpt><trkpt lat="45.2252976" lon="9.0442282"><ele>65.0</ele><time>2026-03-29T08:14:21.404Z</time></trkpt><trkpt lat="45.2253429" lon="9.0443415"><ele>64.0</ele><time>2026-03-29T08:14:24.43Z</time></trkpt><trkpt lat="45.225526" lon="9.0448883"><ele>65.0</ele><time>2026-03-29T08:14:34.674Z</time></trkpt><trkpt lat="45.2255905" lon="9.0452932"><ele>66.0</ele><time>2026-03-29T08:14:43.569Z</time></trkpt><trkpt lat="45.2254022" lon="9.0456965"><ele>66.0</ele><time>2026-03-29T08:14:52.673Z</time></trkpt><trkpt lat="45.2253334" lon="9.0461427"><ele>66.0</ele><time>2026-03-29T08:15:01.667Z</time></trkpt><trkpt lat="45.2252852" lon="9.0462023"><ele>66.0</ele><time>2026-03-29T08:15:03.4Z</time></trkpt><trkpt lat="45.2252151" lon="9.0461961"><ele>66.0</ele><time>2026-03-29T08:15:05.409Z</time></trkpt><trkpt lat="45.2251789" lon="9.0462834"><ele>66.0</ele><time>2026-03-29T08:15:09.41Z</time></trkpt><trkpt lat="45.2251343" lon="9.0463876"><ele>66.0</ele><time>2026-03-29T08:15:12.468Z</time></trkpt><trkpt lat="45.2250994" lon="9.046492"><ele>66.0</ele><time>2026-03-29T08:15:15.409Z</time></trkpt><trkpt lat="45.2251132" lon="9.0465842"><ele>66.0</ele><time>2026-03-29T08:15:18.411Z</time></trkpt><trkpt lat="45.225165" lon="9.0466531"><ele>66.0</ele><time>2026-03-29T08:15:21.405Z</time></trkpt><trkpt lat="45.2252127" lon="9.0467175"><ele>66.0</ele><time>2026-03-29T08:15:24.42Z</time></trkpt><trkpt lat="45.2252741" lon="9.0467867"><ele>65.83333333333333</ele><time>2026-03-29T08:15:27.418Z</time></trkpt><trkpt lat="45.2253335" lon="9.0468798"><ele>65.66666666666667</ele><time>2026-03-29T08:15:30.419Z</time></trkpt><trkpt lat="45.2253246" lon="9.0470036"><ele>65.5</ele><time>2026-03-29T08:15:33.405Z</time></trkpt><trkpt lat="45.2252635" lon="9.0470807"><ele>65.33333333333334</ele><time>2026-03-29T08:15:36.413Z</time></trkpt><trkpt lat="45.225227" lon="9.0471644"><ele>65.16666666666667</ele><time>2026-03-29T08:15:39.415Z</time></trkpt><trkpt lat="45.2251877" lon="9.0472445"><ele>65.0</ele><time>2026-03-29T08:15:42.407Z</time></trkpt><trkpt lat="45.2251403" lon="9.0473224"><ele>65.0</ele><time>2026-03-29T08:15:45.412Z</time></trkpt><trkpt lat="45.2250869" lon="9.0474044"><ele>65.0</ele><time>2026-03-29T08:15:48.408Z</time></trkpt><trkpt lat="45.2250453" lon="9.0475003"><ele>65.0</ele><time>2026-03-29T08:15:51.408Z</time></trkpt><trkpt lat="45.2249842" lon="9.0475961"><ele>65.0</ele><time>2026-03-29T08:15:54.402Z</time></trkpt><trkpt lat="45.2249243" lon="9.0476926"><ele>65.0</ele><time>2026-03-29T08:15:57.403Z</time></trkpt><trkpt lat="45.2248647" lon="9.0478008"><ele>65.0</ele><time>2026-03-29T08:16:00.408Z</time></trkpt><trkpt lat="45.2248108" lon="9.0478834"><ele>65.0</ele><time>2026-03-29T08:16:03.413Z</time></trkpt><trkpt lat="45.2247733" lon="9.0479611"><ele>65.0</ele><time>2026-03-29T08:16:05.427Z</time></trkpt><trkpt lat="45.2247346" lon="9.0480501"><ele>65.0</ele><time>2026-03-29T08:16:07.412Z</time></trkpt><trkpt lat="45.2246973" lon="9.0481306"><ele>65.0</ele><time>2026-03-29T08:16:09.406Z</time></trkpt><trkpt lat="45.2246498" lon="9.0482365"><ele>65.0</ele><time>2026-03-29T08:16:12.414Z</time></trkpt><trkpt lat="45.2246425" lon="9.0483731"><ele>65.0</ele><time>2026-03-29T08:16:15.404Z</time></trkpt><trkpt lat="45.2246612" lon="9.0484664"><ele>65.00000000000001</ele><time>2026-03-29T08:16:17.409Z</time></trkpt><trkpt lat="45.2246811" lon="9.0485698"><ele>65.0</ele><time>2026-03-29T08:16:19.408Z</time></trkpt><trkpt lat="45.224702" lon="9.0486683"><ele>65.0</ele><time>2026-03-29T08:16:21.41Z</time></trkpt><trkpt lat="45.2247078" lon="9.0487687"><ele>65.0</ele><time>2026-03-29T08:16:23.411Z</time></trkpt><trkpt lat="45.2247008" lon="9.0488634"><ele>65.0</ele><time>2026-03-29T08:16:25.405Z</time></trkpt><trkpt lat="45.2247006" lon="9.0489664"><ele>65.00000000000001</ele><time>2026-03-29T08:16:27.414Z</time></trkpt><trkpt lat="45.2247028" lon="9.0490602"><ele>65.0</ele><time>2026-03-29T08:16:29.417Z</time></trkpt><trkpt lat="45.2247071" lon="9.0491518"><ele>65.00000000000001</ele><time>2026-03-29T08:16:31.409Z</time></trkpt><trkpt lat="45.2247047" lon="9.049253"><ele>65.0</ele><time>2026-03-29T08:16:33.411Z</time></trkpt><trkpt lat="45.2246957" lon="9.0493531"><ele>65.0</ele><time>2026-03-29T08:16:35.407Z</time></trkpt><trkpt lat="45.22469" lon="9.0494545"><ele>65.0</ele><time>2026-03-29T08:16:37.403Z</time></trkpt><trkpt lat="45.2246797" lon="9.0495636"><ele>65.0</ele><time>2026-03-29T08:16:39.416Z</time></trkpt><trkpt lat="45.2246714" lon="9.0496679"><ele>65.00000000000001</ele><time>2026-03-29T08:16:41.412Z</time></trkpt><trkpt lat="45.2246508" lon="9.0497663"><ele>65.0</ele><time>2026-03-29T08:16:43.424Z</time></trkpt><trkpt lat="45.2246345" lon="9.0498619"><ele>65.0</ele><time>2026-03-29T08:16:45.411Z</time></trkpt><trkpt lat="45.2246121" lon="9.0499474"><ele>65.0</ele><time>2026-03-29T08:16:47.408Z</time></trkpt><trkpt lat="45.2245877" lon="9.0500356"><ele>65.0</ele><time>2026-03-29T08:16:49.416Z</time></trkpt><trkpt lat="45.2245523" lon="9.0501323"><ele>65.0</ele><time>2026-03-29T08:16:51.411Z</time></trkpt><trkpt lat="45.2245149" lon="9.0502292"><ele>65.0</ele><time>2026-03-29T08:16:54.473Z</time></trkpt><trkpt lat="45.2244848" lon="9.050347"><ele>65.0</ele><time>2026-03-29T08:16:57.402Z</time></trkpt><trkpt lat="45.224452" lon="9.0509893"><ele>65.16666666666667</ele><time>2026-03-29T08:17:08.622Z</time></trkpt><trkpt lat="45.2243932" lon="9.0510788"><ele>65.33333333333334</ele><time>2026-03-29T08:17:11.406Z</time></trkpt><trkpt lat="45.224321" lon="9.0511105"><ele>65.5</ele><time>2026-03-29T08:18:12.429Z</time></trkpt><trkpt lat="45.2242947" lon="9.051023"><ele>65.66666666666667</ele><time>2026-03-29T08:18:30.429Z</time></trkpt><trkpt lat="45.2242834" lon="9.0511145"><ele>65.83333333333333</ele><time>2026-03-29T08:18:56.415Z</time></trkpt><trkpt lat="45.2242135" lon="9.0511282"><ele>66.0</ele><time>2026-03-29T08:19:01.412Z</time></trkpt><trkpt lat="45.2240534" lon="9.0514319"><ele>66.0</ele><time>2026-03-29T08:19:15.584Z</time></trkpt><trkpt lat="45.2240935" lon="9.0513474"><ele>66.0</ele><time>2026-03-29T08:19:19.409Z</time></trkpt><trkpt lat="45.2241673" lon="9.0513251"><ele>66.0</ele><time>2026-03-29T08:19:23.439Z</time></trkpt><trkpt lat="45.2242218" lon="9.0514191"><ele>66.0</ele><time>2026-03-29T08:19:28.425Z</time></trkpt><trkpt lat="45.2242285" lon="9.0515144"><ele>66.0</ele><time>2026-03-29T08:19:31.424Z</time></trkpt><trkpt lat="45.2242688" lon="9.0516042"><ele>66.0</ele><time>2026-03-29T08:19:35.426Z</time></trkpt><trkpt lat="45.2242743" lon="9.0517145"><ele>65.66666666666667</ele><time>2026-03-29T08:19:39.437Z</time></trkpt><trkpt lat="45.2242921" lon="9.0518277"><ele>65.33333333333333</ele><time>2026-03-29T08:19:43.494Z</time></trkpt><trkpt lat="45.2243057" lon="9.051935"><ele>65.0</ele><time>2026-03-29T08:19:47.444Z</time></trkpt><trkpt lat="45.2243163" lon="9.0520456"><ele>64.66666666666666</ele><time>2026-03-29T08:19:50.443Z</time></trkpt><trkpt lat="45.224329" lon="9.0521398"><ele>64.33333333333333</ele><time>2026-03-29T08:19:53.439Z</time></trkpt><trkpt lat="45.2243453" lon="9.0522516"><ele>64.0</ele><time>2026-03-29T08:19:57.49Z</time></trkpt><trkpt lat="45.2243663" lon="9.0523455"><ele>63.99999999999999</ele><time>2026-03-29T08:20:00.433Z</time></trkpt><trkpt lat="45.2243849" lon="9.0524502"><ele>64.0</ele><time>2026-03-29T08:20:03.425Z</time></trkpt><trkpt lat="45.2244069" lon="9.0525511"><ele>64.0</ele><time>2026-03-29T08:20:06.424Z</time></trkpt><trkpt lat="45.2244276" lon="9.0526601"><ele>64.0</ele><time>2026-03-29T08:20:09.423Z</time></trkpt><trkpt lat="45.224449" lon="9.0527614"><ele>63.99999999999999</ele><time>2026-03-29T08:20:12.424Z</time></trkpt><trkpt lat="45.224469" lon="9.052877"><ele>64.0</ele><time>2026-03-29T08:20:15.436Z</time></trkpt><trkpt lat="45.2244789" lon="9.0529873"><ele>63.666666666666664</ele><time>2026-03-29T08:20:18.431Z</time></trkpt><trkpt lat="45.2244831" lon="9.0530784"><ele>63.33333333333333</ele><time>2026-03-29T08:20:20.443Z</time></trkpt><trkpt lat="45.224484" lon="9.0532034"><ele>63.0</ele><time>2026-03-29T08:20:23.432Z</time></trkpt><trkpt lat="45.2244952" lon="9.053328"><ele>62.66666666666667</ele><time>2026-03-29T08:20:26.431Z</time></trkpt><trkpt lat="45.2245028" lon="9.0534509"><ele>62.333333333333336</ele><time>2026-03-29T08:20:29.445Z</time></trkpt><trkpt lat="45.224506" lon="9.0535837"><ele>62.0</ele><time>2026-03-29T08:20:32.432Z</time></trkpt><trkpt lat="45.2245125" lon="9.0537139"><ele>62.00000000000001</ele><time>2026-03-29T08:20:35.436Z</time></trkpt><trkpt lat="45.2245179" lon="9.0538428"><ele>62.0</ele><time>2026-03-29T08:20:38.432Z</time></trkpt><trkpt lat="45.2245248" lon="9.0539653"><ele>62.0</ele><time>2026-03-29T08:20:41.421Z</time></trkpt><trkpt lat="45.2245275" lon="9.0540929"><ele>62.0</ele><time>2026-03-29T08:20:44.487Z</time></trkpt><trkpt lat="45.2245374" lon="9.0542181"><ele>62.00000000000001</ele><time>2026-03-29T08:20:47.439Z</time></trkpt><trkpt lat="45.2245518" lon="9.0543357"><ele>62.0</ele><time>2026-03-29T08:20:50.435Z</time></trkpt><trkpt lat="45.2245807" lon="9.0544462"><ele>62.0</ele><time>2026-03-29T08:20:53.438Z</time></trkpt><trkpt lat="45.2246568" lon="9.054475"><ele>62.00000000000001</ele><time>2026-03-29T08:20:56.421Z</time></trkpt><trkpt lat="45.2247197" lon="9.0544393"><ele>62.0</ele><time>2026-03-29T08:20:58.436Z</time></trkpt><trkpt lat="45.2247731" lon="9.054388"><ele>62.0</ele><time>2026-03-29T08:21:00.505Z</time></trkpt><trkpt lat="45.2248301" lon="9.05433"><ele>62.00000000000001</ele><time>2026-03-29T08:21:02.426Z</time></trkpt><trkpt lat="45.2248878" lon="9.0542831"><ele>62.0</ele><time>2026-03-29T08:21:04.427Z</time></trkpt><trkpt lat="45.224945" lon="9.054237"><ele>62.0</ele><time>2026-03-29T08:21:06.428Z</time></trkpt><trkpt lat="45.2250005" lon="9.0541866"><ele>61.66666666666667</ele><time>2026-03-29T08:21:08.426Z</time></trkpt><trkpt lat="45.2250743" lon="9.0541025"><ele>61.33333333333333</ele><time>2026-03-29T08:21:11.415Z</time></trkpt><trkpt lat="45.2251339" lon="9.0540401"><ele>61.0</ele><time>2026-03-29T08:21:13.494Z</time></trkpt><trkpt lat="45.2254551" lon="9.0536977"><ele>60.99999999999999</ele><time>2026-03-29T08:21:22.582Z</time></trkpt><trkpt lat="45.2255289" lon="9.0536593"><ele>61.0</ele><time>2026-03-29T08:21:27.416Z</time></trkpt><trkpt lat="45.2255848" lon="9.0536177"><ele>61.0</ele><time>2026-03-29T08:21:29.414Z</time></trkpt><trkpt lat="45.2256485" lon="9.0535659"><ele>61.0</ele><time>2026-03-29T08:21:31.422Z</time></trkpt><trkpt lat="45.2257337" lon="9.0535022"><ele>60.99999999999999</ele><time>2026-03-29T08:21:34.427Z</time></trkpt><trkpt lat="45.2257929" lon="9.0534451"><ele>61.0</ele><time>2026-03-29T08:21:36.429Z</time></trkpt><trkpt lat="45.2258528" lon="9.0533833"><ele>61.14285714285714</ele><time>2026-03-29T08:21:38.429Z</time></trkpt><trkpt lat="45.2259136" lon="9.0533382"><ele>61.285714285714285</ele><time>2026-03-29T08:21:40.429Z</time></trkpt><trkpt lat="45.2259747" lon="9.0532936"><ele>61.42857142857143</ele><time>2026-03-29T08:21:42.429Z</time></trkpt><trkpt lat="45.2260686" lon="9.0532644"><ele>61.57142857142857</ele><time>2026-03-29T08:21:45.446Z</time></trkpt><trkpt lat="45.2261343" lon="9.0532622"><ele>61.71428571428572</ele><time>2026-03-29T08:21:47.426Z</time></trkpt><trkpt lat="45.2262014" lon="9.0532525"><ele>61.85714285714286</ele><time>2026-03-29T08:21:49.503Z</time></trkpt><trkpt lat="45.2262729" lon="9.0532328"><ele>62.0</ele><time>2026-03-29T08:21:51.431Z</time></trkpt><trkpt lat="45.2263429" lon="9.0532197"><ele>62.142857142857146</ele><time>2026-03-29T08:21:53.439Z</time></trkpt><trkpt lat="45.2264134" lon="9.0532154"><ele>62.28571428571429</ele><time>2026-03-29T08:21:55.421Z</time></trkpt><trkpt lat="45.226484" lon="9.0532118"><ele>62.42857142857143</ele><time>2026-03-29T08:21:57.429Z</time></trkpt><trkpt lat="45.2265534" lon="9.0532088"><ele>62.57142857142857</ele><time>2026-03-29T08:21:59.42Z</time></trkpt><trkpt lat="45.2266213" lon="9.0531946"><ele>62.714285714285715</ele><time>2026-03-29T08:22:01.441Z</time></trkpt><trkpt lat="45.2266953" lon="9.0531772"><ele>62.85714285714286</ele><time>2026-03-29T08:22:03.42Z</time></trkpt><trkpt lat="45.2267625" lon="9.0531548"><ele>63.0</ele><time>2026-03-29T08:22:05.436Z</time></trkpt><trkpt lat="45.2268318" lon="9.0531251"><ele>63.42857142857143</ele><time>2026-03-29T08:22:07.432Z</time></trkpt><trkpt lat="45.2268968" lon="9.0531085"><ele>63.85714285714286</ele><time>2026-03-29T08:22:09.44Z</time></trkpt><trkpt lat="45.2269578" lon="9.0530754"><ele>64.28571428571428</ele><time>2026-03-29T08:22:11.439Z</time></trkpt><trkpt lat="45.2270246" lon="9.0530329"><ele>64.71428571428572</ele><time>2026-03-29T08:22:13.427Z</time></trkpt><trkpt lat="45.2270975" lon="9.0530091"><ele>65.14285714285714</ele><time>2026-03-29T08:22:15.439Z</time></trkpt><trkpt lat="45.2271653" lon="9.0529992"><ele>65.57142857142857</ele><time>2026-03-29T08:22:17.437Z</time></trkpt><trkpt lat="45.2272309" lon="9.0530054"><ele>66.0</ele><time>2026-03-29T08:22:19.425Z</time></trkpt><trkpt lat="45.2272914" lon="9.0530375"><ele>66.83333333333333</ele><time>2026-03-29T08:22:21.426Z</time></trkpt><trkpt lat="45.2273776" lon="9.0530914"><ele>67.66666666666667</ele><time>2026-03-29T08:22:24.436Z</time></trkpt><trkpt lat="45.2274414" lon="9.0531377"><ele>68.5</ele><time>2026-03-29T08:22:26.425Z</time></trkpt><trkpt lat="45.2275024" lon="9.0531634"><ele>69.33333333333334</ele><time>2026-03-29T08:22:28.417Z</time></trkpt><trkpt lat="45.2275913" lon="9.0531821"><ele>70.16666666666667</ele><time>2026-03-29T08:22:31.425Z</time></trkpt><trkpt lat="45.227679" lon="9.0532208"><ele>71.0</ele><time>2026-03-29T08:22:34.424Z</time></trkpt><trkpt lat="45.2277582" lon="9.053283"><ele>71.85714285714286</ele><time>2026-03-29T08:22:37.426Z</time></trkpt><trkpt lat="45.2278314" lon="9.0533557"><ele>72.71428571428571</ele><time>2026-03-29T08:22:40.438Z</time></trkpt><trkpt lat="45.2279075" lon="9.0534338"><ele>73.57142857142857</ele><time>2026-03-29T08:22:43.424Z</time></trkpt><trkpt lat="45.2279592" lon="9.0534904"><ele>74.42857142857143</ele><time>2026-03-29T08:22:45.432Z</time></trkpt><trkpt lat="45.2280148" lon="9.0535384"><ele>75.28571428571428</ele><time>2026-03-29T08:22:47.437Z</time></trkpt><trkpt lat="45.2280773" lon="9.0535799"><ele>76.14285714285714</ele><time>2026-03-29T08:22:49.418Z</time></trkpt><trkpt lat="45.2281389" lon="9.053605"><ele>77.0</ele><time>2026-03-29T08:22:51.425Z</time></trkpt><trkpt lat="45.2282099" lon="9.0536162"><ele>77.33333333333334</ele><time>2026-03-29T08:22:53.51Z</time></trkpt><trkpt lat="45.2282819" lon="9.0536125"><ele>77.66666666666667</ele><time>2026-03-29T08:22:55.413Z</time></trkpt><trkpt lat="45.2283701" lon="9.0535911"><ele>78.0</ele><time>2026-03-29T08:22:58.43Z</time></trkpt><trkpt lat="45.228457" lon="9.0535897"><ele>78.33333333333333</ele><time>2026-03-29T08:23:01.437Z</time></trkpt><trkpt lat="45.2284996" lon="9.0536696"><ele>78.66666666666666</ele><time>2026-03-29T08:23:04.432Z</time></trkpt><trkpt lat="45.228464" lon="9.053754"><ele>79.0</ele><time>2026-03-29T08:23:07.422Z</time></trkpt><trkpt lat="45.2284289" lon="9.0538311"><ele>79.0</ele><time>2026-03-29T08:23:10.435Z</time></trkpt><trkpt lat="45.2283853" lon="9.0539099"><ele>79.0</ele><time>2026-03-29T08:23:13.43Z</time></trkpt><trkpt lat="45.2283062" lon="9.0539437"><ele>79.0</ele><time>2026-03-29T08:23:16.421Z</time></trkpt><trkpt lat="45.2282359" lon="9.0539176"><ele>79.0</ele><time>2026-03-29T08:23:18.505Z</time></trkpt><trkpt lat="45.228171" lon="9.0538879"><ele>79.0</ele><time>2026-03-29T08:23:20.431Z</time></trkpt><trkpt lat="45.2278138" lon="9.0537467"><ele>78.71428571428572</ele><time>2026-03-29T08:23:31.433Z</time></trkpt><trkpt lat="45.2277418" lon="9.0537445"><ele>78.42857142857143</ele><time>2026-03-29T08:23:33.427Z</time></trkpt><trkpt lat="45.2276734" lon="9.0537056"><ele>78.14285714285714</ele><time>2026-03-29T08:23:35.416Z</time></trkpt><trkpt lat="45.2276111" lon="9.0536338"><ele>77.85714285714286</ele><time>2026-03-29T08:23:37.436Z</time></trkpt><trkpt lat="45.2275515" lon="9.0535857"><ele>77.57142857142857</ele><time>2026-03-29T08:23:39.433Z</time></trkpt><trkpt lat="45.2274869" lon="9.0535571"><ele>77.28571428571429</ele><time>2026-03-29T08:23:41.431Z</time></trkpt><trkpt lat="45.2274247" lon="9.0535301"><ele>77.0</ele><time>2026-03-29T08:23:43.498Z</time></trkpt><trkpt lat="45.2273418" lon="9.0535194"><ele>75.83333333333334</ele><time>2026-03-29T08:23:46.428Z</time></trkpt><trkpt lat="45.2272683" lon="9.0535913"><ele>74.66666666666667</ele><time>2026-03-29T08:23:49.406Z</time></trkpt><trkpt lat="45.2272192" lon="9.0536979"><ele>73.5</ele><time>2026-03-29T08:23:52.408Z</time></trkpt><trkpt lat="45.2271865" lon="9.0537819"><ele>72.33333333333333</ele><time>2026-03-29T08:23:54.411Z</time></trkpt><trkpt lat="45.2271536" lon="9.0538819"><ele>71.16666666666666</ele><time>2026-03-29T08:23:56.475Z</time></trkpt><trkpt lat="45.2271238" lon="9.0539719"><ele>70.0</ele><time>2026-03-29T08:23:58.419Z</time></trkpt><trkpt lat="45.2270857" lon="9.0540931"><ele>70.71428571428571</ele><time>2026-03-29T08:24:01.405Z</time></trkpt><trkpt lat="45.2270622" lon="9.0541838"><ele>71.42857142857143</ele><time>2026-03-29T08:24:03.414Z</time></trkpt><trkpt lat="45.2270311" lon="9.0542706"><ele>72.14285714285714</ele><time>2026-03-29T08:24:05.413Z</time></trkpt><trkpt lat="45.2270023" lon="9.0543578"><ele>72.85714285714286</ele><time>2026-03-29T08:24:07.414Z</time></trkpt><trkpt lat="45.2269716" lon="9.0544386"><ele>73.57142857142857</ele><time>2026-03-29T08:24:09.406Z</time></trkpt><trkpt lat="45.2269452" lon="9.0545276"><ele>74.28571428571428</ele><time>2026-03-29T08:24:11.411Z</time></trkpt><trkpt lat="45.2269146" lon="9.0546229"><ele>75.0</ele><time>2026-03-29T08:24:13.411Z</time></trkpt><trkpt lat="45.2268897" lon="9.0547132"><ele>74.99999999999999</ele><time>2026-03-29T08:24:15.425Z</time></trkpt><trkpt lat="45.2268505" lon="9.0548278"><ele>75.0</ele><time>2026-03-29T08:24:18.413Z</time></trkpt><trkpt lat="45.2268176" lon="9.054907"><ele>75.0</ele><time>2026-03-29T08:24:20.428Z</time></trkpt><trkpt lat="45.2267888" lon="9.0549898"><ele>75.0</ele><time>2026-03-29T08:24:22.411Z</time></trkpt><trkpt lat="45.2267594" lon="9.0550811"><ele>75.0</ele><time>2026-03-29T08:24:24.411Z</time></trkpt><trkpt lat="45.2267327" lon="9.0551738"><ele>74.99999999999999</ele><time>2026-03-29T08:24:26.44Z</time></trkpt><trkpt lat="45.2267082" lon="9.0552611"><ele>75.0</ele><time>2026-03-29T08:24:28.401Z</time></trkpt><trkpt lat="45.2266671" lon="9.0553814"><ele>75.14285714285714</ele><time>2026-03-29T08:24:31.423Z</time></trkpt><trkpt lat="45.2266284" lon="9.0554703"><ele>75.28571428571428</ele><time>2026-03-29T08:24:33.409Z</time></trkpt><trkpt lat="45.2265968" lon="9.0555581"><ele>75.42857142857142</ele><time>2026-03-29T08:24:35.41Z</time></trkpt><trkpt lat="45.2265654" lon="9.0556519"><ele>75.57142857142857</ele><time>2026-03-29T08:24:37.406Z</time></trkpt><trkpt lat="45.2265403" lon="9.0557384"><ele>75.71428571428572</ele><time>2026-03-29T08:24:39.406Z</time></trkpt><trkpt lat="45.2265078" lon="9.0558225"><ele>75.85714285714285</ele><time>2026-03-29T08:24:41.414Z</time></trkpt><trkpt lat="45.2264709" lon="9.0559107"><ele>76.0</ele><time>2026-03-29T08:24:43.412Z</time></trkpt><trkpt lat="45.2264367" lon="9.05599"><ele>75.66666666666666</ele><time>2026-03-29T08:24:45.406Z</time></trkpt><trkpt lat="45.2263997" lon="9.056074"><ele>75.33333333333333</ele><time>2026-03-29T08:24:47.403Z</time></trkpt><trkpt lat="45.2263645" lon="9.0561668"><ele>75.0</ele><time>2026-03-29T08:24:49.409Z</time></trkpt><trkpt lat="45.2263285" lon="9.0562497"><ele>74.66666666666667</ele><time>2026-03-29T08:24:51.412Z</time></trkpt><trkpt lat="45.2262929" lon="9.0563446"><ele>74.33333333333334</ele><time>2026-03-29T08:24:53.411Z</time></trkpt><trkpt lat="45.2262419" lon="9.0564558"><ele>74.0</ele><time>2026-03-29T08:24:56.407Z</time></trkpt><trkpt lat="45.2262085" lon="9.0565437"><ele>74.5</ele><time>2026-03-29T08:24:58.419Z</time></trkpt><trkpt lat="45.2261551" lon="9.0566279"><ele>75.0</ele><time>2026-03-29T08:25:00.415Z</time></trkpt><trkpt lat="45.2260974" lon="9.0566674"><ele>75.5</ele><time>2026-03-29T08:25:02.409Z</time></trkpt><trkpt lat="45.2260194" lon="9.0567154"><ele>76.0</ele><time>2026-03-29T08:25:05.42Z</time></trkpt><trkpt lat="45.2259362" lon="9.0567718"><ele>76.5</ele><time>2026-03-29T08:25:08.417Z</time></trkpt><trkpt lat="45.2258793" lon="9.0568194"><ele>77.0</ele><time>2026-03-29T08:25:10.411Z</time></trkpt><trkpt lat="45.2258166" lon="9.0569123"><ele>77.0</ele><time>2026-03-29T08:25:13.488Z</time></trkpt><trkpt lat="45.225766" lon="9.057016"><ele>77.0</ele><time>2026-03-29T08:25:16.419Z</time></trkpt><trkpt lat="45.2257102" lon="9.0571091"><ele>77.0</ele><time>2026-03-29T08:25:19.408Z</time></trkpt><trkpt lat="45.22567" lon="9.0571911"><ele>77.0</ele><time>2026-03-29T08:25:22.411Z</time></trkpt><trkpt lat="45.2256282" lon="9.0572903"><ele>77.0</ele><time>2026-03-29T08:25:25.41Z</time></trkpt><trkpt lat="45.2255807" lon="9.0574139"><ele>77.0</ele><time>2026-03-29T08:25:28.408Z</time></trkpt><trkpt lat="45.2255478" lon="9.0575059"><ele>76.66666666666667</ele><time>2026-03-29T08:25:30.404Z</time></trkpt><trkpt lat="45.2255109" lon="9.0575831"><ele>76.33333333333334</ele><time>2026-03-29T08:25:32.414Z</time></trkpt><trkpt lat="45.2254769" lon="9.0576752"><ele>76.0</ele><time>2026-03-29T08:25:34.416Z</time></trkpt><trkpt lat="45.2254381" lon="9.0577746"><ele>75.66666666666667</ele><time>2026-03-29T08:25:36.409Z</time></trkpt><trkpt lat="45.2253993" lon="9.0578607"><ele>75.33333333333333</ele><time>2026-03-29T08:25:38.405Z</time></trkpt><trkpt lat="45.2253579" lon="9.0579586"><ele>75.0</ele><time>2026-03-29T08:25:40.412Z</time></trkpt><trkpt lat="45.2253191" lon="9.0580622"><ele>74.99999999999999</ele><time>2026-03-29T08:25:42.423Z</time></trkpt><trkpt lat="45.2252861" lon="9.0581433"><ele>75.0</ele><time>2026-03-29T08:25:43.416Z</time></trkpt><trkpt lat="45.2252432" lon="9.0582174"><ele>75.0</ele><time>2026-03-29T08:25:44.418Z</time></trkpt><trkpt lat="45.225199" lon="9.058287"><ele>75.0</ele><time>2026-03-29T08:25:45.408Z</time></trkpt><trkpt lat="45.225152" lon="9.0583629"><ele>75.0</ele><time>2026-03-29T08:25:46.416Z</time></trkpt><trkpt lat="45.2251096" lon="9.0584295"><ele>74.99999999999999</ele><time>2026-03-29T08:25:47.421Z</time></trkpt><trkpt lat="45.2250639" lon="9.0584958"><ele>75.0</ele><time>2026-03-29T08:25:48.422Z</time></trkpt><trkpt lat="45.2250141" lon="9.0585577"><ele>75.16666666666667</ele><time>2026-03-29T08:25:49.417Z</time></trkpt><trkpt lat="45.2249588" lon="9.0586077"><ele>75.33333333333333</ele><time>2026-03-29T08:25:50.47Z</time></trkpt><trkpt lat="45.2248785" lon="9.0587032"><ele>75.5</ele><time>2026-03-29T08:25:52.42Z</time></trkpt><trkpt lat="45.2248087" lon="9.0587672"><ele>75.66666666666666</ele><time>2026-03-29T08:25:54.407Z</time></trkpt><trkpt lat="45.224744" lon="9.0588605"><ele>75.83333333333333</ele><time>2026-03-29T08:25:57.412Z</time></trkpt><trkpt lat="45.2247239" lon="9.0589507"><ele>76.0</ele><time>2026-03-29T08:25:59.404Z</time></trkpt><trkpt lat="45.2247168" lon="9.0590431"><ele>76.14285714285714</ele><time>2026-03-29T08:26:01.406Z</time></trkpt><trkpt lat="45.2247143" lon="9.0591469"><ele>76.28571428571429</ele><time>2026-03-29T08:26:03.41Z</time></trkpt><trkpt lat="45.2247115" lon="9.0592473"><ele>76.42857142857143</ele><time>2026-03-29T08:26:05.41Z</time></trkpt><trkpt lat="45.2247233" lon="9.0593493"><ele>76.57142857142857</ele><time>2026-03-29T08:26:07.415Z</time></trkpt><trkpt lat="45.2247461" lon="9.0594515"><ele>76.71428571428572</ele><time>2026-03-29T08:26:09.403Z</time></trkpt><trkpt lat="45.2247599" lon="9.0595501"><ele>76.85714285714286</ele><time>2026-03-29T08:26:11.403Z</time></trkpt><trkpt lat="45.2247759" lon="9.0596562"><ele>77.0</ele><time>2026-03-29T08:26:13.419Z</time></trkpt><trkpt lat="45.2247871" lon="9.0597625"><ele>77.0</ele><time>2026-03-29T08:26:15.411Z</time></trkpt><trkpt lat="45.2247951" lon="9.059869"><ele>77.0</ele><time>2026-03-29T08:26:17.413Z</time></trkpt><trkpt lat="45.2247974" lon="9.0599794"><ele>77.0</ele><time>2026-03-29T08:26:19.416Z</time></trkpt><trkpt lat="45.2247949" lon="9.060082"><ele>77.0</ele><time>2026-03-29T08:26:21.412Z</time></trkpt><trkpt lat="45.2247904" lon="9.0601822"><ele>77.0</ele><time>2026-03-29T08:26:23.403Z</time></trkpt><trkpt lat="45.2247814" lon="9.0602789"><ele>77.0</ele><time>2026-03-29T08:26:25.41Z</time></trkpt><trkpt lat="45.2247699" lon="9.0603782"><ele>77.0</ele><time>2026-03-29T08:26:27.407Z</time></trkpt><trkpt lat="45.2247543" lon="9.0604744"><ele>77.0</ele><time>2026-03-29T08:26:29.412Z</time></trkpt><trkpt lat="45.2247012" lon="9.0605761"><ele>77.0</ele><time>2026-03-29T08:26:32.414Z</time></trkpt><trkpt lat="45.224657" lon="9.0606639"><ele>77.0</ele><time>2026-03-29T08:26:35.413Z</time></trkpt><trkpt lat="45.2246146" lon="9.0607668"><ele>77.0</ele><time>2026-03-29T08:26:38.414Z</time></trkpt><trkpt lat="45.2245747" lon="9.0608398"><ele>77.0</ele><time>2026-03-29T08:26:40.411Z</time></trkpt><trkpt lat="45.224522" lon="9.0608984"><ele>77.0</ele><time>2026-03-29T08:26:42.415Z</time></trkpt><trkpt lat="45.2244531" lon="9.0609153"><ele>77.0</ele><time>2026-03-29T08:26:44.413Z</time></trkpt><trkpt lat="45.2243933" lon="9.0608846"><ele>77.0</ele><time>2026-03-29T08:26:46.42Z</time></trkpt><trkpt lat="45.2243371" lon="9.0608291"><ele>77.0</ele><time>2026-03-29T08:26:48.413Z</time></trkpt><trkpt lat="45.22428" lon="9.0607488"><ele>77.0</ele><time>2026-03-29T08:26:50.402Z</time></trkpt><trkpt lat="45.2242328" lon="9.0606892"><ele>77.0</ele><time>2026-03-29T08:26:52.413Z</time></trkpt><trkpt lat="45.2241647" lon="9.0606083"><ele>77.0</ele><time>2026-03-29T08:26:55.409Z</time></trkpt><trkpt lat="45.2241126" lon="9.0605567"><ele>77.0</ele><time>2026-03-29T08:26:57.412Z</time></trkpt><trkpt lat="45.2240558" lon="9.0605065"><ele>77.16666666666667</ele><time>2026-03-29T08:26:59.407Z</time></trkpt><trkpt lat="45.2239639" lon="9.0604671"><ele>77.33333333333334</ele><time>2026-03-29T08:27:02.405Z</time></trkpt><trkpt lat="45.2238685" lon="9.060432"><ele>77.5</ele><time>2026-03-29T08:27:05.413Z</time></trkpt><trkpt lat="45.2238018" lon="9.0603914"><ele>77.66666666666667</ele><time>2026-03-29T08:27:07.406Z</time></trkpt><trkpt lat="45.2237421" lon="9.060336"><ele>77.83333333333333</ele><time>2026-03-29T08:27:09.414Z</time></trkpt><trkpt lat="45.223691" lon="9.0602751"><ele>78.0</ele><time>2026-03-29T08:27:11.41Z</time></trkpt><trkpt lat="45.2236299" lon="9.0602234"><ele>78.0</ele><time>2026-03-29T08:27:13.404Z</time></trkpt><trkpt lat="45.2235627" lon="9.0601458"><ele>78.0</ele><time>2026-03-29T08:27:15.41Z</time></trkpt><trkpt lat="45.2234994" lon="9.0600797"><ele>78.0</ele><time>2026-03-29T08:27:17.404Z</time></trkpt><trkpt lat="45.2234378" lon="9.0599942"><ele>78.0</ele><time>2026-03-29T08:27:19.412Z</time></trkpt><trkpt lat="45.2233918" lon="9.0599329"><ele>78.0</ele><time>2026-03-29T08:27:21.41Z</time></trkpt><trkpt lat="45.2233404" lon="9.0598675"><ele>78.0</ele><time>2026-03-29T08:27:23.41Z</time></trkpt><trkpt lat="45.2232892" lon="9.0597901"><ele>77.83333333333333</ele><time>2026-03-29T08:27:25.406Z</time></trkpt><trkpt lat="45.2232216" lon="9.0597097"><ele>77.66666666666667</ele><time>2026-03-29T08:27:28.414Z</time></trkpt><trkpt lat="45.223175" lon="9.0596381"><ele>77.5</ele><time>2026-03-29T08:27:30.408Z</time></trkpt><trkpt lat="45.22312" lon="9.0595756"><ele>77.33333333333334</ele><time>2026-03-29T08:27:32.408Z</time></trkpt><trkpt lat="45.2230701" lon="9.0595173"><ele>77.16666666666667</ele><time>2026-03-29T08:27:34.419Z</time></trkpt><trkpt lat="45.222998" lon="9.0594327"><ele>77.0</ele><time>2026-03-29T08:27:37.414Z</time></trkpt><trkpt lat="45.2229219" lon="9.0593479"><ele>76.85714285714286</ele><time>2026-03-29T08:27:40.414Z</time></trkpt><trkpt lat="45.2228737" lon="9.0592835"><ele>76.71428571428572</ele><time>2026-03-29T08:27:42.409Z</time></trkpt><trkpt lat="45.2228202" lon="9.0592229"><ele>76.57142857142857</ele><time>2026-03-29T08:27:44.41Z</time></trkpt><trkpt lat="45.2227655" lon="9.0591583"><ele>76.42857142857143</ele><time>2026-03-29T08:27:46.411Z</time></trkpt><trkpt lat="45.2227192" lon="9.059092"><ele>76.28571428571429</ele><time>2026-03-29T08:27:48.411Z</time></trkpt><trkpt lat="45.2226609" lon="9.0590304"><ele>76.14285714285714</ele><time>2026-03-29T08:27:50.414Z</time></trkpt><trkpt lat="45.2226069" lon="9.0589612"><ele>76.0</ele><time>2026-03-29T08:27:52.416Z</time></trkpt><trkpt lat="45.2225536" lon="9.0589069"><ele>76.0</ele><time>2026-03-29T08:27:54.422Z</time></trkpt><trkpt lat="45.2224676" lon="9.0589339"><ele>76.0</ele><time>2026-03-29T08:27:57.408Z</time></trkpt><trkpt lat="45.2224096" lon="9.0590013"><ele>76.0</ele><time>2026-03-29T08:27:59.422Z</time></trkpt><trkpt lat="45.2223661" lon="9.0590825"><ele>76.0</ele><time>2026-03-29T08:28:01.418Z</time></trkpt><trkpt lat="45.2223213" lon="9.0591469"><ele>76.0</ele><time>2026-03-29T08:28:03.409Z</time></trkpt><trkpt lat="45.2222606" lon="9.0592485"><ele>76.0</ele><time>2026-03-29T08:28:06.414Z</time></trkpt><trkpt lat="45.2222103" lon="9.0593122"><ele>75.42857142857143</ele><time>2026-03-29T08:28:08.415Z</time></trkpt><trkpt lat="45.2221575" lon="9.0593842"><ele>74.85714285714286</ele><time>2026-03-29T08:28:10.416Z</time></trkpt><trkpt lat="45.2221056" lon="9.0594465"><ele>74.28571428571429</ele><time>2026-03-29T08:28:12.412Z</time></trkpt><trkpt lat="45.2220486" lon="9.0595059"><ele>73.71428571428572</ele><time>2026-03-29T08:28:14.424Z</time></trkpt><trkpt lat="45.2219911" lon="9.0595676"><ele>73.14285714285714</ele><time>2026-03-29T08:28:16.413Z</time></trkpt><trkpt lat="45.2219338" lon="9.0596255"><ele>72.57142857142858</ele><time>2026-03-29T08:28:18.407Z</time></trkpt><trkpt lat="45.2218726" lon="9.0596801"><ele>72.0</ele><time>2026-03-29T08:28:20.421Z</time></trkpt><trkpt lat="45.2218152" lon="9.0597375"><ele>72.0</ele><time>2026-03-29T08:28:22.415Z</time></trkpt><trkpt lat="45.2217573" lon="9.0597958"><ele>72.0</ele><time>2026-03-29T08:28:24.487Z</time></trkpt><trkpt lat="45.221689" lon="9.059856"><ele>72.0</ele><time>2026-03-29T08:28:26.425Z</time></trkpt><trkpt lat="45.2216295" lon="9.0599319"><ele>72.0</ele><time>2026-03-29T08:28:28.406Z</time></trkpt><trkpt lat="45.22157" lon="9.0599917"><ele>72.0</ele><time>2026-03-29T08:28:30.414Z</time></trkpt><trkpt lat="45.221519" lon="9.0600529"><ele>72.0</ele><time>2026-03-29T08:28:32.407Z</time></trkpt><trkpt lat="45.221455" lon="9.0601187"><ele>72.66666666666667</ele><time>2026-03-29T08:28:34.412Z</time></trkpt><trkpt lat="45.2213985" lon="9.0601856"><ele>73.33333333333333</ele><time>2026-03-29T08:28:36.415Z</time></trkpt><trkpt lat="45.2213425" lon="9.060252"><ele>74.0</ele><time>2026-03-29T08:28:38.413Z</time></trkpt><trkpt lat="45.2212847" lon="9.0603111"><ele>74.66666666666666</ele><time>2026-03-29T08:28:40.412Z</time></trkpt><trkpt lat="45.2212092" lon="9.0603863"><ele>75.33333333333333</ele><time>2026-03-29T08:28:43.416Z</time></trkpt><trkpt lat="45.2211439" lon="9.060466"><ele>76.0</ele><time>2026-03-29T08:28:46.406Z</time></trkpt><trkpt lat="45.2210942" lon="9.0605278"><ele>76.0</ele><time>2026-03-29T08:28:48.414Z</time></trkpt><trkpt lat="45.2210417" lon="9.0605905"><ele>76.0</ele><time>2026-03-29T08:28:50.403Z</time></trkpt><trkpt lat="45.2209834" lon="9.0606547"><ele>76.0</ele><time>2026-03-29T08:28:52.407Z</time></trkpt><trkpt lat="45.2209261" lon="9.0607193"><ele>76.0</ele><time>2026-03-29T08:28:54.407Z</time></trkpt><trkpt lat="45.2208723" lon="9.0607723"><ele>76.0</ele><time>2026-03-29T08:28:56.409Z</time></trkpt><trkpt lat="45.220802" lon="9.0608436"><ele>76.0</ele><time>2026-03-29T08:28:59.413Z</time></trkpt><trkpt lat="45.2207492" lon="9.0609043"><ele>76.0</ele><time>2026-03-29T08:29:01.486Z</time></trkpt><trkpt lat="45.2206975" lon="9.0609587"><ele>76.14285714285714</ele><time>2026-03-29T08:29:03.412Z</time></trkpt><trkpt lat="45.2206432" lon="9.0610181"><ele>76.28571428571429</ele><time>2026-03-29T08:29:05.409Z</time></trkpt><trkpt lat="45.2205882" lon="9.0610768"><ele>76.42857142857143</ele><time>2026-03-29T08:29:07.41Z</time></trkpt><trkpt lat="45.2205295" lon="9.0611356"><ele>76.57142857142857</ele><time>2026-03-29T08:29:09.408Z</time></trkpt><trkpt lat="45.2204803" lon="9.0612035"><ele>76.71428571428572</ele><time>2026-03-29T08:29:11.408Z</time></trkpt><trkpt lat="45.2204341" lon="9.0612702"><ele>76.85714285714286</ele><time>2026-03-29T08:29:13.416Z</time></trkpt><trkpt lat="45.2203692" lon="9.0612648"><ele>77.0</ele><time>2026-03-29T08:29:16.41Z</time></trkpt><trkpt lat="45.2203174" lon="9.0611872"><ele>77.0</ele><time>2026-03-29T08:29:19.407Z</time></trkpt><trkpt lat="45.2202692" lon="9.0610829"><ele>77.0</ele><time>2026-03-29T08:29:22.418Z</time></trkpt><trkpt lat="45.2202163" lon="9.0609797"><ele>77.0</ele><time>2026-03-29T08:29:25.411Z</time></trkpt><trkpt lat="45.2201745" lon="9.0609049"><ele>77.0</ele><time>2026-03-29T08:29:27.406Z</time></trkpt><trkpt lat="45.2201428" lon="9.0608161"><ele>77.0</ele><time>2026-03-29T08:29:29.398Z</time></trkpt><trkpt lat="45.2201119" lon="9.0607264"><ele>77.0</ele><time>2026-03-29T08:29:31.409Z</time></trkpt><trkpt lat="45.2200862" lon="9.0606336"><ele>77.0</ele><time>2026-03-29T08:29:33.402Z</time></trkpt><trkpt lat="45.2200662" lon="9.0605363"><ele>77.0</ele><time>2026-03-29T08:29:35.406Z</time></trkpt><trkpt lat="45.2200417" lon="9.0604327"><ele>77.0</ele><time>2026-03-29T08:29:37.417Z</time></trkpt><trkpt lat="45.2200151" lon="9.0603306"><ele>77.0</ele><time>2026-03-29T08:29:39.417Z</time></trkpt><trkpt lat="45.2199979" lon="9.0602285"><ele>77.0</ele><time>2026-03-29T08:29:41.41Z</time></trkpt><trkpt lat="45.2199776" lon="9.0601212"><ele>77.0</ele><time>2026-03-29T08:29:43.407Z</time></trkpt><trkpt lat="45.2199652" lon="9.0600276"><ele>77.0</ele><time>2026-03-29T08:29:45.414Z</time></trkpt><trkpt lat="45.2199467" lon="9.0599253"><ele>76.42857142857143</ele><time>2026-03-29T08:29:47.413Z</time></trkpt><trkpt lat="45.2199292" lon="9.0598245"><ele>75.85714285714286</ele><time>2026-03-29T08:29:49.413Z</time></trkpt><trkpt lat="45.2199038" lon="9.0597319"><ele>75.28571428571428</ele><time>2026-03-29T08:29:51.412Z</time></trkpt><trkpt lat="45.2198833" lon="9.0596382"><ele>74.71428571428572</ele><time>2026-03-29T08:29:53.488Z</time></trkpt><trkpt lat="45.2198559" lon="9.0595182"><ele>74.14285714285714</ele><time>2026-03-29T08:29:56.41Z</time></trkpt><trkpt lat="45.2198016" lon="9.0594532"><ele>73.57142857142857</ele><time>2026-03-29T08:29:59.406Z</time></trkpt><trkpt lat="45.2197345" lon="9.059426"><ele>73.0</ele><time>2026-03-29T08:30:01.409Z</time></trkpt><trkpt lat="45.2196641" lon="9.0594323"><ele>72.8</ele><time>2026-03-29T08:30:04.408Z</time></trkpt><trkpt lat="45.2195831" lon="9.0594279"><ele>72.6</ele><time>2026-03-29T08:30:07.406Z</time></trkpt><trkpt lat="45.2194966" lon="9.0594419"><ele>72.4</ele><time>2026-03-29T08:30:11.403Z</time></trkpt><trkpt lat="45.2194319" lon="9.0594422"><ele>72.2</ele><time>2026-03-29T08:30:13.413Z</time></trkpt><trkpt lat="45.2193571" lon="9.0593677"><ele>72.0</ele><time>2026-03-29T08:30:16.487Z</time></trkpt><trkpt lat="45.2192295" lon="9.0593929"><ele>72.00000000000001</ele><time>2026-03-29T08:30:20.407Z</time></trkpt><trkpt lat="45.2191608" lon="9.0594051"><ele>72.0</ele><time>2026-03-29T08:30:22.415Z</time></trkpt><trkpt lat="45.2190926" lon="9.0594256"><ele>72.0</ele><time>2026-03-29T08:30:24.406Z</time></trkpt><trkpt lat="45.2190237" lon="9.0594495"><ele>72.0</ele><time>2026-03-29T08:30:26.404Z</time></trkpt><trkpt lat="45.2189504" lon="9.0594091"><ele>72.0</ele><time>2026-03-29T08:30:28.405Z</time></trkpt><trkpt lat="45.2189034" lon="9.0593469"><ele>72.00000000000001</ele><time>2026-03-29T08:30:30.411Z</time></trkpt><trkpt lat="45.2188302" lon="9.0592993"><ele>72.0</ele><time>2026-03-29T08:30:32.417Z</time></trkpt><trkpt lat="45.2187581" lon="9.0592195"><ele>72.28571428571429</ele><time>2026-03-29T08:30:35.405Z</time></trkpt><trkpt lat="45.2186952" lon="9.0591945"><ele>72.57142857142857</ele><time>2026-03-29T08:30:37.409Z</time></trkpt><trkpt lat="45.2186183" lon="9.0591655"><ele>72.85714285714286</ele><time>2026-03-29T08:30:39.418Z</time></trkpt><trkpt lat="45.2185413" lon="9.0591236"><ele>73.14285714285714</ele><time>2026-03-29T08:30:41.406Z</time></trkpt><trkpt lat="45.2184782" lon="9.0591055"><ele>73.42857142857143</ele><time>2026-03-29T08:30:43.406Z</time></trkpt><trkpt lat="45.2184078" lon="9.0591018"><ele>73.71428571428572</ele><time>2026-03-29T08:30:45.408Z</time></trkpt><trkpt lat="45.2183441" lon="9.0591086"><ele>74.0</ele><time>2026-03-29T08:30:47.409Z</time></trkpt><trkpt lat="45.2182582" lon="9.0591098"><ele>74.0</ele><time>2026-03-29T08:30:50.416Z</time></trkpt><trkpt lat="45.218171" lon="9.0591181"><ele>74.0</ele><time>2026-03-29T08:30:53.407Z</time></trkpt><trkpt lat="45.2181044" lon="9.0591015"><ele>74.0</ele><time>2026-03-29T08:30:55.408Z</time></trkpt><trkpt lat="45.2180172" lon="9.0591193"><ele>74.0</ele><time>2026-03-29T08:30:58.413Z</time></trkpt><trkpt lat="45.2179579" lon="9.0591656"><ele>74.0</ele><time>2026-03-29T08:31:00.421Z</time></trkpt><trkpt lat="45.2178825" lon="9.0592072"><ele>74.0</ele><time>2026-03-29T08:31:02.407Z</time></trkpt><trkpt lat="45.2178098" lon="9.0592433"><ele>73.83333333333334</ele><time>2026-03-29T08:31:04.412Z</time></trkpt><trkpt lat="45.2177393" lon="9.0592998"><ele>73.66666666666667</ele><time>2026-03-29T08:31:06.484Z</time></trkpt><trkpt lat="45.2176672" lon="9.0593635"><ele>73.5</ele><time>2026-03-29T08:31:08.435Z</time></trkpt><trkpt lat="45.2176169" lon="9.0594374"><ele>73.33333333333333</ele><time>2026-03-29T08:31:10.407Z</time></trkpt><trkpt lat="45.2176113" lon="9.0595567"><ele>73.16666666666666</ele><time>2026-03-29T08:31:13.401Z</time></trkpt><trkpt lat="45.2176178" lon="9.0596644"><ele>73.0</ele><time>2026-03-29T08:31:15.409Z</time></trkpt><trkpt lat="45.2176274" lon="9.0597915"><ele>73.0</ele><time>2026-03-29T08:31:17.411Z</time></trkpt><trkpt lat="45.2176452" lon="9.0598933"><ele>73.0</ele><time>2026-03-29T08:31:19.483Z</time></trkpt><trkpt lat="45.2176579" lon="9.0599887"><ele>73.0</ele><time>2026-03-29T08:31:21.407Z</time></trkpt><trkpt lat="45.2177073" lon="9.0601027"><ele>73.0</ele><time>2026-03-29T08:31:24.413Z</time></trkpt><trkpt lat="45.2177654" lon="9.0601594"><ele>73.0</ele><time>2026-03-29T08:31:26.402Z</time></trkpt><trkpt lat="45.217832" lon="9.0601975"><ele>73.0</ele><time>2026-03-29T08:31:28.418Z</time></trkpt><trkpt lat="45.2178948" lon="9.0602348"><ele>73.0</ele><time>2026-03-29T08:31:30.404Z</time></trkpt><trkpt lat="45.2179769" lon="9.0602886"><ele>73.5</ele><time>2026-03-29T08:31:33.406Z</time></trkpt><trkpt lat="45.2180349" lon="9.0603417"><ele>74.0</ele><time>2026-03-29T08:31:35.408Z</time></trkpt><trkpt lat="45.2180866" lon="9.0604074"><ele>74.5</ele><time>2026-03-29T08:31:37.414Z</time></trkpt><trkpt lat="45.2181498" lon="9.0605061"><ele>75.0</ele><time>2026-03-29T08:31:40.409Z</time></trkpt><trkpt lat="45.2181717" lon="9.0605906"><ele>75.5</ele><time>2026-03-29T08:31:42.408Z</time></trkpt><trkpt lat="45.2181437" lon="9.0606864"><ele>76.0</ele><time>2026-03-29T08:31:44.407Z</time></trkpt><trkpt lat="45.2180633" lon="9.0607449"><ele>76.0</ele><time>2026-03-29T08:31:47.411Z</time></trkpt><trkpt lat="45.2180005" lon="9.0607748"><ele>76.0</ele><time>2026-03-29T08:31:49.408Z</time></trkpt><trkpt lat="45.2179195" lon="9.0608063"><ele>76.0</ele><time>2026-03-29T08:31:51.415Z</time></trkpt><trkpt lat="45.2178541" lon="9.0608453"><ele>76.0</ele><time>2026-03-29T08:31:53.401Z</time></trkpt><trkpt lat="45.2177908" lon="9.060881"><ele>76.0</ele><time>2026-03-29T08:31:55.412Z</time></trkpt><trkpt lat="45.2177121" lon="9.0609503"><ele>76.0</ele><time>2026-03-29T08:31:58.403Z</time></trkpt><trkpt lat="45.2176501" lon="9.0610127"><ele>76.0</ele><time>2026-03-29T08:32:00.411Z</time></trkpt><trkpt lat="45.2175913" lon="9.0610813"><ele>76.0</ele><time>2026-03-29T08:32:02.404Z</time></trkpt><trkpt lat="45.2175335" lon="9.0611298"><ele>76.0</ele><time>2026-03-29T08:32:04.404Z</time></trkpt><trkpt lat="45.2174896" lon="9.0612533"><ele>76.0</ele><time>2026-03-29T08:32:07.411Z</time></trkpt><trkpt lat="45.2174536" lon="9.0613811"><ele>76.0</ele><time>2026-03-29T08:32:09.409Z</time></trkpt><trkpt lat="45.2174154" lon="9.0614753"><ele>76.0</ele><time>2026-03-29T08:32:11.409Z</time></trkpt><trkpt lat="45.2173687" lon="9.0615539"><ele>75.57142857142857</ele><time>2026-03-29T08:32:13.421Z</time></trkpt><trkpt lat="45.2173021" lon="9.0616049"><ele>75.14285714285715</ele><time>2026-03-29T08:32:15.411Z</time></trkpt><trkpt lat="45.2172358" lon="9.0616297"><ele>74.71428571428572</ele><time>2026-03-29T08:32:17.406Z</time></trkpt><trkpt lat="45.2171718" lon="9.061698"><ele>74.28571428571428</ele><time>2026-03-29T08:32:20.419Z</time></trkpt><trkpt lat="45.217194" lon="9.0617822"><ele>73.85714285714286</ele><time>2026-03-29T08:32:22.432Z</time></trkpt><trkpt lat="45.2172142" lon="9.0618753"><ele>73.42857142857143</ele><time>2026-03-29T08:32:24.411Z</time></trkpt><trkpt lat="45.2172405" lon="9.0619726"><ele>73.0</ele><time>2026-03-29T08:32:26.417Z</time></trkpt><trkpt lat="45.2172643" lon="9.062076"><ele>73.0</ele><time>2026-03-29T08:32:28.408Z</time></trkpt><trkpt lat="45.2172919" lon="9.0621799"><ele>73.0</ele><time>2026-03-29T08:32:30.416Z</time></trkpt><trkpt lat="45.2173227" lon="9.0622805"><ele>73.0</ele><time>2026-03-29T08:32:32.421Z</time></trkpt><trkpt lat="45.2173488" lon="9.0623669"><ele>73.0</ele><time>2026-03-29T08:32:34.415Z</time></trkpt><trkpt lat="45.2173709" lon="9.0624537"><ele>73.0</ele><time>2026-03-29T08:32:36.408Z</time></trkpt><trkpt lat="45.2173776" lon="9.0625503"><ele>73.0</ele><time>2026-03-29T08:32:38.403Z</time></trkpt><trkpt lat="45.2173621" lon="9.0626435"><ele>73.0</ele><time>2026-03-29T08:32:40.404Z</time></trkpt><trkpt lat="45.2173451" lon="9.0627389"><ele>73.33333333333333</ele><time>2026-03-29T08:32:42.412Z</time></trkpt><trkpt lat="45.2173487" lon="9.0628383"><ele>73.66666666666666</ele><time>2026-03-29T08:32:44.409Z</time></trkpt><trkpt lat="45.217365" lon="9.0629304"><ele>74.0</ele><time>2026-03-29T08:32:46.407Z</time></trkpt><trkpt lat="45.2173865" lon="9.0630229"><ele>74.33333333333333</ele><time>2026-03-29T08:32:48.413Z</time></trkpt><trkpt lat="45.2174004" lon="9.0631251"><ele>74.66666666666667</ele><time>2026-03-29T08:32:50.41Z</time></trkpt><trkpt lat="45.2174208" lon="9.0632526"><ele>75.0</ele><time>2026-03-29T08:32:52.413Z</time></trkpt><trkpt lat="45.2174453" lon="9.0633586"><ele>75.0</ele><time>2026-03-29T08:32:54.423Z</time></trkpt><trkpt lat="45.2174717" lon="9.0634706"><ele>75.0</ele><time>2026-03-29T08:32:56.408Z</time></trkpt><trkpt lat="45.2174948" lon="9.0635844"><ele>75.0</ele><time>2026-03-29T08:32:58.405Z</time></trkpt><trkpt lat="45.2175184" lon="9.0636863"><ele>75.0</ele><time>2026-03-29T08:33:00.41Z</time></trkpt><trkpt lat="45.2175422" lon="9.0638016"><ele>75.0</ele><time>2026-03-29T08:33:02.418Z</time></trkpt><trkpt lat="45.2175673" lon="9.0639137"><ele>75.0</ele><time>2026-03-29T08:33:04.413Z</time></trkpt><trkpt lat="45.2175939" lon="9.0640175"><ele>75.16666666666667</ele><time>2026-03-29T08:33:06.417Z</time></trkpt><trkpt lat="45.2176125" lon="9.0641254"><ele>75.33333333333333</ele><time>2026-03-29T08:33:08.41Z</time></trkpt><trkpt lat="45.2176338" lon="9.0642367"><ele>75.5</ele><time>2026-03-29T08:33:10.411Z</time></trkpt><trkpt lat="45.2176505" lon="9.0643493"><ele>75.66666666666666</ele><time>2026-03-29T08:33:12.478Z</time></trkpt><trkpt lat="45.2176772" lon="9.0644653"><ele>75.83333333333333</ele><time>2026-03-29T08:33:14.426Z</time></trkpt><trkpt lat="45.2177015" lon="9.0645716"><ele>76.0</ele><time>2026-03-29T08:33:16.401Z</time></trkpt><trkpt lat="45.217722" lon="9.0646812"><ele>76.0</ele><time>2026-03-29T08:33:18.406Z</time></trkpt><trkpt lat="45.2177454" lon="9.0647921"><ele>76.0</ele><time>2026-03-29T08:33:20.408Z</time></trkpt><trkpt lat="45.2177648" lon="9.0648933"><ele>76.0</ele><time>2026-03-29T08:33:22.41Z</time></trkpt><trkpt lat="45.2177926" lon="9.0650045"><ele>76.0</ele><time>2026-03-29T08:33:24.415Z</time></trkpt><trkpt lat="45.2178172" lon="9.0651181"><ele>76.0</ele><time>2026-03-29T08:33:26.42Z</time></trkpt><trkpt lat="45.2178485" lon="9.065227"><ele>76.0</ele><time>2026-03-29T08:33:28.413Z</time></trkpt><trkpt lat="45.2178734" lon="9.0653225"><ele>76.0</ele><time>2026-03-29T08:33:30.405Z</time></trkpt><trkpt lat="45.2178941" lon="9.0654269"><ele>76.0</ele><time>2026-03-29T08:33:32.407Z</time></trkpt><trkpt lat="45.2179164" lon="9.0655362"><ele>76.0</ele><time>2026-03-29T08:33:34.403Z</time></trkpt><trkpt lat="45.217938" lon="9.0656299"><ele>76.0</ele><time>2026-03-29T08:33:36.415Z</time></trkpt><trkpt lat="45.2179654" lon="9.0657539"><ele>76.0</ele><time>2026-03-29T08:33:39.409Z</time></trkpt><trkpt lat="45.2179884" lon="9.065859"><ele>76.0</ele><time>2026-03-29T08:33:41.407Z</time></trkpt><trkpt lat="45.2180058" lon="9.0659536"><ele>76.0</ele><time>2026-03-29T08:33:43.413Z</time></trkpt><trkpt lat="45.2180263" lon="9.0660448"><ele>76.0</ele><time>2026-03-29T08:33:45.41Z</time></trkpt><trkpt lat="45.2180296" lon="9.0661439"><ele>76.0</ele><time>2026-03-29T08:33:47.406Z</time></trkpt><trkpt lat="45.2179856" lon="9.0662275"><ele>76.0</ele><time>2026-03-29T08:33:49.413Z</time></trkpt><trkpt lat="45.2179167" lon="9.0662854"><ele>76.0</ele><time>2026-03-29T08:33:51.494Z</time></trkpt><trkpt lat="45.2178545" lon="9.0663287"><ele>76.0</ele><time>2026-03-29T08:33:53.487Z</time></trkpt><trkpt lat="45.2177987" lon="9.0663825"><ele>76.0</ele><time>2026-03-29T08:33:55.411Z</time></trkpt><trkpt lat="45.2177337" lon="9.06644"><ele>76.0</ele><time>2026-03-29T08:33:57.412Z</time></trkpt><trkpt lat="45.2176686" lon="9.0664976"><ele>76.0</ele><time>2026-03-29T08:33:59.409Z</time></trkpt><trkpt lat="45.2176103" lon="9.0665552"><ele>76.0</ele><time>2026-03-29T08:34:01.412Z</time></trkpt><trkpt lat="45.2175451" lon="9.066607"><ele>76.0</ele><time>2026-03-29T08:34:03.412Z</time></trkpt><trkpt lat="45.2174801" lon="9.0666591"><ele>76.0</ele><time>2026-03-29T08:34:05.413Z</time></trkpt><trkpt lat="45.2174084" lon="9.0667202"><ele>76.0</ele><time>2026-03-29T08:34:07.407Z</time></trkpt><trkpt lat="45.2173435" lon="9.0667699"><ele>76.0</ele><time>2026-03-29T08:34:09.411Z</time></trkpt><trkpt lat="45.2172856" lon="9.0668329"><ele>76.0</ele><time>2026-03-29T08:34:11.4Z</time></trkpt><trkpt lat="45.2172518" lon="9.0669185"><ele>76.0</ele><time>2026-03-29T08:34:13.406Z</time></trkpt><trkpt lat="45.2172606" lon="9.067039"><ele>76.0</ele><time>2026-03-29T08:34:15.406Z</time></trkpt><trkpt lat="45.2172814" lon="9.0671348"><ele>76.0</ele><time>2026-03-29T08:34:17.417Z</time></trkpt><trkpt lat="45.2172977" lon="9.0672222"><ele>76.0</ele><time>2026-03-29T08:34:19.41Z</time></trkpt><trkpt lat="45.2173191" lon="9.0673167"><ele>76.0</ele><time>2026-03-29T08:34:21.403Z</time></trkpt><trkpt lat="45.2173356" lon="9.067423"><ele>75.71428571428571</ele><time>2026-03-29T08:34:23.415Z</time></trkpt><trkpt lat="45.2173502" lon="9.067514"><ele>75.42857142857143</ele><time>2026-03-29T08:34:25.414Z</time></trkpt><trkpt lat="45.2173676" lon="9.0676277"><ele>75.14285714285714</ele><time>2026-03-29T08:34:27.411Z</time></trkpt><trkpt lat="45.2173819" lon="9.0677293"><ele>74.85714285714286</ele><time>2026-03-29T08:34:29.407Z</time></trkpt><trkpt lat="45.2174061" lon="9.06782"><ele>74.57142857142857</ele><time>2026-03-29T08:34:31.41Z</time></trkpt><trkpt lat="45.2174191" lon="9.0679214"><ele>74.28571428571429</ele><time>2026-03-29T08:34:33.409Z</time></trkpt><trkpt lat="45.2174334" lon="9.0680231"><ele>74.0</ele><time>2026-03-29T08:34:35.407Z</time></trkpt><trkpt lat="45.2174406" lon="9.0681263"><ele>74.0</ele><time>2026-03-29T08:34:37.404Z</time></trkpt><trkpt lat="45.2174545" lon="9.0682396"><ele>74.0</ele><time>2026-03-29T08:34:39.405Z</time></trkpt><trkpt lat="45.21747" lon="9.0683449"><ele>74.0</ele><time>2026-03-29T08:34:41.41Z</time></trkpt><trkpt lat="45.2174974" lon="9.0684608"><ele>74.0</ele><time>2026-03-29T08:34:43.412Z</time></trkpt><trkpt lat="45.2175344" lon="9.0685731"><ele>74.0</ele><time>2026-03-29T08:34:45.414Z</time></trkpt><trkpt lat="45.2175769" lon="9.0686789"><ele>74.0</ele><time>2026-03-29T08:34:47.413Z</time></trkpt><trkpt lat="45.2176244" lon="9.0687831"><ele>74.0</ele><time>2026-03-29T08:34:49.413Z</time></trkpt><trkpt lat="45.2176657" lon="9.0688847"><ele>74.0</ele><time>2026-03-29T08:34:51.412Z</time></trkpt><trkpt lat="45.2176982" lon="9.0689783"><ele>74.0</ele><time>2026-03-29T08:34:53.407Z</time></trkpt><trkpt lat="45.2177385" lon="9.0690613"><ele>74.0</ele><time>2026-03-29T08:34:55.411Z</time></trkpt><trkpt lat="45.2177751" lon="9.0691559"><ele>74.0</ele><time>2026-03-29T08:34:57.408Z</time></trkpt><trkpt lat="45.2177989" lon="9.0692393"><ele>74.0</ele><time>2026-03-29T08:34:59.408Z</time></trkpt><trkpt lat="45.2178292" lon="9.0693362"><ele>74.0</ele><time>2026-03-29T08:35:01.406Z</time></trkpt><trkpt lat="45.2178529" lon="9.0694415"><ele>74.0</ele><time>2026-03-29T08:35:03.412Z</time></trkpt><trkpt lat="45.2178731" lon="9.0695365"><ele>74.0</ele><time>2026-03-29T08:35:05.413Z</time></trkpt><trkpt lat="45.2178989" lon="9.0696432"><ele>74.0</ele><time>2026-03-29T08:35:07.408Z</time></trkpt><trkpt lat="45.2179215" lon="9.0697454"><ele>74.0</ele><time>2026-03-29T08:35:09.405Z</time></trkpt><trkpt lat="45.2179453" lon="9.0698646"><ele>74.0</ele><time>2026-03-29T08:35:11.414Z</time></trkpt><trkpt lat="45.2179662" lon="9.0699693"><ele>74.0</ele><time>2026-03-29T08:35:13.411Z</time></trkpt><trkpt lat="45.217973" lon="9.0700781"><ele>74.16666666666667</ele><time>2026-03-29T08:35:15.42Z</time></trkpt><trkpt lat="45.2179702" lon="9.0701932"><ele>74.33333333333334</ele><time>2026-03-29T08:35:17.417Z</time></trkpt><trkpt lat="45.2179556" lon="9.0703084"><ele>74.5</ele><time>2026-03-29T08:35:19.411Z</time></trkpt><trkpt lat="45.2179384" lon="9.0704163"><ele>74.66666666666667</ele><time>2026-03-29T08:35:21.402Z</time></trkpt><trkpt lat="45.2178909" lon="9.0705216"><ele>74.83333333333333</ele><time>2026-03-29T08:35:24.437Z</time></trkpt><trkpt lat="45.2178422" lon="9.0705934"><ele>75.0</ele><time>2026-03-29T08:35:26.412Z</time></trkpt><trkpt lat="45.2177826" lon="9.0706592"><ele>75.0</ele><time>2026-03-29T08:35:28.406Z</time></trkpt><trkpt lat="45.2177354" lon="9.0707315"><ele>75.0</ele><time>2026-03-29T08:35:30.415Z</time></trkpt><trkpt lat="45.2176856" lon="9.0708227"><ele>75.0</ele><time>2026-03-29T08:35:32.418Z</time></trkpt><trkpt lat="45.217636" lon="9.0708882"><ele>75.0</ele><time>2026-03-29T08:35:34.412Z</time></trkpt><trkpt lat="45.2175765" lon="9.0709716"><ele>75.0</ele><time>2026-03-29T08:35:37.406Z</time></trkpt><trkpt lat="45.2175019" lon="9.0709969"><ele>75.0</ele><time>2026-03-29T08:35:40.426Z</time></trkpt><trkpt lat="45.2174036" lon="9.0710335"><ele>75.33333333333333</ele><time>2026-03-29T08:35:43.401Z</time></trkpt><trkpt lat="45.2173387" lon="9.0710865"><ele>75.66666666666667</ele><time>2026-03-29T08:35:45.413Z</time></trkpt><trkpt lat="45.2172454" lon="9.0711472"><ele>76.0</ele><time>2026-03-29T08:35:47.416Z</time></trkpt><trkpt lat="45.2171599" lon="9.0711651"><ele>76.33333333333334</ele><time>2026-03-29T08:35:49.419Z</time></trkpt><trkpt lat="45.2170868" lon="9.071186"><ele>76.66666666666667</ele><time>2026-03-29T08:35:51.413Z</time></trkpt><trkpt lat="45.2170144" lon="9.0712178"><ele>77.0</ele><time>2026-03-29T08:35:53.402Z</time></trkpt><trkpt lat="45.2169423" lon="9.0712493"><ele>77.0</ele><time>2026-03-29T08:35:55.403Z</time></trkpt><trkpt lat="45.216872" lon="9.071294"><ele>77.0</ele><time>2026-03-29T08:35:57.413Z</time></trkpt><trkpt lat="45.216797" lon="9.0713362"><ele>77.0</ele><time>2026-03-29T08:35:59.411Z</time></trkpt><trkpt lat="45.2167284" lon="9.0713802"><ele>77.0</ele><time>2026-03-29T08:36:01.404Z</time></trkpt><trkpt lat="45.2166687" lon="9.071455"><ele>77.0</ele><time>2026-03-29T08:36:03.411Z</time></trkpt><trkpt lat="45.2166115" lon="9.0715311"><ele>77.0</ele><time>2026-03-29T08:36:05.411Z</time></trkpt><trkpt lat="45.2165586" lon="9.0716113"><ele>77.0</ele><time>2026-03-29T08:36:07.402Z</time></trkpt><trkpt lat="45.2165022" lon="9.0716944"><ele>77.0</ele><time>2026-03-29T08:36:09.416Z</time></trkpt><trkpt lat="45.2164562" lon="9.0717602"><ele>77.0</ele><time>2026-03-29T08:36:11.413Z</time></trkpt><trkpt lat="45.2164121" lon="9.0718296"><ele>77.0</ele><time>2026-03-29T08:36:13.482Z</time></trkpt><trkpt lat="45.2163642" lon="9.0719077"><ele>77.0</ele><time>2026-03-29T08:36:15.411Z</time></trkpt><trkpt lat="45.2163123" lon="9.072006"><ele>77.0</ele><time>2026-03-29T08:36:17.405Z</time></trkpt><trkpt lat="45.2162646" lon="9.072086"><ele>77.0</ele><time>2026-03-29T08:36:19.405Z</time></trkpt><trkpt lat="45.2162191" lon="9.0721592"><ele>76.5</ele><time>2026-03-29T08:36:21.409Z</time></trkpt><trkpt lat="45.2161648" lon="9.0722319"><ele>76.0</ele><time>2026-03-29T08:36:23.422Z</time></trkpt><trkpt lat="45.2161004" lon="9.0723101"><ele>75.5</ele><time>2026-03-29T08:36:25.489Z</time></trkpt><trkpt lat="45.2160398" lon="9.0723828"><ele>75.0</ele><time>2026-03-29T08:36:27.406Z</time></trkpt><trkpt lat="45.2159908" lon="9.0724483"><ele>74.5</ele><time>2026-03-29T08:36:29.412Z</time></trkpt><trkpt lat="45.21594" lon="9.0725248"><ele>74.0</ele><time>2026-03-29T08:36:31.414Z</time></trkpt><trkpt lat="45.2158796" lon="9.0725887"><ele>74.0</ele><time>2026-03-29T08:36:33.408Z</time></trkpt><trkpt lat="45.2158292" lon="9.0726603"><ele>74.0</ele><time>2026-03-29T08:36:35.414Z</time></trkpt><trkpt lat="45.2157714" lon="9.0727299"><ele>74.0</ele><time>2026-03-29T08:36:37.407Z</time></trkpt><trkpt lat="45.2157134" lon="9.0728064"><ele>74.0</ele><time>2026-03-29T08:36:39.404Z</time></trkpt><trkpt lat="45.2156668" lon="9.0728713"><ele>74.0</ele><time>2026-03-29T08:36:41.411Z</time></trkpt><trkpt lat="45.2155936" lon="9.0729735"><ele>74.0</ele><time>2026-03-29T08:36:44.411Z</time></trkpt><trkpt lat="45.2155418" lon="9.0730489"><ele>73.85714285714286</ele><time>2026-03-29T08:36:46.408Z</time></trkpt><trkpt lat="45.2154952" lon="9.0731262"><ele>73.71428571428571</ele><time>2026-03-29T08:36:48.408Z</time></trkpt><trkpt lat="45.215453" lon="9.0732007"><ele>73.57142857142857</ele><time>2026-03-29T08:36:50.42Z</time></trkpt><trkpt lat="45.215411" lon="9.0732693"><ele>73.42857142857143</ele><time>2026-03-29T08:36:52.488Z</time></trkpt><trkpt lat="45.2153602" lon="9.0733315"><ele>73.28571428571429</ele><time>2026-03-29T08:36:54.411Z</time></trkpt><trkpt lat="45.2153049" lon="9.0733979"><ele>73.14285714285714</ele><time>2026-03-29T08:36:56.41Z</time></trkpt><trkpt lat="45.215253" lon="9.0734704"><ele>73.0</ele><time>2026-03-29T08:36:58.405Z</time></trkpt><trkpt lat="45.2151998" lon="9.0735429"><ele>73.0</ele><time>2026-03-29T08:37:00.418Z</time></trkpt><trkpt lat="45.2151425" lon="9.0736127"><ele>73.0</ele><time>2026-03-29T08:37:02.439Z</time></trkpt><trkpt lat="45.2150763" lon="9.0736919"><ele>73.0</ele><time>2026-03-29T08:37:04.412Z</time></trkpt><trkpt lat="45.2150282" lon="9.0737553"><ele>73.0</ele><time>2026-03-29T08:37:06.405Z</time></trkpt><trkpt lat="45.2149846" lon="9.0738201"><ele>73.0</ele><time>2026-03-29T08:37:08.41Z</time></trkpt><trkpt lat="45.2149382" lon="9.0738926"><ele>73.0</ele><time>2026-03-29T08:37:10.402Z</time></trkpt><trkpt lat="45.2148882" lon="9.0739683"><ele>73.0</ele><time>2026-03-29T08:37:12.411Z</time></trkpt><trkpt lat="45.2148328" lon="9.0740449"><ele>73.33333333333333</ele><time>2026-03-29T08:37:14.413Z</time></trkpt><trkpt lat="45.21478" lon="9.0741152"><ele>73.66666666666666</ele><time>2026-03-29T08:37:16.409Z</time></trkpt><trkpt lat="45.2147273" lon="9.0741749"><ele>74.0</ele><time>2026-03-29T08:37:18.414Z</time></trkpt><trkpt lat="45.2146631" lon="9.0742172"><ele>74.33333333333333</ele><time>2026-03-29T08:37:20.421Z</time></trkpt><trkpt lat="45.2145992" lon="9.0742595"><ele>74.66666666666667</ele><time>2026-03-29T08:37:22.413Z</time></trkpt><trkpt lat="45.2145286" lon="9.0743059"><ele>75.0</ele><time>2026-03-29T08:37:24.402Z</time></trkpt><trkpt lat="45.214444" lon="9.0743728"><ele>75.0</ele><time>2026-03-29T08:37:26.413Z</time></trkpt><trkpt lat="45.2143794" lon="9.0744343"><ele>75.0</ele><time>2026-03-29T08:37:28.421Z</time></trkpt><trkpt lat="45.214326" lon="9.074494"><ele>75.0</ele><time>2026-03-29T08:37:30.405Z</time></trkpt><trkpt lat="45.2142546" lon="9.0745717"><ele>75.0</ele><time>2026-03-29T08:37:33.407Z</time></trkpt><trkpt lat="45.2141908" lon="9.0746702"><ele>75.0</ele><time>2026-03-29T08:37:36.423Z</time></trkpt><trkpt lat="45.2141483" lon="9.0747497"><ele>75.0</ele><time>2026-03-29T08:37:38.418Z</time></trkpt><trkpt lat="45.2141031" lon="9.0748336"><ele>75.0</ele><time>2026-03-29T08:37:40.406Z</time></trkpt><trkpt lat="45.2140538" lon="9.0749278"><ele>75.0</ele><time>2026-03-29T08:37:42.41Z</time></trkpt><trkpt lat="45.2139982" lon="9.0750291"><ele>75.0</ele><time>2026-03-29T08:37:44.42Z</time></trkpt><trkpt lat="45.2139593" lon="9.0751463"><ele>75.0</ele><time>2026-03-29T08:37:46.436Z</time></trkpt><trkpt lat="45.2139011" lon="9.0752278"><ele>75.0</ele><time>2026-03-29T08:37:48.406Z</time></trkpt><trkpt lat="45.2138549" lon="9.0752992"><ele>75.0</ele><time>2026-03-29T08:37:50.484Z</time></trkpt><trkpt lat="45.2138101" lon="9.0753687"><ele>74.5</ele><time>2026-03-29T08:37:52.411Z</time></trkpt><trkpt lat="45.2137631" lon="9.0754483"><ele>74.0</ele><time>2026-03-29T08:37:54.407Z</time></trkpt><trkpt lat="45.213704" lon="9.0755181"><ele>73.5</ele><time>2026-03-29T08:37:56.406Z</time></trkpt><trkpt lat="45.2136485" lon="9.0756078"><ele>73.0</ele><time>2026-03-29T08:37:58.411Z</time></trkpt><trkpt lat="45.2135945" lon="9.0756989"><ele>72.5</ele><time>2026-03-29T08:38:00.427Z</time></trkpt><trkpt lat="45.2135575" lon="9.075794"><ele>72.0</ele><time>2026-03-29T08:38:02.41Z</time></trkpt><trkpt lat="45.2135242" lon="9.0758795"><ele>72.0</ele><time>2026-03-29T08:38:04.403Z</time></trkpt><trkpt lat="45.2134885" lon="9.0759725"><ele>72.0</ele><time>2026-03-29T08:38:06.412Z</time></trkpt><trkpt lat="45.2134511" lon="9.0760548"><ele>72.0</ele><time>2026-03-29T08:38:08.411Z</time></trkpt><trkpt lat="45.2134169" lon="9.0761566"><ele>72.0</ele><time>2026-03-29T08:38:10.412Z</time></trkpt><trkpt lat="45.2133868" lon="9.0762548"><ele>72.0</ele><time>2026-03-29T08:38:12.412Z</time></trkpt><trkpt lat="45.2133489" lon="9.0763558"><ele>72.0</ele><time>2026-03-29T08:38:14.402Z</time></trkpt><trkpt lat="45.2133152" lon="9.0764546"><ele>72.0</ele><time>2026-03-29T08:38:16.407Z</time></trkpt><trkpt lat="45.213282" lon="9.0765525"><ele>72.0</ele><time>2026-03-29T08:38:18.405Z</time></trkpt><trkpt lat="45.2132463" lon="9.0766567"><ele>72.0</ele><time>2026-03-29T08:38:20.417Z</time></trkpt><trkpt lat="45.2132191" lon="9.0767585"><ele>72.0</ele><time>2026-03-29T08:38:22.408Z</time></trkpt><trkpt lat="45.2131919" lon="9.0768541"><ele>72.0</ele><time>2026-03-29T08:38:24.428Z</time></trkpt><trkpt lat="45.2131684" lon="9.0769508"><ele>72.0</ele><time>2026-03-29T08:38:26.415Z</time></trkpt><trkpt lat="45.2131479" lon="9.0770644"><ele>72.33333333333333</ele><time>2026-03-29T08:38:29.417Z</time></trkpt><trkpt lat="45.2131393" lon="9.0771543"><ele>72.66666666666667</ele><time>2026-03-29T08:38:31.413Z</time></trkpt><trkpt lat="45.2131407" lon="9.0772683"><ele>73.0</ele><time>2026-03-29T08:38:33.413Z</time></trkpt><trkpt lat="45.2131379" lon="9.0773608"><ele>73.33333333333334</ele><time>2026-03-29T08:38:35.404Z</time></trkpt><trkpt lat="45.2131414" lon="9.0774882"><ele>73.66666666666667</ele><time>2026-03-29T08:38:38.413Z</time></trkpt><trkpt lat="45.2131418" lon="9.0776138"><ele>74.0</ele><time>2026-03-29T08:38:41.41Z</time></trkpt><trkpt lat="45.2131377" lon="9.0777108"><ele>74.57142857142857</ele><time>2026-03-29T08:38:43.405Z</time></trkpt><trkpt lat="45.2131329" lon="9.0778134"><ele>75.14285714285714</ele><time>2026-03-29T08:38:45.401Z</time></trkpt><trkpt lat="45.213133" lon="9.0779105"><ele>75.71428571428572</ele><time>2026-03-29T08:38:47.41Z</time></trkpt><trkpt lat="45.2131274" lon="9.0780029"><ele>76.28571428571428</ele><time>2026-03-29T08:38:49.405Z</time></trkpt><trkpt lat="45.2131216" lon="9.0781009"><ele>76.85714285714285</ele><time>2026-03-29T08:38:51.488Z</time></trkpt><trkpt lat="45.2131103" lon="9.0782006"><ele>77.42857142857143</ele><time>2026-03-29T08:38:53.403Z</time></trkpt><trkpt lat="45.2130946" lon="9.0782904"><ele>78.0</ele><time>2026-03-29T08:38:55.408Z</time></trkpt><trkpt lat="45.2131004" lon="9.0784127"><ele>78.0</ele><time>2026-03-29T08:38:58.404Z</time></trkpt><trkpt lat="45.2131545" lon="9.0784739"><ele>78.0</ele><time>2026-03-29T08:39:00.403Z</time></trkpt><trkpt lat="45.2132213" lon="9.0785065"><ele>78.0</ele><time>2026-03-29T08:39:02.408Z</time></trkpt><trkpt lat="45.2132878" lon="9.0785499"><ele>78.0</ele><time>2026-03-29T08:39:04.411Z</time></trkpt><trkpt lat="45.2133612" lon="9.0786104"><ele>78.0</ele><time>2026-03-29T08:39:06.416Z</time></trkpt><trkpt lat="45.2134098" lon="9.0786711"><ele>78.0</ele><time>2026-03-29T08:39:08.409Z</time></trkpt><trkpt lat="45.2134665" lon="9.078725"><ele>78.0</ele><time>2026-03-29T08:39:10.407Z</time></trkpt><trkpt lat="45.2135251" lon="9.0787882"><ele>78.0</ele><time>2026-03-29T08:39:12.412Z</time></trkpt><trkpt lat="45.2135798" lon="9.0788417"><ele>78.0</ele><time>2026-03-29T08:39:14.411Z</time></trkpt><trkpt lat="45.2136418" lon="9.0789147"><ele>78.0</ele><time>2026-03-29T08:39:16.407Z</time></trkpt><trkpt lat="45.2137124" lon="9.0789857"><ele>78.0</ele><time>2026-03-29T08:39:18.409Z</time></trkpt><trkpt lat="45.2137803" lon="9.0790541"><ele>78.0</ele><time>2026-03-29T08:39:20.42Z</time></trkpt><trkpt lat="45.2138466" lon="9.0791365"><ele>78.0</ele><time>2026-03-29T08:39:22.412Z</time></trkpt><trkpt lat="45.2139159" lon="9.0792119"><ele>78.0</ele><time>2026-03-29T08:39:24.413Z</time></trkpt><trkpt lat="45.2139845" lon="9.0792799"><ele>78.0</ele><time>2026-03-29T08:39:26.408Z</time></trkpt><trkpt lat="45.2140469" lon="9.0793374"><ele>78.0</ele><time>2026-03-29T08:39:28.489Z</time></trkpt><trkpt lat="45.2141047" lon="9.0794066"><ele>78.0</ele><time>2026-03-29T08:39:30.404Z</time></trkpt><trkpt lat="45.2141642" lon="9.0794822"><ele>78.0</ele><time>2026-03-29T08:39:32.407Z</time></trkpt><trkpt lat="45.2142262" lon="9.0795438"><ele>78.0</ele><time>2026-03-29T08:39:34.479Z</time></trkpt><trkpt lat="45.2142847" lon="9.0796139"><ele>78.5</ele><time>2026-03-29T08:39:36.435Z</time></trkpt><trkpt lat="45.2143533" lon="9.0796746"><ele>79.0</ele><time>2026-03-29T08:39:38.405Z</time></trkpt><trkpt lat="45.2144171" lon="9.0797339"><ele>79.5</ele><time>2026-03-29T08:39:40.409Z</time></trkpt><trkpt lat="45.21448" lon="9.0798029"><ele>80.0</ele><time>2026-03-29T08:39:42.413Z</time></trkpt><trkpt lat="45.2145389" lon="9.0798689"><ele>80.5</ele><time>2026-03-29T08:39:44.4Z</time></trkpt><trkpt lat="45.2146071" lon="9.0799404"><ele>81.0</ele><time>2026-03-29T08:39:46.411Z</time></trkpt><trkpt lat="45.2146636" lon="9.0800097"><ele>81.0</ele><time>2026-03-29T08:39:48.422Z</time></trkpt><trkpt lat="45.2147245" lon="9.0800616"><ele>81.0</ele><time>2026-03-29T08:39:50.408Z</time></trkpt><trkpt lat="45.2147847" lon="9.0801148"><ele>81.0</ele><time>2026-03-29T08:39:52.409Z</time></trkpt><trkpt lat="45.2148453" lon="9.0801758"><ele>81.0</ele><time>2026-03-29T08:39:54.398Z</time></trkpt><trkpt lat="45.214913" lon="9.0802502"><ele>81.0</ele><time>2026-03-29T08:39:57.41Z</time></trkpt><trkpt lat="45.2148964" lon="9.0803704"><ele>81.0</ele><time>2026-03-29T08:40:00.407Z</time></trkpt><trkpt lat="45.2148551" lon="9.0804495"><ele>81.0</ele><time>2026-03-29T08:40:02.42Z</time></trkpt><trkpt lat="45.2148004" lon="9.0805434"><ele>81.0</ele><time>2026-03-29T08:40:04.4Z</time></trkpt><trkpt lat="45.2147693" lon="9.080622"><ele>81.0</ele><time>2026-03-29T08:40:06.411Z</time></trkpt><trkpt lat="45.2147327" lon="9.0807068"><ele>81.0</ele><time>2026-03-29T08:40:08.414Z</time></trkpt><trkpt lat="45.2146935" lon="9.0808018"><ele>81.0</ele><time>2026-03-29T08:40:10.412Z</time></trkpt><trkpt lat="45.2146524" lon="9.0808977"><ele>81.0</ele><time>2026-03-29T08:40:12.421Z</time></trkpt><trkpt lat="45.2146039" lon="9.0810013"><ele>81.0</ele><time>2026-03-29T08:40:14.414Z</time></trkpt><trkpt lat="45.2145542" lon="9.0810879"><ele>81.0</ele><time>2026-03-29T08:40:16.406Z</time></trkpt><trkpt lat="45.2145069" lon="9.0811801"><ele>81.0</ele><time>2026-03-29T08:40:18.411Z</time></trkpt><trkpt lat="45.2144645" lon="9.0812699"><ele>81.0</ele><time>2026-03-29T08:40:20.409Z</time></trkpt><trkpt lat="45.2144131" lon="9.0813606"><ele>81.0</ele><time>2026-03-29T08:40:22.404Z</time></trkpt><trkpt lat="45.2143788" lon="9.0814451"><ele>81.0</ele><time>2026-03-29T08:40:24.41Z</time></trkpt><trkpt lat="45.214331" lon="9.0815416"><ele>80.83333333333333</ele><time>2026-03-29T08:40:26.41Z</time></trkpt><trkpt lat="45.2142841" lon="9.0816348"><ele>80.66666666666667</ele><time>2026-03-29T08:40:28.404Z</time></trkpt><trkpt lat="45.214237" lon="9.081727"><ele>80.5</ele><time>2026-03-29T08:40:30.417Z</time></trkpt><trkpt lat="45.2141904" lon="9.0818199"><ele>80.33333333333334</ele><time>2026-03-29T08:40:32.417Z</time></trkpt><trkpt lat="45.2141458" lon="9.0819112"><ele>80.16666666666667</ele><time>2026-03-29T08:40:34.404Z</time></trkpt><trkpt lat="45.2140939" lon="9.0820094"><ele>80.0</ele><time>2026-03-29T08:40:36.412Z</time></trkpt><trkpt lat="45.2140466" lon="9.0821135"><ele>80.0</ele><time>2026-03-29T08:40:38.421Z</time></trkpt><trkpt lat="45.213995" lon="9.0822239"><ele>80.0</ele><time>2026-03-29T08:40:40.404Z</time></trkpt><trkpt lat="45.2139438" lon="9.0823186"><ele>80.0</ele><time>2026-03-29T08:40:42.412Z</time></trkpt><trkpt lat="45.2138867" lon="9.0824252"><ele>80.0</ele><time>2026-03-29T08:40:44.487Z</time></trkpt><trkpt lat="45.2138436" lon="9.0825152"><ele>80.0</ele><time>2026-03-29T08:40:46.416Z</time></trkpt><trkpt lat="45.2137934" lon="9.0825952"><ele>80.0</ele><time>2026-03-29T08:40:48.409Z</time></trkpt><trkpt lat="45.2137489" lon="9.0826676"><ele>80.16666666666667</ele><time>2026-03-29T08:40:50.432Z</time></trkpt><trkpt lat="45.2137052" lon="9.0827508"><ele>80.33333333333334</ele><time>2026-03-29T08:40:52.404Z</time></trkpt><trkpt lat="45.213655" lon="9.0828345"><ele>80.5</ele><time>2026-03-29T08:40:54.408Z</time></trkpt><trkpt lat="45.2136093" lon="9.0829167"><ele>80.66666666666667</ele><time>2026-03-29T08:40:56.408Z</time></trkpt><trkpt lat="45.2135618" lon="9.0830127"><ele>80.83333333333333</ele><time>2026-03-29T08:40:58.456Z</time></trkpt><trkpt lat="45.2135125" lon="9.0830936"><ele>81.0</ele><time>2026-03-29T08:41:00.427Z</time></trkpt><trkpt lat="45.2134486" lon="9.0831624"><ele>80.83333333333333</ele><time>2026-03-29T08:41:02.409Z</time></trkpt><trkpt lat="45.2134094" lon="9.0832711"><ele>80.66666666666667</ele><time>2026-03-29T08:41:04.41Z</time></trkpt><trkpt lat="45.2133538" lon="9.0833501"><ele>80.5</ele><time>2026-03-29T08:41:06.409Z</time></trkpt><trkpt lat="45.2133077" lon="9.0834205"><ele>80.33333333333334</ele><time>2026-03-29T08:41:08.412Z</time></trkpt><trkpt lat="45.2132569" lon="9.08349"><ele>80.16666666666667</ele><time>2026-03-29T08:41:10.404Z</time></trkpt><trkpt lat="45.2131969" lon="9.0835794"><ele>80.0</ele><time>2026-03-29T08:41:12.404Z</time></trkpt><trkpt lat="45.2131473" lon="9.0836732"><ele>80.16666666666667</ele><time>2026-03-29T08:41:14.41Z</time></trkpt><trkpt lat="45.2131062" lon="9.0837619"><ele>80.33333333333334</ele><time>2026-03-29T08:41:16.413Z</time></trkpt><trkpt lat="45.213062" lon="9.0838608"><ele>80.5</ele><time>2026-03-29T08:41:18.412Z</time></trkpt><trkpt lat="45.2130115" lon="9.0839541"><ele>80.66666666666667</ele><time>2026-03-29T08:41:20.409Z</time></trkpt><trkpt lat="45.2129545" lon="9.0840371"><ele>80.83333333333333</ele><time>2026-03-29T08:41:22.412Z</time></trkpt><trkpt lat="45.2129022" lon="9.0841341"><ele>81.0</ele><time>2026-03-29T08:41:24.411Z</time></trkpt><trkpt lat="45.2128481" lon="9.0842383"><ele>81.0</ele><time>2026-03-29T08:41:26.4Z</time></trkpt><trkpt lat="45.2128053" lon="9.0843321"><ele>81.0</ele><time>2026-03-29T08:41:28.403Z</time></trkpt><trkpt lat="45.2127519" lon="9.0844211"><ele>81.0</ele><time>2026-03-29T08:41:30.419Z</time></trkpt><trkpt lat="45.2126946" lon="9.0845222"><ele>81.0</ele><time>2026-03-29T08:41:32.406Z</time></trkpt><trkpt lat="45.2126355" lon="9.0846119"><ele>81.0</ele><time>2026-03-29T08:41:34.41Z</time></trkpt><trkpt lat="45.2125828" lon="9.0847014"><ele>81.0</ele><time>2026-03-29T08:41:36.412Z</time></trkpt><trkpt lat="45.2125273" lon="9.0847921"><ele>81.0</ele><time>2026-03-29T08:41:38.402Z</time></trkpt><trkpt lat="45.2124719" lon="9.0848774"><ele>81.0</ele><time>2026-03-29T08:41:40.415Z</time></trkpt><trkpt lat="45.212421" lon="9.0849594"><ele>81.0</ele><time>2026-03-29T08:41:42.418Z</time></trkpt><trkpt lat="45.2123683" lon="9.085051"><ele>81.0</ele><time>2026-03-29T08:41:44.405Z</time></trkpt><trkpt lat="45.2123225" lon="9.0851347"><ele>81.0</ele><time>2026-03-29T08:41:46.415Z</time></trkpt><trkpt lat="45.2122665" lon="9.0852289"><ele>81.0</ele><time>2026-03-29T08:41:48.418Z</time></trkpt><trkpt lat="45.2122173" lon="9.0853205"><ele>80.66666666666667</ele><time>2026-03-29T08:41:50.412Z</time></trkpt><trkpt lat="45.2121618" lon="9.0854163"><ele>80.33333333333333</ele><time>2026-03-29T08:41:52.405Z</time></trkpt><trkpt lat="45.2121086" lon="9.0855028"><ele>80.0</ele><time>2026-03-29T08:41:54.408Z</time></trkpt><trkpt lat="45.2120582" lon="9.0855848"><ele>79.66666666666666</ele><time>2026-03-29T08:41:56.398Z</time></trkpt><trkpt lat="45.2120144" lon="9.0856769"><ele>79.33333333333333</ele><time>2026-03-29T08:41:58.407Z</time></trkpt><trkpt lat="45.2119629" lon="9.0857726"><ele>79.0</ele><time>2026-03-29T08:42:00.401Z</time></trkpt><trkpt lat="45.2119005" lon="9.0858641"><ele>79.0</ele><time>2026-03-29T08:42:02.413Z</time></trkpt><trkpt lat="45.2118463" lon="9.0859521"><ele>79.0</ele><time>2026-03-29T08:42:04.404Z</time></trkpt><trkpt lat="45.2118016" lon="9.0860477"><ele>79.0</ele><time>2026-03-29T08:42:06.412Z</time></trkpt><trkpt lat="45.2117521" lon="9.0861413"><ele>79.0</ele><time>2026-03-29T08:42:08.435Z</time></trkpt><trkpt lat="45.2117016" lon="9.0862218"><ele>79.0</ele><time>2026-03-29T08:42:10.408Z</time></trkpt><trkpt lat="45.2116523" lon="9.0863262"><ele>79.0</ele><time>2026-03-29T08:42:12.424Z</time></trkpt><trkpt lat="45.2116012" lon="9.0864122"><ele>79.0</ele><time>2026-03-29T08:42:14.411Z</time></trkpt><trkpt lat="45.2115467" lon="9.0865054"><ele>79.0</ele><time>2026-03-29T08:42:16.405Z</time></trkpt><trkpt lat="45.2114943" lon="9.0866051"><ele>79.0</ele><time>2026-03-29T08:42:18.413Z</time></trkpt><trkpt lat="45.2114438" lon="9.0866978"><ele>79.0</ele><time>2026-03-29T08:42:20.416Z</time></trkpt><trkpt lat="45.2113877" lon="9.0868048"><ele>79.0</ele><time>2026-03-29T08:42:22.413Z</time></trkpt><trkpt lat="45.211326" lon="9.0869094"><ele>79.0</ele><time>2026-03-29T08:42:24.399Z</time></trkpt><trkpt lat="45.2112731" lon="9.0870154"><ele>79.0</ele><time>2026-03-29T08:42:26.421Z</time></trkpt><trkpt lat="45.2112178" lon="9.0871107"><ele>79.0</ele><time>2026-03-29T08:42:28.411Z</time></trkpt><trkpt lat="45.2111647" lon="9.087203"><ele>79.0</ele><time>2026-03-29T08:42:30.423Z</time></trkpt><trkpt lat="45.2111129" lon="9.0872954"><ele>79.0</ele><time>2026-03-29T08:42:32.408Z</time></trkpt><trkpt lat="45.2110587" lon="9.0873837"><ele>79.0</ele><time>2026-03-29T08:42:34.399Z</time></trkpt><trkpt lat="45.2110031" lon="9.0874817"><ele>79.0</ele><time>2026-03-29T08:42:36.412Z</time></trkpt><trkpt lat="45.2109494" lon="9.0875811"><ele>79.0</ele><time>2026-03-29T08:42:38.41Z</time></trkpt><trkpt lat="45.2108871" lon="9.0876746"><ele>79.0</ele><time>2026-03-29T08:42:40.409Z</time></trkpt><trkpt lat="45.2108324" lon="9.0877732"><ele>79.0</ele><time>2026-03-29T08:42:42.407Z</time></trkpt><trkpt lat="45.2107836" lon="9.0878575"><ele>79.0</ele><time>2026-03-29T08:42:44.412Z</time></trkpt><trkpt lat="45.2107204" lon="9.0879442"><ele>79.0</ele><time>2026-03-29T08:42:46.405Z</time></trkpt><trkpt lat="45.2106709" lon="9.0880496"><ele>79.0</ele><time>2026-03-29T08:42:48.408Z</time></trkpt><trkpt lat="45.2106198" lon="9.0881467"><ele>79.0</ele><time>2026-03-29T08:42:50.416Z</time></trkpt><trkpt lat="45.21056" lon="9.0882489"><ele>79.0</ele><time>2026-03-29T08:42:52.406Z</time></trkpt><trkpt lat="45.2105004" lon="9.0883497"><ele>79.0</ele><time>2026-03-29T08:42:54.41Z</time></trkpt><trkpt lat="45.2104435" lon="9.0884378"><ele>79.0</ele><time>2026-03-29T08:42:56.408Z</time></trkpt><trkpt lat="45.210387" lon="9.0885402"><ele>79.0</ele><time>2026-03-29T08:42:58.394Z</time></trkpt><trkpt lat="45.210332" lon="9.0886326"><ele>79.0</ele><time>2026-03-29T08:43:00.412Z</time></trkpt><trkpt lat="45.2102916" lon="9.0887113"><ele>79.0</ele><time>2026-03-29T08:43:02.418Z</time></trkpt><trkpt lat="45.2102209" lon="9.0887537"><ele>79.0</ele><time>2026-03-29T08:43:05.406Z</time></trkpt><trkpt lat="45.210138" lon="9.0886917"><ele>79.0</ele><time>2026-03-29T08:43:08.409Z</time></trkpt><trkpt lat="45.2100822" lon="9.0886284"><ele>79.0</ele><time>2026-03-29T08:43:10.406Z</time></trkpt><trkpt lat="45.2100323" lon="9.0885719"><ele>79.0</ele><time>2026-03-29T08:43:12.413Z</time></trkpt><trkpt lat="45.2099732" lon="9.0885186"><ele>79.0</ele><time>2026-03-29T08:43:14.41Z</time></trkpt><trkpt lat="45.20991" lon="9.0884447"><ele>79.0</ele><time>2026-03-29T08:43:16.418Z</time></trkpt><trkpt lat="45.2098383" lon="9.0883708"><ele>79.0</ele><time>2026-03-29T08:43:18.409Z</time></trkpt><trkpt lat="45.2097756" lon="9.0883203"><ele>79.0</ele><time>2026-03-29T08:43:20.404Z</time></trkpt><trkpt lat="45.2097196" lon="9.0882664"><ele>79.0</ele><time>2026-03-29T08:43:22.401Z</time></trkpt><trkpt lat="45.2096608" lon="9.0882131"><ele>79.0</ele><time>2026-03-29T08:43:24.405Z</time></trkpt><trkpt lat="45.2096034" lon="9.0881502"><ele>79.0</ele><time>2026-03-29T08:43:26.411Z</time></trkpt><trkpt lat="45.2095302" lon="9.0880777"><ele>79.00000000000001</ele><time>2026-03-29T08:43:29.412Z</time></trkpt><trkpt lat="45.2094751" lon="9.0880192"><ele>79.0</ele><time>2026-03-29T08:43:31.483Z</time></trkpt><trkpt lat="45.2094166" lon="9.087955"><ele>79.0</ele><time>2026-03-29T08:43:33.404Z</time></trkpt><trkpt lat="45.2093521" lon="9.0878944"><ele>79.0</ele><time>2026-03-29T08:43:35.408Z</time></trkpt><trkpt lat="45.2092944" lon="9.0878235"><ele>79.0</ele><time>2026-03-29T08:43:37.404Z</time></trkpt><trkpt lat="45.2092308" lon="9.0877535"><ele>79.00000000000001</ele><time>2026-03-29T08:43:39.406Z</time></trkpt><trkpt lat="45.209175" lon="9.0876985"><ele>79.0</ele><time>2026-03-29T08:43:41.402Z</time></trkpt><trkpt lat="45.2091116" lon="9.0876467"><ele>79.0</ele><time>2026-03-29T08:43:43.415Z</time></trkpt><trkpt lat="45.2090471" lon="9.0875871"><ele>79.0</ele><time>2026-03-29T08:43:45.415Z</time></trkpt><trkpt lat="45.2089805" lon="9.0875323"><ele>79.0</ele><time>2026-03-29T08:43:47.409Z</time></trkpt><trkpt lat="45.208922" lon="9.0874623"><ele>79.0</ele><time>2026-03-29T08:43:49.402Z</time></trkpt><trkpt lat="45.2088544" lon="9.087403"><ele>79.0</ele><time>2026-03-29T08:43:51.401Z</time></trkpt><trkpt lat="45.2087911" lon="9.0873295"><ele>79.0</ele><time>2026-03-29T08:43:53.406Z</time></trkpt><trkpt lat="45.2087373" lon="9.0872643"><ele>78.66666666666666</ele><time>2026-03-29T08:43:55.404Z</time></trkpt><trkpt lat="45.2086746" lon="9.087204"><ele>78.33333333333333</ele><time>2026-03-29T08:43:57.406Z</time></trkpt><trkpt lat="45.2085971" lon="9.0871386"><ele>78.0</ele><time>2026-03-29T08:43:59.409Z</time></trkpt><trkpt lat="45.2085349" lon="9.0870663"><ele>77.66666666666667</ele><time>2026-03-29T08:44:01.411Z</time></trkpt><trkpt lat="45.2084693" lon="9.0870047"><ele>77.33333333333334</ele><time>2026-03-29T08:44:03.407Z</time></trkpt><trkpt lat="45.2084149" lon="9.0869511"><ele>77.0</ele><time>2026-03-29T08:44:05.402Z</time></trkpt><trkpt lat="45.2083445" lon="9.0868731"><ele>77.0</ele><time>2026-03-29T08:44:08.406Z</time></trkpt><trkpt lat="45.2083015" lon="9.086775"><ele>77.0</ele><time>2026-03-29T08:44:11.405Z</time></trkpt><trkpt lat="45.2082739" lon="9.0866884"><ele>77.0</ele><time>2026-03-29T08:44:13.408Z</time></trkpt><trkpt lat="45.2082245" lon="9.0865887"><ele>77.0</ele><time>2026-03-29T08:44:16.416Z</time></trkpt><trkpt lat="45.2081732" lon="9.086531"><ele>77.0</ele><time>2026-03-29T08:44:18.409Z</time></trkpt><trkpt lat="45.2081096" lon="9.0864775"><ele>77.0</ele><time>2026-03-29T08:44:20.416Z</time></trkpt><trkpt lat="45.2080601" lon="9.0864155"><ele>77.0</ele><time>2026-03-29T08:44:22.41Z</time></trkpt><trkpt lat="45.2080002" lon="9.0863553"><ele>76.66666666666667</ele><time>2026-03-29T08:44:24.424Z</time></trkpt><trkpt lat="45.2079507" lon="9.0862648"><ele>76.33333333333334</ele><time>2026-03-29T08:44:27.406Z</time></trkpt><trkpt lat="45.2078905" lon="9.0861723"><ele>76.0</ele><time>2026-03-29T08:44:30.433Z</time></trkpt><trkpt lat="45.2078181" lon="9.0861095"><ele>75.66666666666667</ele><time>2026-03-29T08:44:33.404Z</time></trkpt><trkpt lat="45.2077575" lon="9.0860434"><ele>75.33333333333333</ele><time>2026-03-29T08:44:36.43Z</time></trkpt><trkpt lat="45.2076891" lon="9.0859777"><ele>75.0</ele><time>2026-03-29T08:44:39.41Z</time></trkpt><trkpt lat="45.2076181" lon="9.0859711"><ele>75.0</ele><time>2026-03-29T08:44:42.433Z</time></trkpt><trkpt lat="45.2075653" lon="9.0858949"><ele>75.0</ele><time>2026-03-29T08:44:47.475Z</time></trkpt><trkpt lat="45.2075176" lon="9.0857652"><ele>75.0</ele><time>2026-03-29T08:44:50.411Z</time></trkpt><trkpt lat="45.2075011" lon="9.0856782"><ele>75.0</ele><time>2026-03-29T08:44:51.409Z</time></trkpt><trkpt lat="45.2074659" lon="9.0855846"><ele>75.0</ele><time>2026-03-29T08:44:53.42Z</time></trkpt><trkpt lat="45.2074028" lon="9.0855128"><ele>75.0</ele><time>2026-03-29T08:44:56.401Z</time></trkpt><trkpt lat="45.2073384" lon="9.0854909"><ele>74.42857142857142</ele><time>2026-03-29T08:44:59.408Z</time></trkpt><trkpt lat="45.20729" lon="9.0854248"><ele>73.85714285714286</ele><time>2026-03-29T08:45:02.42Z</time></trkpt><trkpt lat="45.2072287" lon="9.0853462"><ele>73.28571428571428</ele><time>2026-03-29T08:45:06.412Z</time></trkpt><trkpt lat="45.2071941" lon="9.0852606"><ele>72.71428571428571</ele><time>2026-03-29T08:45:10.406Z</time></trkpt><trkpt lat="45.2071881" lon="9.08516"><ele>72.14285714285714</ele><time>2026-03-29T08:45:14.489Z</time></trkpt><trkpt lat="45.2072097" lon="9.0850552"><ele>71.57142857142857</ele><time>2026-03-29T08:45:19.41Z</time></trkpt><trkpt lat="45.2071706" lon="9.0849846"><ele>71.0</ele><time>2026-03-29T08:45:24.425Z</time></trkpt><trkpt lat="45.2071144" lon="9.0849098"><ele>71.0</ele><time>2026-03-29T08:45:29.407Z</time></trkpt><trkpt lat="45.2070412" lon="9.0848506"><ele>71.0</ele><time>2026-03-29T08:45:33.412Z</time></trkpt><trkpt lat="45.2069724" lon="9.0848138"><ele>71.0</ele><time>2026-03-29T08:45:36.408Z</time></trkpt><trkpt lat="45.206916" lon="9.0847339"><ele>71.0</ele><time>2026-03-29T08:45:39.406Z</time></trkpt><trkpt lat="45.2069502" lon="9.0846522"><ele>71.0</ele><time>2026-03-29T08:46:12.404Z</time></trkpt><trkpt lat="45.2070044" lon="9.0846009"><ele>71.0</ele><time>2026-03-29T08:46:16.429Z</time></trkpt><trkpt lat="45.2070222" lon="9.0844975"><ele>71.0</ele><time>2026-03-29T08:46:21.502Z</time></trkpt><trkpt lat="45.2069609" lon="9.0844126"><ele>71.0</ele><time>2026-03-29T08:46:26.425Z</time></trkpt><trkpt lat="45.206935" lon="9.0843284"><ele>71.0</ele><time>2026-03-29T08:46:29.423Z</time></trkpt><trkpt lat="45.2069489" lon="9.084215"><ele>71.0</ele><time>2026-03-29T08:46:32.49Z</time></trkpt><trkpt lat="45.2069811" lon="9.0841335"><ele>71.0</ele><time>2026-03-29T08:46:35.408Z</time></trkpt><trkpt lat="45.2070339" lon="9.0840464"><ele>71.0</ele><time>2026-03-29T08:46:39.426Z</time></trkpt><trkpt lat="45.2070784" lon="9.0839698"><ele>71.0</ele><time>2026-03-29T08:46:43.434Z</time></trkpt><trkpt lat="45.2071112" lon="9.0838903"><ele>71.0</ele><time>2026-03-29T08:46:46.434Z</time></trkpt><trkpt lat="45.2071413" lon="9.0837964"><ele>70.57142857142857</ele><time>2026-03-29T08:46:49.441Z</time></trkpt><trkpt lat="45.2071623" lon="9.0837054"><ele>70.14285714285714</ele><time>2026-03-29T08:46:52.414Z</time></trkpt><trkpt lat="45.2071835" lon="9.083603"><ele>69.71428571428571</ele><time>2026-03-29T08:46:56.432Z</time></trkpt><trkpt lat="45.2072101" lon="9.0835193"><ele>69.28571428571428</ele><time>2026-03-29T08:46:59.422Z</time></trkpt><trkpt lat="45.2072537" lon="9.0834195"><ele>68.85714285714286</ele><time>2026-03-29T08:47:02.421Z</time></trkpt><trkpt lat="45.2072658" lon="9.0833191"><ele>68.42857142857142</ele><time>2026-03-29T08:47:06.406Z</time></trkpt><trkpt lat="45.2072086" lon="9.0832653"><ele>68.0</ele><time>2026-03-29T08:47:10.422Z</time></trkpt><trkpt lat="45.2071815" lon="9.0831808"><ele>67.71428571428571</ele><time>2026-03-29T08:47:13.414Z</time></trkpt><trkpt lat="45.2072213" lon="9.0830994"><ele>67.42857142857143</ele><time>2026-03-29T08:47:16.43Z</time></trkpt><trkpt lat="45.2072616" lon="9.0830184"><ele>67.14285714285714</ele><time>2026-03-29T08:47:20.422Z</time></trkpt><trkpt lat="45.2073039" lon="9.0829332"><ele>66.85714285714286</ele><time>2026-03-29T08:47:25.421Z</time></trkpt><trkpt lat="45.2073447" lon="9.0828633"><ele>66.57142857142857</ele><time>2026-03-29T08:47:28.425Z</time></trkpt><trkpt lat="45.207386" lon="9.0827842"><ele>66.28571428571428</ele><time>2026-03-29T08:47:31.408Z</time></trkpt><trkpt lat="45.2074365" lon="9.0826916"><ele>66.0</ele><time>2026-03-29T08:47:35.424Z</time></trkpt><trkpt lat="45.2074706" lon="9.082602"><ele>67.57142857142857</ele><time>2026-03-29T08:47:38.428Z</time></trkpt><trkpt lat="45.2075136" lon="9.0825111"><ele>69.14285714285714</ele><time>2026-03-29T08:47:41.431Z</time></trkpt><trkpt lat="45.2075533" lon="9.0824246"><ele>70.71428571428572</ele><time>2026-03-29T08:47:44.408Z</time></trkpt><trkpt lat="45.207605" lon="9.0823615"><ele>72.28571428571428</ele><time>2026-03-29T08:47:48.414Z</time></trkpt><trkpt lat="45.2076404" lon="9.0822858"><ele>73.85714285714286</ele><time>2026-03-29T08:47:52.419Z</time></trkpt><trkpt lat="45.2076862" lon="9.0822207"><ele>75.42857142857143</ele><time>2026-03-29T08:47:55.413Z</time></trkpt><trkpt lat="45.2077194" lon="9.0821187"><ele>77.0</ele><time>2026-03-29T08:47:59.402Z</time></trkpt><trkpt lat="45.2077257" lon="9.0820272"><ele>77.0</ele><time>2026-03-29T08:48:04.407Z</time></trkpt><trkpt lat="45.2077407" lon="9.0819281"><ele>77.0</ele><time>2026-03-29T08:48:08.42Z</time></trkpt><trkpt lat="45.2077622" lon="9.0818262"><ele>77.0</ele><time>2026-03-29T08:48:11.424Z</time></trkpt><trkpt lat="45.2077969" lon="9.0817359"><ele>77.0</ele><time>2026-03-29T08:48:16.421Z</time></trkpt><trkpt lat="45.2078257" lon="9.0816426"><ele>77.0</ele><time>2026-03-29T08:48:20.429Z</time></trkpt><trkpt lat="45.2078554" lon="9.0815604"><ele>77.0</ele><time>2026-03-29T08:48:25.419Z</time></trkpt><trkpt lat="45.207851" lon="9.0814666"><ele>77.0</ele><time>2026-03-29T08:48:28.424Z</time></trkpt><trkpt lat="45.2078559" lon="9.0813571"><ele>76.57142857142857</ele><time>2026-03-29T08:48:32.426Z</time></trkpt><trkpt lat="45.2078169" lon="9.0812459"><ele>76.14285714285714</ele><time>2026-03-29T08:48:36.424Z</time></trkpt><trkpt lat="45.2077724" lon="9.0811819"><ele>75.71428571428572</ele><time>2026-03-29T08:48:38.417Z</time></trkpt><trkpt lat="45.2077596" lon="9.0810816"><ele>75.28571428571428</ele><time>2026-03-29T08:48:41.431Z</time></trkpt><trkpt lat="45.2078097" lon="9.0810173"><ele>74.85714285714286</ele><time>2026-03-29T08:48:44.406Z</time></trkpt><trkpt lat="45.2078716" lon="9.0809568"><ele>74.42857142857143</ele><time>2026-03-29T08:48:48.417Z</time></trkpt><trkpt lat="45.2079035" lon="9.0808762"><ele>74.0</ele><time>2026-03-29T08:48:51.415Z</time></trkpt><trkpt lat="45.2079372" lon="9.0807749"><ele>73.57142857142857</ele><time>2026-03-29T08:48:55.431Z</time></trkpt><trkpt lat="45.2079616" lon="9.0806769"><ele>73.14285714285714</ele><time>2026-03-29T08:49:00.477Z</time></trkpt><trkpt lat="45.2079935" lon="9.0805842"><ele>72.71428571428571</ele><time>2026-03-29T08:49:04.428Z</time></trkpt><trkpt lat="45.2080245" lon="9.0804796"><ele>72.28571428571428</ele><time>2026-03-29T08:49:08.435Z</time></trkpt><trkpt lat="45.208042" lon="9.080393"><ele>71.85714285714285</ele><time>2026-03-29T08:49:11.421Z</time></trkpt><trkpt lat="45.2080002" lon="9.0802917"><ele>71.42857142857143</ele><time>2026-03-29T08:49:14.419Z</time></trkpt><trkpt lat="45.2079488" lon="9.0802132"><ele>71.0</ele><time>2026-03-29T08:49:17.426Z</time></trkpt><trkpt lat="45.2079003" lon="9.0801289"><ele>71.0</ele><time>2026-03-29T08:49:21.425Z</time></trkpt><trkpt lat="45.2078538" lon="9.0800676"><ele>71.0</ele><time>2026-03-29T08:49:24.426Z</time></trkpt><trkpt lat="45.2078186" lon="9.0799878"><ele>71.0</ele><time>2026-03-29T08:49:27.433Z</time></trkpt><trkpt lat="45.2077832" lon="9.079908"><ele>71.0</ele><time>2026-03-29T08:49:30.424Z</time></trkpt><trkpt lat="45.2077406" lon="9.0798284"><ele>71.0</ele><time>2026-03-29T08:49:34.43Z</time></trkpt><trkpt lat="45.2077085" lon="9.0797471"><ele>71.0</ele><time>2026-03-29T08:49:37.51Z</time></trkpt><trkpt lat="45.2076553" lon="9.079687"><ele>71.0</ele><time>2026-03-29T08:49:40.429Z</time></trkpt><trkpt lat="45.20761" lon="9.079624"><ele>69.83333333333334</ele><time>2026-03-29T08:49:43.415Z</time></trkpt><trkpt lat="45.2075191" lon="9.0796208"><ele>68.66666666666667</ele><time>2026-03-29T08:49:46.422Z</time></trkpt><trkpt lat="45.2074483" lon="9.0795967"><ele>67.5</ele><time>2026-03-29T08:49:48.423Z</time></trkpt><trkpt lat="45.2073822" lon="9.0795663"><ele>66.33333333333333</ele><time>2026-03-29T08:49:50.492Z</time></trkpt><trkpt lat="45.2073167" lon="9.0795259"><ele>65.16666666666666</ele><time>2026-03-29T08:49:52.423Z</time></trkpt><trkpt lat="45.2072463" lon="9.0794737"><ele>64.0</ele><time>2026-03-29T08:49:54.409Z</time></trkpt><trkpt lat="45.2071752" lon="9.0794215"><ele>63.857142857142854</ele><time>2026-03-29T08:49:56.41Z</time></trkpt><trkpt lat="45.2071156" lon="9.0793729"><ele>63.71428571428571</ele><time>2026-03-29T08:49:58.41Z</time></trkpt><trkpt lat="45.2070543" lon="9.079338"><ele>63.57142857142857</ele><time>2026-03-29T08:50:00.41Z</time></trkpt><trkpt lat="45.2069904" lon="9.0793011"><ele>63.42857142857143</ele><time>2026-03-29T08:50:02.419Z</time></trkpt><trkpt lat="45.2069218" lon="9.0792623"><ele>63.285714285714285</ele><time>2026-03-29T08:50:04.401Z</time></trkpt><trkpt lat="45.2068507" lon="9.079222"><ele>63.14285714285714</ele><time>2026-03-29T08:50:06.409Z</time></trkpt><trkpt lat="45.2067759" lon="9.0791803"><ele>63.0</ele><time>2026-03-29T08:50:08.412Z</time></trkpt><trkpt lat="45.206719" lon="9.079139"><ele>63.0</ele><time>2026-03-29T08:50:09.411Z</time></trkpt><trkpt lat="45.2066446" lon="9.0791164"><ele>63.0</ele><time>2026-03-29T08:50:11.414Z</time></trkpt><trkpt lat="45.2065819" lon="9.0790982"><ele>63.0</ele><time>2026-03-29T08:50:13.414Z</time></trkpt><trkpt lat="45.2065044" lon="9.0790848"><ele>63.0</ele><time>2026-03-29T08:50:16.485Z</time></trkpt><trkpt lat="45.2064406" lon="9.0791213"><ele>63.0</ele><time>2026-03-29T08:50:19.41Z</time></trkpt><trkpt lat="45.2063748" lon="9.0791984"><ele>63.0</ele><time>2026-03-29T08:50:22.409Z</time></trkpt><trkpt lat="45.2063355" lon="9.0792823"><ele>63.0</ele><time>2026-03-29T08:50:25.408Z</time></trkpt><trkpt lat="45.2063184" lon="9.0793772"><ele>63.166666666666664</ele><time>2026-03-29T08:50:28.477Z</time></trkpt><trkpt lat="45.2063122" lon="9.0795003"><ele>63.33333333333333</ele><time>2026-03-29T08:50:31.407Z</time></trkpt><trkpt lat="45.2062945" lon="9.0796365"><ele>63.5</ele><time>2026-03-29T08:50:34.417Z</time></trkpt><trkpt lat="45.2062598" lon="9.0797454"><ele>63.666666666666664</ele><time>2026-03-29T08:50:37.408Z</time></trkpt><trkpt lat="45.2062027" lon="9.079801"><ele>63.83333333333333</ele><time>2026-03-29T08:50:40.406Z</time></trkpt><trkpt lat="45.2061232" lon="9.0797831"><ele>64.0</ele><time>2026-03-29T08:50:43.41Z</time></trkpt><trkpt lat="45.2060495" lon="9.0797846"><ele>63.99999999999999</ele><time>2026-03-29T08:50:46.4Z</time></trkpt><trkpt lat="45.2059644" lon="9.0797782"><ele>64.0</ele><time>2026-03-29T08:50:50.423Z</time></trkpt><trkpt lat="45.2058794" lon="9.0797778"><ele>64.0</ele><time>2026-03-29T08:50:53.408Z</time></trkpt><trkpt lat="45.2058039" lon="9.0797756"><ele>64.0</ele><time>2026-03-29T08:50:55.407Z</time></trkpt><trkpt lat="45.2057387" lon="9.0797834"><ele>63.99999999999999</ele><time>2026-03-29T08:50:57.405Z</time></trkpt><trkpt lat="45.2056746" lon="9.0797736"><ele>64.0</ele><time>2026-03-29T08:50:59.411Z</time></trkpt><trkpt lat="45.2055847" lon="9.0797591"><ele>63.49999999999999</ele><time>2026-03-29T08:51:02.415Z</time></trkpt><trkpt lat="45.205496" lon="9.0797461"><ele>63.0</ele><time>2026-03-29T08:51:05.408Z</time></trkpt><trkpt lat="45.2054262" lon="9.0797292"><ele>62.5</ele><time>2026-03-29T08:51:08.41Z</time></trkpt><trkpt lat="45.205346" lon="9.0797277"><ele>62.0</ele><time>2026-03-29T08:51:11.416Z</time></trkpt><trkpt lat="45.2052759" lon="9.0797476"><ele>61.49999999999999</ele><time>2026-03-29T08:51:14.406Z</time></trkpt><trkpt lat="45.2051889" lon="9.0797403"><ele>61.0</ele><time>2026-03-29T08:51:17.408Z</time></trkpt><trkpt lat="45.2051197" lon="9.0797402"><ele>60.99999999999999</ele><time>2026-03-29T08:51:19.411Z</time></trkpt><trkpt lat="45.2050246" lon="9.0797133"><ele>61.0</ele><time>2026-03-29T08:51:22.401Z</time></trkpt><trkpt lat="45.2049509" lon="9.079689"><ele>61.0</ele><time>2026-03-29T08:51:24.403Z</time></trkpt><trkpt lat="45.204874" lon="9.0796913"><ele>61.0</ele><time>2026-03-29T08:51:27.409Z</time></trkpt><trkpt lat="45.2047898" lon="9.0796865"><ele>60.99999999999999</ele><time>2026-03-29T08:51:31.49Z</time></trkpt><trkpt lat="45.2047213" lon="9.0796809"><ele>61.0</ele><time>2026-03-29T08:51:33.407Z</time></trkpt><trkpt lat="45.2046285" lon="9.0796688"><ele>60.83333333333333</ele><time>2026-03-29T08:51:36.41Z</time></trkpt><trkpt lat="45.2045435" lon="9.0796824"><ele>60.666666666666664</ele><time>2026-03-29T08:51:39.415Z</time></trkpt><trkpt lat="45.2044522" lon="9.0796825"><ele>60.5</ele><time>2026-03-29T08:51:42.415Z</time></trkpt><trkpt lat="45.20438" lon="9.0796697"><ele>60.33333333333333</ele><time>2026-03-29T08:51:44.419Z</time></trkpt><trkpt lat="45.2042902" lon="9.0796602"><ele>60.166666666666664</ele><time>2026-03-29T08:51:47.403Z</time></trkpt><trkpt lat="45.2042195" lon="9.0796341"><ele>60.0</ele><time>2026-03-29T08:51:50.398Z</time></trkpt><trkpt lat="45.2041563" lon="9.0796181"><ele>60.0</ele><time>2026-03-29T08:51:52.407Z</time></trkpt><trkpt lat="45.2040927" lon="9.0795976"><ele>60.0</ele><time>2026-03-29T08:51:54.408Z</time></trkpt><trkpt lat="45.2040147" lon="9.0795913"><ele>60.0</ele><time>2026-03-29T08:51:57.42Z</time></trkpt><trkpt lat="45.2039391" lon="9.0795951"><ele>60.0</ele><time>2026-03-29T08:52:00.408Z</time></trkpt><trkpt lat="45.2038508" lon="9.0795918"><ele>60.0</ele><time>2026-03-29T08:52:03.409Z</time></trkpt><trkpt lat="45.2037567" lon="9.079571"><ele>60.0</ele><time>2026-03-29T08:52:06.412Z</time></trkpt><trkpt lat="45.2036797" lon="9.0795682"><ele>60.0</ele><time>2026-03-29T08:52:09.492Z</time></trkpt><trkpt lat="45.2036" lon="9.079557"><ele>60.0</ele><time>2026-03-29T08:52:12.413Z</time></trkpt><trkpt lat="45.2035359" lon="9.0795446"><ele>60.0</ele><time>2026-03-29T08:52:14.399Z</time></trkpt><trkpt lat="45.2034686" lon="9.0795316"><ele>60.0</ele><time>2026-03-29T08:52:16.41Z</time></trkpt><trkpt lat="45.2034042" lon="9.0795182"><ele>60.0</ele><time>2026-03-29T08:52:18.415Z</time></trkpt><trkpt lat="45.203318" lon="9.0795257"><ele>60.0</ele><time>2026-03-29T08:52:21.409Z</time></trkpt><trkpt lat="45.2032456" lon="9.0795469"><ele>60.0</ele><time>2026-03-29T08:52:24.407Z</time></trkpt><trkpt lat="45.2031781" lon="9.0795567"><ele>60.166666666666664</ele><time>2026-03-29T08:52:26.405Z</time></trkpt><trkpt lat="45.2030797" lon="9.0795615"><ele>60.33333333333333</ele><time>2026-03-29T08:52:28.409Z</time></trkpt><trkpt lat="45.2030151" lon="9.0795503"><ele>60.5</ele><time>2026-03-29T08:52:29.423Z</time></trkpt><trkpt lat="45.2029113" lon="9.0795395"><ele>60.666666666666664</ele><time>2026-03-29T08:52:31.411Z</time></trkpt><trkpt lat="45.2028421" lon="9.0795405"><ele>60.83333333333333</ele><time>2026-03-29T08:52:34.418Z</time></trkpt><trkpt lat="45.202776" lon="9.0795485"><ele>61.0</ele><time>2026-03-29T08:52:36.412Z</time></trkpt><trkpt lat="45.2027116" lon="9.0795508"><ele>60.99999999999999</ele><time>2026-03-29T08:52:38.408Z</time></trkpt><trkpt lat="45.2026225" lon="9.0795348"><ele>61.0</ele><time>2026-03-29T08:52:41.402Z</time></trkpt><trkpt lat="45.202557" lon="9.0795253"><ele>60.99999999999999</ele><time>2026-03-29T08:52:43.399Z</time></trkpt><trkpt lat="45.2024873" lon="9.0795229"><ele>60.99999999999999</ele><time>2026-03-29T08:52:45.41Z</time></trkpt><trkpt lat="45.2024212" lon="9.079521"><ele>61.0</ele><time>2026-03-29T08:52:47.489Z</time></trkpt><trkpt lat="45.2023536" lon="9.079513"><ele>60.99999999999999</ele><time>2026-03-29T08:52:49.415Z</time></trkpt><trkpt lat="45.2022669" lon="9.0795123"><ele>60.99999999999999</ele><time>2026-03-29T08:52:52.411Z</time></trkpt><trkpt lat="45.202176" lon="9.0795248"><ele>60.83333333333333</ele><time>2026-03-29T08:52:55.4Z</time></trkpt><trkpt lat="45.2021043" lon="9.0795111"><ele>60.666666666666664</ele><time>2026-03-29T08:52:57.405Z</time></trkpt><trkpt lat="45.2020176" lon="9.0794797"><ele>60.5</ele><time>2026-03-29T08:53:00.417Z</time></trkpt><trkpt lat="45.2019507" lon="9.0794578"><ele>60.33333333333333</ele><time>2026-03-29T08:53:02.403Z</time></trkpt><trkpt lat="45.2018752" lon="9.0794291"><ele>60.166666666666664</ele><time>2026-03-29T08:53:04.409Z</time></trkpt><trkpt lat="45.2018086" lon="9.0794133"><ele>60.0</ele><time>2026-03-29T08:53:06.403Z</time></trkpt><trkpt lat="45.2017133" lon="9.0793833"><ele>60.0</ele><time>2026-03-29T08:53:09.41Z</time></trkpt><trkpt lat="45.2016469" lon="9.0793613"><ele>60.0</ele><time>2026-03-29T08:53:11.422Z</time></trkpt><trkpt lat="45.201583" lon="9.0793461"><ele>60.0</ele><time>2026-03-29T08:53:13.403Z</time></trkpt><trkpt lat="45.2014935" lon="9.0793185"><ele>60.0</ele><time>2026-03-29T08:53:16.426Z</time></trkpt><trkpt lat="45.2014093" lon="9.0792852"><ele>60.0</ele><time>2026-03-29T08:53:19.402Z</time></trkpt><trkpt lat="45.2013265" lon="9.0792522"><ele>60.0</ele><time>2026-03-29T08:53:22.407Z</time></trkpt><trkpt lat="45.2012471" lon="9.0791886"><ele>60.333333333333336</ele><time>2026-03-29T08:53:25.413Z</time></trkpt><trkpt lat="45.2011848" lon="9.0792249"><ele>60.66666666666667</ele><time>2026-03-29T08:53:28.406Z</time></trkpt><trkpt lat="45.2011205" lon="9.0792955"><ele>61.0</ele><time>2026-03-29T08:53:31.42Z</time></trkpt><trkpt lat="45.2010845" lon="9.0793824"><ele>61.333333333333336</ele><time>2026-03-29T08:53:34.406Z</time></trkpt><trkpt lat="45.200999" lon="9.0794498"><ele>61.66666666666667</ele><time>2026-03-29T08:53:37.403Z</time></trkpt><trkpt lat="45.2009142" lon="9.07945"><ele>62.0</ele><time>2026-03-29T08:53:39.408Z</time></trkpt><trkpt lat="45.200846" lon="9.0794778"><ele>62.0</ele><time>2026-03-29T08:53:41.411Z</time></trkpt><trkpt lat="45.2007739" lon="9.079478"><ele>62.00000000000001</ele><time>2026-03-29T08:53:43.416Z</time></trkpt><trkpt lat="45.2007114" lon="9.0794597"><ele>62.0</ele><time>2026-03-29T08:53:45.41Z</time></trkpt><trkpt lat="45.2006634" lon="9.0793977"><ele>62.0</ele><time>2026-03-29T08:53:47.489Z</time></trkpt><trkpt lat="45.2006511" lon="9.0792822"><ele>62.00000000000001</ele><time>2026-03-29T08:53:50.404Z</time></trkpt><trkpt lat="45.2006664" lon="9.0791836"><ele>62.0</ele><time>2026-03-29T08:53:53.405Z</time></trkpt><trkpt lat="45.2007136" lon="9.0791087"><ele>62.0</ele><time>2026-03-29T08:53:56.398Z</time></trkpt><trkpt lat="45.2006878" lon="9.0790265"><ele>61.50000000000001</ele><time>2026-03-29T08:54:00.435Z</time></trkpt><trkpt lat="45.2006133" lon="9.0789919"><ele>61.0</ele><time>2026-03-29T08:54:03.406Z</time></trkpt><trkpt lat="45.2005556" lon="9.0789248"><ele>60.5</ele><time>2026-03-29T08:54:05.412Z</time></trkpt><trkpt lat="45.2004718" lon="9.0788759"><ele>60.0</ele><time>2026-03-29T08:54:09.417Z</time></trkpt><trkpt lat="45.2003847" lon="9.078843"><ele>59.50000000000001</ele><time>2026-03-29T08:54:12.404Z</time></trkpt><trkpt lat="45.2003293" lon="9.0787977"><ele>59.0</ele><time>2026-03-29T08:54:15.4Z</time></trkpt><trkpt lat="45.2002546" lon="9.0788178"><ele>59.00000000000001</ele><time>2026-03-29T08:54:18.406Z</time></trkpt><trkpt lat="45.2001669" lon="9.0787898"><ele>59.0</ele><time>2026-03-29T08:54:21.4Z</time></trkpt><trkpt lat="45.2000942" lon="9.0787759"><ele>59.0</ele><time>2026-03-29T08:54:24.412Z</time></trkpt><trkpt lat="45.2000156" lon="9.0787447"><ele>59.0</ele><time>2026-03-29T08:54:27.411Z</time></trkpt><trkpt lat="45.1999523" lon="9.0787188"><ele>59.00000000000001</ele><time>2026-03-29T08:54:29.411Z</time></trkpt><trkpt lat="45.199882" lon="9.0786858"><ele>59.0</ele><time>2026-03-29T08:54:31.412Z</time></trkpt><trkpt lat="45.1998054" lon="9.0786504"><ele>59.00000000000001</ele><time>2026-03-29T08:54:34.415Z</time></trkpt><trkpt lat="45.199733" lon="9.0786029"><ele>59.0</ele><time>2026-03-29T08:54:37.408Z</time></trkpt><trkpt lat="45.1996473" lon="9.0785659"><ele>59.0</ele><time>2026-03-29T08:54:40.405Z</time></trkpt><trkpt lat="45.19956" lon="9.0785667"><ele>59.0</ele><time>2026-03-29T08:54:43.483Z</time></trkpt><trkpt lat="45.199477" lon="9.0785383"><ele>59.00000000000001</ele><time>2026-03-29T08:54:46.403Z</time></trkpt><trkpt lat="45.1993925" lon="9.0784998"><ele>59.0</ele><time>2026-03-29T08:54:49.406Z</time></trkpt><trkpt lat="45.19931" lon="9.0784856"><ele>59.00000000000001</ele><time>2026-03-29T08:54:52.414Z</time></trkpt><trkpt lat="45.1992145" lon="9.078453"><ele>59.0</ele><time>2026-03-29T08:54:55.403Z</time></trkpt><trkpt lat="45.1991532" lon="9.0784155"><ele>59.0</ele><time>2026-03-29T08:54:57.405Z</time></trkpt><trkpt lat="45.1990685" lon="9.078362"><ele>59.0</ele><time>2026-03-29T08:55:00.413Z</time></trkpt><trkpt lat="45.1990054" lon="9.0783356"><ele>59.00000000000001</ele><time>2026-03-29T08:55:02.402Z</time></trkpt><trkpt lat="45.198928" lon="9.0783076"><ele>59.0</ele><time>2026-03-29T08:55:05.404Z</time></trkpt><trkpt lat="45.1988487" lon="9.0783002"><ele>58.66666666666667</ele><time>2026-03-29T08:55:08.401Z</time></trkpt><trkpt lat="45.1987813" lon="9.0782424"><ele>58.333333333333336</ele><time>2026-03-29T08:55:12.416Z</time></trkpt><trkpt lat="45.1987038" lon="9.0782045"><ele>58.0</ele><time>2026-03-29T08:55:15.404Z</time></trkpt><trkpt lat="45.1986373" lon="9.0781782"><ele>57.66666666666667</ele><time>2026-03-29T08:55:17.424Z</time></trkpt><trkpt lat="45.198551" lon="9.0781535"><ele>57.333333333333336</ele><time>2026-03-29T08:55:20.406Z</time></trkpt><trkpt lat="45.1984626" lon="9.0781277"><ele>57.0</ele><time>2026-03-29T08:55:23.405Z</time></trkpt><trkpt lat="45.1984005" lon="9.0781118"><ele>57.0</ele><time>2026-03-29T08:55:25.408Z</time></trkpt><trkpt lat="45.1983315" lon="9.0780867"><ele>57.0</ele><time>2026-03-29T08:55:27.409Z</time></trkpt><trkpt lat="45.19824" lon="9.0780569"><ele>57.0</ele><time>2026-03-29T08:55:30.411Z</time></trkpt><trkpt lat="45.1981609" lon="9.0780333"><ele>57.0</ele><time>2026-03-29T08:55:33.411Z</time></trkpt><trkpt lat="45.1980859" lon="9.0780142"><ele>57.0</ele><time>2026-03-29T08:55:36.404Z</time></trkpt><trkpt lat="45.198014" lon="9.078021"><ele>57.0</ele><time>2026-03-29T08:55:39.406Z</time></trkpt><trkpt lat="45.1979351" lon="9.0779793"><ele>56.857142857142854</ele><time>2026-03-29T08:55:42.393Z</time></trkpt><trkpt lat="45.197865" lon="9.0779859"><ele>56.71428571428571</ele><time>2026-03-29T08:55:45.408Z</time></trkpt><trkpt lat="45.1977917" lon="9.0779884"><ele>56.57142857142857</ele><time>2026-03-29T08:55:47.411Z</time></trkpt><trkpt lat="45.1977254" lon="9.0779742"><ele>56.42857142857143</ele><time>2026-03-29T08:55:49.414Z</time></trkpt><trkpt lat="45.1976573" lon="9.0779607"><ele>56.285714285714285</ele><time>2026-03-29T08:55:51.406Z</time></trkpt><trkpt lat="45.1975706" lon="9.0779586"><ele>56.14285714285714</ele><time>2026-03-29T08:55:54.407Z</time></trkpt><trkpt lat="45.1975168" lon="9.0780478"><ele>56.0</ele><time>2026-03-29T08:55:57.406Z</time></trkpt><trkpt lat="45.1974581" lon="9.0780837"><ele>56.00000000000001</ele><time>2026-03-29T08:55:59.483Z</time></trkpt><trkpt lat="45.1973853" lon="9.0780739"><ele>56.0</ele><time>2026-03-29T08:56:01.498Z</time></trkpt><trkpt lat="45.1972906" lon="9.0780578"><ele>56.0</ele><time>2026-03-29T08:56:04.404Z</time></trkpt><trkpt lat="45.1971933" lon="9.0780506"><ele>56.0</ele><time>2026-03-29T08:56:07.404Z</time></trkpt><trkpt lat="45.1971251" lon="9.0780414"><ele>56.00000000000001</ele><time>2026-03-29T08:56:09.407Z</time></trkpt><trkpt lat="45.197059" lon="9.0780326"><ele>56.0</ele><time>2026-03-29T08:56:11.406Z</time></trkpt><trkpt lat="45.1969863" lon="9.0780077"><ele>55.857142857142854</ele><time>2026-03-29T08:56:13.411Z</time></trkpt><trkpt lat="45.1969168" lon="9.0779971"><ele>55.714285714285715</ele><time>2026-03-29T08:56:15.415Z</time></trkpt><trkpt lat="45.1968418" lon="9.0779839"><ele>55.57142857142857</ele><time>2026-03-29T08:56:17.405Z</time></trkpt><trkpt lat="45.1967669" lon="9.0779822"><ele>55.42857142857143</ele><time>2026-03-29T08:56:19.404Z</time></trkpt><trkpt lat="45.1967046" lon="9.0780583"><ele>55.285714285714285</ele><time>2026-03-29T08:56:22.41Z</time></trkpt><trkpt lat="45.1966535" lon="9.0781356"><ele>55.14285714285714</ele><time>2026-03-29T08:56:25.483Z</time></trkpt><trkpt lat="45.1966441" lon="9.0782358"><ele>55.0</ele><time>2026-03-29T08:56:28.405Z</time></trkpt><trkpt lat="45.1966314" lon="9.0783655"><ele>55.57142857142857</ele><time>2026-03-29T08:56:31.41Z</time></trkpt><trkpt lat="45.1966231" lon="9.0784722"><ele>56.14285714285714</ele><time>2026-03-29T08:56:33.404Z</time></trkpt><trkpt lat="45.1966165" lon="9.0785643"><ele>56.71428571428571</ele><time>2026-03-29T08:56:35.404Z</time></trkpt><trkpt lat="45.1966006" lon="9.0786615"><ele>57.285714285714285</ele><time>2026-03-29T08:56:37.492Z</time></trkpt><trkpt lat="45.1965782" lon="9.0787649"><ele>57.85714285714286</ele><time>2026-03-29T08:56:39.411Z</time></trkpt><trkpt lat="45.1965276" lon="9.0788386"><ele>58.42857142857142</ele><time>2026-03-29T08:56:41.415Z</time></trkpt><trkpt lat="45.1964466" lon="9.078807"><ele>59.0</ele><time>2026-03-29T08:56:44.404Z</time></trkpt><trkpt lat="45.1963875" lon="9.0788791"><ele>59.0</ele><time>2026-03-29T08:56:47.409Z</time></trkpt><trkpt lat="45.1963281" lon="9.0789669"><ele>59.0</ele><time>2026-03-29T08:56:50.485Z</time></trkpt><trkpt lat="45.1962684" lon="9.0790136"><ele>59.0</ele><time>2026-03-29T08:56:53.411Z</time></trkpt><trkpt lat="45.1962059" lon="9.0789525"><ele>59.0</ele><time>2026-03-29T08:56:56.409Z</time></trkpt><trkpt lat="45.1961453" lon="9.0789056"><ele>59.0</ele><time>2026-03-29T08:56:58.413Z</time></trkpt><trkpt lat="45.1960765" lon="9.0789176"><ele>59.0</ele><time>2026-03-29T08:57:00.421Z</time></trkpt><trkpt lat="45.1960128" lon="9.078908"><ele>59.0</ele><time>2026-03-29T08:57:02.415Z</time></trkpt><trkpt lat="45.1959495" lon="9.0788892"><ele>59.0</ele><time>2026-03-29T08:57:04.492Z</time></trkpt><trkpt lat="45.1958875" lon="9.078864"><ele>59.0</ele><time>2026-03-29T08:57:06.412Z</time></trkpt><trkpt lat="45.1958207" lon="9.078835"><ele>59.0</ele><time>2026-03-29T08:57:08.41Z</time></trkpt><trkpt lat="45.1957488" lon="9.0788084"><ele>59.0</ele><time>2026-03-29T08:57:10.41Z</time></trkpt><trkpt lat="45.1956822" lon="9.0788413"><ele>59.0</ele><time>2026-03-29T08:57:13.401Z</time></trkpt><trkpt lat="45.1956113" lon="9.0788396"><ele>59.0</ele><time>2026-03-29T08:57:16.416Z</time></trkpt><trkpt lat="45.1955245" lon="9.0788619"><ele>59.0</ele><time>2026-03-29T08:57:19.416Z</time></trkpt><trkpt lat="45.1954552" lon="9.078907"><ele>59.14285714285714</ele><time>2026-03-29T08:57:21.409Z</time></trkpt><trkpt lat="45.1953918" lon="9.0789681"><ele>59.28571428571429</ele><time>2026-03-29T08:57:24.401Z</time></trkpt><trkpt lat="45.1953372" lon="9.0790318"><ele>59.42857142857143</ele><time>2026-03-29T08:57:28.399Z</time></trkpt><trkpt lat="45.1952696" lon="9.0790321"><ele>59.57142857142857</ele><time>2026-03-29T08:57:33.406Z</time></trkpt><trkpt lat="45.1952014" lon="9.0790596"><ele>59.71428571428571</ele><time>2026-03-29T08:57:37.403Z</time></trkpt><trkpt lat="45.1951076" lon="9.0790586"><ele>59.85714285714286</ele><time>2026-03-29T08:57:41.491Z</time></trkpt><trkpt lat="45.195042" lon="9.079077"><ele>60.0</ele><time>2026-03-29T08:57:43.418Z</time></trkpt><trkpt lat="45.1949747" lon="9.0790822"><ele>60.0</ele><time>2026-03-29T08:57:45.407Z</time></trkpt><trkpt lat="45.1948971" lon="9.0790173"><ele>60.0</ele><time>2026-03-29T08:57:48.398Z</time></trkpt><trkpt lat="45.1948301" lon="9.0790143"><ele>60.0</ele><time>2026-03-29T08:57:50.412Z</time></trkpt><trkpt lat="45.1947539" lon="9.0790287"><ele>60.0</ele><time>2026-03-29T08:57:52.412Z</time></trkpt><trkpt lat="45.1946688" lon="9.0790639"><ele>60.0</ele><time>2026-03-29T08:57:54.406Z</time></trkpt><trkpt lat="45.1946108" lon="9.0791256"><ele>60.0</ele><time>2026-03-29T08:57:56.416Z</time></trkpt><trkpt lat="45.1945456" lon="9.0791697"><ele>59.833333333333336</ele><time>2026-03-29T08:57:58.409Z</time></trkpt><trkpt lat="45.1944612" lon="9.0791711"><ele>59.66666666666667</ele><time>2026-03-29T08:58:00.409Z</time></trkpt><trkpt lat="45.1943643" lon="9.0791343"><ele>59.5</ele><time>2026-03-29T08:58:02.404Z</time></trkpt><trkpt lat="45.194302" lon="9.0790785"><ele>59.333333333333336</ele><time>2026-03-29T08:58:04.399Z</time></trkpt><trkpt lat="45.1942319" lon="9.0790552"><ele>59.16666666666667</ele><time>2026-03-29T08:58:06.402Z</time></trkpt><trkpt lat="45.1941653" lon="9.0790539"><ele>59.0</ele><time>2026-03-29T08:58:08.408Z</time></trkpt><trkpt lat="45.1941008" lon="9.0790877"><ele>59.0</ele><time>2026-03-29T08:58:10.402Z</time></trkpt><trkpt lat="45.1940453" lon="9.0791587"><ele>59.0</ele><time>2026-03-29T08:58:12.407Z</time></trkpt><trkpt lat="45.1939866" lon="9.0792152"><ele>59.0</ele><time>2026-03-29T08:58:14.405Z</time></trkpt><trkpt lat="45.1939222" lon="9.0792725"><ele>59.0</ele><time>2026-03-29T08:58:16.412Z</time></trkpt><trkpt lat="45.193861" lon="9.079337"><ele>59.0</ele><time>2026-03-29T08:58:18.408Z</time></trkpt><trkpt lat="45.1938009" lon="9.0793926"><ele>59.0</ele><time>2026-03-29T08:58:20.411Z</time></trkpt><trkpt lat="45.1937358" lon="9.0794568"><ele>59.0</ele><time>2026-03-29T08:58:23.407Z</time></trkpt><trkpt lat="45.1936619" lon="9.0795466"><ele>59.00000000000001</ele><time>2026-03-29T08:58:26.402Z</time></trkpt><trkpt lat="45.1936019" lon="9.079617"><ele>59.0</ele><time>2026-03-29T08:58:28.399Z</time></trkpt><trkpt lat="45.193537" lon="9.079703"><ele>59.0</ele><time>2026-03-29T08:58:30.408Z</time></trkpt><trkpt lat="45.1934738" lon="9.0797634"><ele>59.0</ele><time>2026-03-29T08:58:32.409Z</time></trkpt><trkpt lat="45.1933986" lon="9.0798387"><ele>59.00000000000001</ele><time>2026-03-29T08:58:35.409Z</time></trkpt><trkpt lat="45.1933428" lon="9.0798974"><ele>59.0</ele><time>2026-03-29T08:58:37.404Z</time></trkpt><trkpt lat="45.1932724" lon="9.0799424"><ele>59.14285714285714</ele><time>2026-03-29T08:58:39.397Z</time></trkpt><trkpt lat="45.1932151" lon="9.080001"><ele>59.28571428571429</ele><time>2026-03-29T08:58:41.406Z</time></trkpt><trkpt lat="45.1931579" lon="9.0800607"><ele>59.42857142857143</ele><time>2026-03-29T08:58:43.404Z</time></trkpt><trkpt lat="45.1931083" lon="9.0801229"><ele>59.57142857142857</ele><time>2026-03-29T08:58:45.412Z</time></trkpt><trkpt lat="45.1930507" lon="9.0801941"><ele>59.71428571428571</ele><time>2026-03-29T08:58:47.416Z</time></trkpt><trkpt lat="45.1929949" lon="9.0802542"><ele>59.85714285714286</ele><time>2026-03-29T08:58:49.417Z</time></trkpt><trkpt lat="45.1929195" lon="9.0803284"><ele>60.0</ele><time>2026-03-29T08:58:52.408Z</time></trkpt><trkpt lat="45.1928479" lon="9.0804025"><ele>60.0</ele><time>2026-03-29T08:58:55.4Z</time></trkpt><trkpt lat="45.1927967" lon="9.0804695"><ele>60.0</ele><time>2026-03-29T08:58:57.4Z</time></trkpt><trkpt lat="45.1927466" lon="9.0805368"><ele>60.0</ele><time>2026-03-29T08:58:59.402Z</time></trkpt><trkpt lat="45.1926935" lon="9.0805897"><ele>60.0</ele><time>2026-03-29T08:59:01.397Z</time></trkpt><trkpt lat="45.1926458" lon="9.0806507"><ele>60.0</ele><time>2026-03-29T08:59:03.403Z</time></trkpt><trkpt lat="45.1925843" lon="9.0807342"><ele>60.0</ele><time>2026-03-29T08:59:06.409Z</time></trkpt><trkpt lat="45.192524" lon="9.0808222"><ele>60.0</ele><time>2026-03-29T08:59:09.401Z</time></trkpt><trkpt lat="45.1924539" lon="9.0809052"><ele>59.5</ele><time>2026-03-29T08:59:12.405Z</time></trkpt><trkpt lat="45.1923934" lon="9.0809864"><ele>59.0</ele><time>2026-03-29T08:59:15.413Z</time></trkpt><trkpt lat="45.1923415" lon="9.0810773"><ele>58.5</ele><time>2026-03-29T08:59:17.403Z</time></trkpt><trkpt lat="45.1922904" lon="9.0811522"><ele>58.0</ele><time>2026-03-29T08:59:19.394Z</time></trkpt><trkpt lat="45.1922368" lon="9.0812476"><ele>57.5</ele><time>2026-03-29T08:59:22.409Z</time></trkpt><trkpt lat="45.1922241" lon="9.0813604"><ele>57.0</ele><time>2026-03-29T08:59:25.479Z</time></trkpt><trkpt lat="45.1922195" lon="9.0814519"><ele>57.0</ele><time>2026-03-29T08:59:27.408Z</time></trkpt><trkpt lat="45.1921983" lon="9.0815701"><ele>57.0</ele><time>2026-03-29T08:59:30.403Z</time></trkpt><trkpt lat="45.1922162" lon="9.081684"><ele>57.0</ele><time>2026-03-29T08:59:33.4Z</time></trkpt><trkpt lat="45.1922472" lon="9.0817947"><ele>57.0</ele><time>2026-03-29T08:59:36.403Z</time></trkpt><trkpt lat="45.1922613" lon="9.0819196"><ele>57.0</ele><time>2026-03-29T08:59:39.401Z</time></trkpt><trkpt lat="45.1922826" lon="9.0820335"><ele>57.0</ele><time>2026-03-29T08:59:42.404Z</time></trkpt><trkpt lat="45.192319" lon="9.0821417"><ele>57.166666666666664</ele><time>2026-03-29T08:59:45.404Z</time></trkpt><trkpt lat="45.1923476" lon="9.0822414"><ele>57.33333333333333</ele><time>2026-03-29T08:59:48.48Z</time></trkpt><trkpt lat="45.1923311" lon="9.0823823"><ele>57.5</ele><time>2026-03-29T08:59:51.48Z</time></trkpt><trkpt lat="45.1923093" lon="9.0825045"><ele>57.666666666666664</ele><time>2026-03-29T08:59:54.405Z</time></trkpt><trkpt lat="45.1922967" lon="9.0826007"><ele>57.83333333333333</ele><time>2026-03-29T08:59:57.405Z</time></trkpt><trkpt lat="45.1922849" lon="9.0826957"><ele>58.0</ele><time>2026-03-29T08:59:59.407Z</time></trkpt><trkpt lat="45.1922745" lon="9.0828132"><ele>58.00000000000001</ele><time>2026-03-29T09:00:02.402Z</time></trkpt><trkpt lat="45.1921989" lon="9.0828965"><ele>58.0</ele><time>2026-03-29T09:00:05.411Z</time></trkpt><trkpt lat="45.192153" lon="9.0829583"><ele>58.00000000000001</ele><time>2026-03-29T09:00:07.407Z</time></trkpt><trkpt lat="45.1921653" lon="9.0830634"><ele>58.00000000000001</ele><time>2026-03-29T09:00:10.404Z</time></trkpt><trkpt lat="45.192208" lon="9.0831352"><ele>58.0</ele><time>2026-03-29T09:00:13.408Z</time></trkpt><trkpt lat="45.1922717" lon="9.0831298"><ele>58.00000000000001</ele><time>2026-03-29T09:00:17.483Z</time></trkpt><trkpt lat="45.1923247" lon="9.0832001"><ele>58.00000000000001</ele><time>2026-03-29T09:00:20.398Z</time></trkpt><trkpt lat="45.1923986" lon="9.0832407"><ele>58.99999999999999</ele><time>2026-03-29T09:00:23.401Z</time></trkpt><trkpt lat="45.1924989" lon="9.083225"><ele>60.0</ele><time>2026-03-29T09:00:26.415Z</time></trkpt><trkpt lat="45.1925811" lon="9.0832122"><ele>61.0</ele><time>2026-03-29T09:00:28.407Z</time></trkpt><trkpt lat="45.1926783" lon="9.0832114"><ele>62.0</ele><time>2026-03-29T09:00:30.405Z</time></trkpt><trkpt lat="45.1927642" lon="9.0832043"><ele>62.99999999999999</ele><time>2026-03-29T09:00:32.407Z</time></trkpt><trkpt lat="45.1928289" lon="9.0831858"><ele>64.0</ele><time>2026-03-29T09:00:34.398Z</time></trkpt><trkpt lat="45.1929178" lon="9.0831515"><ele>63.99999999999999</ele><time>2026-03-29T09:00:37.406Z</time></trkpt><trkpt lat="45.1929865" lon="9.0831269"><ele>64.0</ele><time>2026-03-29T09:00:39.402Z</time></trkpt><trkpt lat="45.193071" lon="9.0831128"><ele>64.0</ele><time>2026-03-29T09:00:42.405Z</time></trkpt><trkpt lat="45.1931509" lon="9.0831012"><ele>64.0</ele><time>2026-03-29T09:00:46.404Z</time></trkpt><trkpt lat="45.1932287" lon="9.0830993"><ele>63.99999999999999</ele><time>2026-03-29T09:00:49.404Z</time></trkpt><trkpt lat="45.1933042" lon="9.0831115"><ele>64.0</ele><time>2026-03-29T09:00:51.406Z</time></trkpt><trkpt lat="45.1933749" lon="9.0831402"><ele>63.666666666666664</ele><time>2026-03-29T09:00:53.479Z</time></trkpt><trkpt lat="45.1934569" lon="9.0831368"><ele>63.33333333333333</ele><time>2026-03-29T09:00:55.398Z</time></trkpt><trkpt lat="45.1935324" lon="9.0831067"><ele>63.0</ele><time>2026-03-29T09:00:57.404Z</time></trkpt><trkpt lat="45.1936035" lon="9.0830585"><ele>62.66666666666667</ele><time>2026-03-29T09:00:59.405Z</time></trkpt><trkpt lat="45.193657" lon="9.0830103"><ele>62.333333333333336</ele><time>2026-03-29T09:01:01.401Z</time></trkpt><trkpt lat="45.1937365" lon="9.0829798"><ele>62.0</ele><time>2026-03-29T09:01:03.4Z</time></trkpt><trkpt lat="45.1938102" lon="9.0829138"><ele>62.0</ele><time>2026-03-29T09:01:06.404Z</time></trkpt><trkpt lat="45.193868" lon="9.0828688"><ele>62.00000000000001</ele><time>2026-03-29T09:01:08.398Z</time></trkpt><trkpt lat="45.1939424" lon="9.0828837"><ele>62.0</ele><time>2026-03-29T09:01:10.407Z</time></trkpt><trkpt lat="45.194025" lon="9.0828973"><ele>62.0</ele><time>2026-03-29T09:01:13.413Z</time></trkpt><trkpt lat="45.1940999" lon="9.0828677"><ele>62.00000000000001</ele><time>2026-03-29T09:01:15.408Z</time></trkpt><trkpt lat="45.1941114" lon="9.0827765"><ele>62.0</ele><time>2026-03-29T09:01:18.417Z</time></trkpt><trkpt lat="45.1940593" lon="9.0827104"><ele>62.0</ele><time>2026-03-29T09:01:21.408Z</time></trkpt><trkpt lat="45.1940381" lon="9.0825818"><ele>62.16666666666667</ele><time>2026-03-29T09:01:24.402Z</time></trkpt><trkpt lat="45.1940429" lon="9.082472"><ele>62.333333333333336</ele><time>2026-03-29T09:01:27.403Z</time></trkpt><trkpt lat="45.1940709" lon="9.0823884"><ele>62.5</ele><time>2026-03-29T09:01:30.41Z</time></trkpt><trkpt lat="45.1941362" lon="9.082316"><ele>62.66666666666667</ele><time>2026-03-29T09:01:33.479Z</time></trkpt><trkpt lat="45.1942092" lon="9.0822517"><ele>62.833333333333336</ele><time>2026-03-29T09:01:37.413Z</time></trkpt><trkpt lat="45.1942699" lon="9.0822156"><ele>63.0</ele><time>2026-03-29T09:01:39.401Z</time></trkpt><trkpt lat="45.1943379" lon="9.0821756"><ele>63.14285714285714</ele><time>2026-03-29T09:01:41.399Z</time></trkpt><trkpt lat="45.1944081" lon="9.0821292"><ele>63.285714285714285</ele><time>2026-03-29T09:01:43.4Z</time></trkpt><trkpt lat="45.1944709" lon="9.0820813"><ele>63.42857142857143</ele><time>2026-03-29T09:01:45.415Z</time></trkpt><trkpt lat="45.194538" lon="9.0820285"><ele>63.57142857142857</ele><time>2026-03-29T09:01:47.413Z</time></trkpt><trkpt lat="45.1946052" lon="9.0820005"><ele>63.71428571428571</ele><time>2026-03-29T09:01:49.404Z</time></trkpt><trkpt lat="45.1946677" lon="9.0819658"><ele>63.857142857142854</ele><time>2026-03-29T09:01:51.402Z</time></trkpt><trkpt lat="45.1947297" lon="9.0819236"><ele>64.0</ele><time>2026-03-29T09:01:53.407Z</time></trkpt><trkpt lat="45.194801" lon="9.0818706"><ele>63.99999999999999</ele><time>2026-03-29T09:01:55.398Z</time></trkpt><trkpt lat="45.1948806" lon="9.0818279"><ele>64.0</ele><time>2026-03-29T09:01:57.412Z</time></trkpt><trkpt lat="45.1949615" lon="9.0817876"><ele>64.0</ele><time>2026-03-29T09:01:59.494Z</time></trkpt><trkpt lat="45.195031" lon="9.0817556"><ele>64.0</ele><time>2026-03-29T09:02:01.41Z</time></trkpt><trkpt lat="45.1950921" lon="9.0817242"><ele>63.99999999999999</ele><time>2026-03-29T09:02:03.41Z</time></trkpt><trkpt lat="45.1951709" lon="9.0816538"><ele>64.0</ele><time>2026-03-29T09:02:06.411Z</time></trkpt><trkpt lat="45.1952296" lon="9.0816172"><ele>63.83333333333333</ele><time>2026-03-29T09:02:08.408Z</time></trkpt><trkpt lat="45.1952924" lon="9.0815791"><ele>63.666666666666664</ele><time>2026-03-29T09:02:10.4Z</time></trkpt><trkpt lat="45.1953809" lon="9.0815502"><ele>63.5</ele><time>2026-03-29T09:02:12.412Z</time></trkpt><trkpt lat="45.1954521" lon="9.0815079"><ele>63.33333333333333</ele><time>2026-03-29T09:02:14.399Z</time></trkpt><trkpt lat="45.1955255" lon="9.0814576"><ele>63.166666666666664</ele><time>2026-03-29T09:02:16.401Z</time></trkpt><trkpt lat="45.1955951" lon="9.0813959"><ele>63.0</ele><time>2026-03-29T09:02:18.405Z</time></trkpt><trkpt lat="45.1956616" lon="9.0813266"><ele>62.666666666666664</ele><time>2026-03-29T09:02:20.406Z</time></trkpt><trkpt lat="45.195742" lon="9.0812689"><ele>62.33333333333333</ele><time>2026-03-29T09:02:22.407Z</time></trkpt><trkpt lat="45.1958126" lon="9.0811917"><ele>62.0</ele><time>2026-03-29T09:02:24.466Z</time></trkpt><trkpt lat="45.1958557" lon="9.0811145"><ele>61.666666666666664</ele><time>2026-03-29T09:02:26.403Z</time></trkpt><trkpt lat="45.1958902" lon="9.081039"><ele>61.33333333333333</ele><time>2026-03-29T09:02:28.404Z</time></trkpt><trkpt lat="45.1959425" lon="9.0809438"><ele>61.0</ele><time>2026-03-29T09:02:31.404Z</time></trkpt><trkpt lat="45.1959904" lon="9.0808716"><ele>60.99999999999999</ele><time>2026-03-29T09:02:33.4Z</time></trkpt><trkpt lat="45.1960494" lon="9.0808003"><ele>61.0</ele><time>2026-03-29T09:02:35.475Z</time></trkpt><trkpt lat="45.1961043" lon="9.0807329"><ele>61.0</ele><time>2026-03-29T09:02:37.414Z</time></trkpt><trkpt lat="45.1961569" lon="9.080651"><ele>61.0</ele><time>2026-03-29T09:02:39.415Z</time></trkpt><trkpt lat="45.1962125" lon="9.0805568"><ele>60.99999999999999</ele><time>2026-03-29T09:02:41.405Z</time></trkpt><trkpt lat="45.1962646" lon="9.0804636"><ele>61.0</ele><time>2026-03-29T09:02:43.409Z</time></trkpt><trkpt lat="45.196337" lon="9.0803401"><ele>60.99999999999999</ele><time>2026-03-29T09:02:45.402Z</time></trkpt><trkpt lat="45.1963922" lon="9.0802646"><ele>61.0</ele><time>2026-03-29T09:02:47.407Z</time></trkpt><trkpt lat="45.1964734" lon="9.0802326"><ele>61.0</ele><time>2026-03-29T09:02:50.419Z</time></trkpt><trkpt lat="45.1965537" lon="9.0803077"><ele>61.0</ele><time>2026-03-29T09:02:53.406Z</time></trkpt><trkpt lat="45.1966076" lon="9.0803713"><ele>60.99999999999999</ele><time>2026-03-29T09:02:55.4Z</time></trkpt><trkpt lat="45.1966573" lon="9.0804473"><ele>61.0</ele><time>2026-03-29T09:02:57.398Z</time></trkpt><trkpt lat="45.1966992" lon="9.0805178"><ele>60.99999999999999</ele><time>2026-03-29T09:02:59.404Z</time></trkpt><trkpt lat="45.1967432" lon="9.0805948"><ele>61.0</ele><time>2026-03-29T09:03:01.401Z</time></trkpt><trkpt lat="45.1967865" lon="9.0806628"><ele>61.0</ele><time>2026-03-29T09:03:03.408Z</time></trkpt><trkpt lat="45.1968441" lon="9.080724"><ele>61.0</ele><time>2026-03-29T09:03:05.408Z</time></trkpt><trkpt lat="45.1969297" lon="9.0807249"><ele>60.99999999999999</ele><time>2026-03-29T09:03:08.399Z</time></trkpt><trkpt lat="45.1969978" lon="9.0806723"><ele>61.0</ele><time>2026-03-29T09:03:10.402Z</time></trkpt><trkpt lat="45.1970657" lon="9.0806082"><ele>60.99999999999999</ele><time>2026-03-29T09:03:12.401Z</time></trkpt><trkpt lat="45.1971193" lon="9.0805208"><ele>61.0</ele><time>2026-03-29T09:03:14.405Z</time></trkpt><trkpt lat="45.1971779" lon="9.080466"><ele>60.99999999999999</ele><time>2026-03-29T09:03:16.47Z</time></trkpt><trkpt lat="45.1972405" lon="9.0804526"><ele>60.99999999999999</ele><time>2026-03-29T09:03:18.421Z</time></trkpt><trkpt lat="45.1973201" lon="9.0804992"><ele>61.0</ele><time>2026-03-29T09:03:21.413Z</time></trkpt><trkpt lat="45.1973753" lon="9.0805504"><ele>60.99999999999999</ele><time>2026-03-29T09:03:23.399Z</time></trkpt><trkpt lat="45.1974357" lon="9.0805809"><ele>60.99999999999999</ele><time>2026-03-29T09:03:25.404Z</time></trkpt><trkpt lat="45.1975171" lon="9.0806355"><ele>61.33333333333333</ele><time>2026-03-29T09:03:28.412Z</time></trkpt><trkpt lat="45.1975724" lon="9.0806803"><ele>61.666666666666664</ele><time>2026-03-29T09:03:30.406Z</time></trkpt><trkpt lat="45.1976457" lon="9.0807269"><ele>62.0</ele><time>2026-03-29T09:03:33.415Z</time></trkpt><trkpt lat="45.1977184" lon="9.0807658"><ele>62.33333333333333</ele><time>2026-03-29T09:03:36.404Z</time></trkpt><trkpt lat="45.1977853" lon="9.0808146"><ele>62.666666666666664</ele><time>2026-03-29T09:03:40.401Z</time></trkpt><trkpt lat="45.1978554" lon="9.0808483"><ele>63.0</ele><time>2026-03-29T09:03:43.415Z</time></trkpt><trkpt lat="45.1979404" lon="9.0808994"><ele>63.166666666666664</ele><time>2026-03-29T09:03:46.408Z</time></trkpt><trkpt lat="45.1980034" lon="9.0809403"><ele>63.33333333333333</ele><time>2026-03-29T09:03:48.405Z</time></trkpt><trkpt lat="45.1980626" lon="9.0809741"><ele>63.5</ele><time>2026-03-29T09:03:50.405Z</time></trkpt><trkpt lat="45.1981326" lon="9.0810228"><ele>63.666666666666664</ele><time>2026-03-29T09:03:52.411Z</time></trkpt><trkpt lat="45.1982165" lon="9.0810778"><ele>63.83333333333333</ele><time>2026-03-29T09:03:54.41Z</time></trkpt><trkpt lat="45.1983012" lon="9.0811362"><ele>64.0</ele><time>2026-03-29T09:03:56.405Z</time></trkpt><trkpt lat="45.1984042" lon="9.0811867"><ele>64.5</ele><time>2026-03-29T09:03:58.403Z</time></trkpt><trkpt lat="45.1985058" lon="9.0812454"><ele>65.0</ele><time>2026-03-29T09:04:00.422Z</time></trkpt><trkpt lat="45.1985735" lon="9.0812779"><ele>65.5</ele><time>2026-03-29T09:04:02.394Z</time></trkpt><trkpt lat="45.1986367" lon="9.0813257"><ele>66.0</ele><time>2026-03-29T09:04:04.398Z</time></trkpt><trkpt lat="45.1987021" lon="9.0813631"><ele>66.5</ele><time>2026-03-29T09:04:06.409Z</time></trkpt><trkpt lat="45.1987654" lon="9.0813949"><ele>67.0</ele><time>2026-03-29T09:04:09.406Z</time></trkpt><trkpt lat="45.1988587" lon="9.0814621"><ele>67.0</ele><time>2026-03-29T09:04:25.418Z</time></trkpt><trkpt lat="45.1989221" lon="9.0814992"><ele>67.0</ele><time>2026-03-29T09:04:35.416Z</time></trkpt><trkpt lat="45.1989902" lon="9.0815559"><ele>67.0</ele><time>2026-03-29T09:04:42.409Z</time></trkpt><trkpt lat="45.1990573" lon="9.0815858"><ele>67.0</ele><time>2026-03-29T09:04:45.434Z</time></trkpt><trkpt lat="45.1991191" lon="9.0816327"><ele>67.0</ele><time>2026-03-29T09:04:48.402Z</time></trkpt><trkpt lat="45.1992428" lon="9.0816825"><ele>67.0</ele><time>2026-03-29T09:04:57.471Z</time></trkpt><trkpt lat="45.1993929" lon="9.0817156"><ele>66.66666666666666</ele><time>2026-03-29T09:05:16.13Z</time></trkpt><trkpt lat="45.1994439" lon="9.0817795"><ele>66.33333333333333</ele><time>2026-03-29T09:05:25.133Z</time></trkpt><trkpt lat="45.1997732" lon="9.0818793"><ele>66.0</ele><time>2026-03-29T09:05:52.115Z</time></trkpt><trkpt lat="45.2006862" lon="9.0823356"><ele>63.5</ele><time>2026-03-29T09:06:19.187Z</time></trkpt><trkpt lat="45.200922" lon="9.0824346"><ele>61.0</ele><time>2026-03-29T09:06:28.119Z</time></trkpt><trkpt lat="45.2012949" lon="9.0825561"><ele>60.0</ele><time>2026-03-29T09:06:37.141Z</time></trkpt><trkpt lat="45.2016247" lon="9.0827059"><ele>59.0</ele><time>2026-03-29T09:06:46.11Z</time></trkpt><trkpt lat="45.2020527" lon="9.0828186"><ele>59.0</ele><time>2026-03-29T09:06:55.12Z</time></trkpt><trkpt lat="45.2023092" lon="9.0829012"><ele>59.0</ele><time>2026-03-29T09:07:04.119Z</time></trkpt><trkpt lat="45.2020384" lon="9.0828087"><ele>59.0</ele><time>2026-03-29T09:07:13.134Z</time></trkpt><trkpt lat="45.2022687" lon="9.0828989"><ele>59.0</ele><time>2026-03-29T09:07:22.125Z</time></trkpt><trkpt lat="45.202997" lon="9.0836186"><ele>59.5</ele><time>2026-03-29T09:07:31.141Z</time></trkpt><trkpt lat="45.2029788" lon="9.0840863"><ele>60.0</ele><time>2026-03-29T09:07:40.134Z</time></trkpt><trkpt lat="45.2030076" lon="9.0845602"><ele>59.0</ele><time>2026-03-29T09:07:49.122Z</time></trkpt><trkpt lat="45.2030174" lon="9.085033"><ele>58.0</ele><time>2026-03-29T09:07:58.111Z</time></trkpt><trkpt lat="45.2030262" lon="9.0855297"><ele>58.0</ele><time>2026-03-29T09:08:07.121Z</time></trkpt><trkpt lat="45.2030809" lon="9.0860081"><ele>58.0</ele><time>2026-03-29T09:08:16.113Z</time></trkpt><trkpt lat="45.2030617" lon="9.0855848"><ele>58.0</ele><time>2026-03-29T09:08:25.125Z</time></trkpt><trkpt lat="45.203335" lon="9.0869403"><ele>58.0</ele><time>2026-03-29T09:08:34.138Z</time></trkpt><trkpt lat="45.2035006" lon="9.0873873"><ele>58.0</ele><time>2026-03-29T09:08:43.137Z</time></trkpt><trkpt lat="45.2036566" lon="9.0878513"><ele>59.0</ele><time>2026-03-29T09:08:52.137Z</time></trkpt><trkpt lat="45.2038185" lon="9.0882883"><ele>60.0</ele><time>2026-03-29T09:09:01.129Z</time></trkpt><trkpt lat="45.2042369" lon="9.0886159"><ele>62.0</ele><time>2026-03-29T09:09:10.117Z</time></trkpt><trkpt lat="45.2045763" lon="9.0889586"><ele>64.0</ele><time>2026-03-29T09:09:19.223Z</time></trkpt><trkpt lat="45.2048293" lon="9.0893943"><ele>67.0</ele><time>2026-03-29T09:09:28.125Z</time></trkpt><trkpt lat="45.2050747" lon="9.0897287"><ele>70.0</ele><time>2026-03-29T09:09:37.13Z</time></trkpt><trkpt lat="45.2051303" lon="9.0897712"><ele>73.0</ele><time>2026-03-29T09:09:39.788Z</time></trkpt><trkpt lat="45.2053929" lon="9.0899016"><ele>74.0</ele><time>2026-03-29T09:09:46.398Z</time></trkpt><trkpt lat="45.2054661" lon="9.0899898"><ele>75.0</ele><time>2026-03-29T09:09:47.404Z</time></trkpt><trkpt lat="45.2054959" lon="9.0901165"><ele>76.0</ele><time>2026-03-29T09:09:51.482Z</time></trkpt><trkpt lat="45.2055474" lon="9.0902079"><ele>77.0</ele><time>2026-03-29T09:09:54.41Z</time></trkpt><trkpt lat="45.2056149" lon="9.0902284"><ele>78.0</ele><time>2026-03-29T09:09:57.411Z</time></trkpt><trkpt lat="45.2056778" lon="9.0901331"><ele>79.0</ele><time>2026-03-29T09:09:59.393Z</time></trkpt><trkpt lat="45.2057701" lon="9.0899741"><ele>78.4</ele><time>2026-03-29T09:10:02.429Z</time></trkpt><trkpt lat="45.2058399" lon="9.0898848"><ele>77.80000000000001</ele><time>2026-03-29T09:10:04.417Z</time></trkpt><trkpt lat="45.2059196" lon="9.089791"><ele>77.19999999999999</ele><time>2026-03-29T09:10:06.406Z</time></trkpt><trkpt lat="45.2059931" lon="9.0896858"><ele>76.6</ele><time>2026-03-29T09:10:08.414Z</time></trkpt><trkpt lat="45.20606" lon="9.0896006"><ele>76.0</ele><time>2026-03-29T09:10:10.411Z</time></trkpt><trkpt lat="45.2061245" lon="9.0895241"><ele>76.0</ele><time>2026-03-29T09:10:12.423Z</time></trkpt><trkpt lat="45.2061836" lon="9.0894551"><ele>76.0</ele><time>2026-03-29T09:10:14.41Z</time></trkpt><trkpt lat="45.2062411" lon="9.0893842"><ele>76.0</ele><time>2026-03-29T09:10:16.414Z</time></trkpt><trkpt lat="45.2063095" lon="9.0893008"><ele>76.0</ele><time>2026-03-29T09:10:18.414Z</time></trkpt><trkpt lat="45.2063763" lon="9.0892214"><ele>76.0</ele><time>2026-03-29T09:10:20.42Z</time></trkpt><trkpt lat="45.206432" lon="9.0891371"><ele>76.0</ele><time>2026-03-29T09:10:22.418Z</time></trkpt><trkpt lat="45.2064951" lon="9.089058"><ele>76.16666666666666</ele><time>2026-03-29T09:10:24.426Z</time></trkpt><trkpt lat="45.2065618" lon="9.0889735"><ele>76.33333333333333</ele><time>2026-03-29T09:10:26.423Z</time></trkpt><trkpt lat="45.2066349" lon="9.08889"><ele>76.5</ele><time>2026-03-29T09:10:28.406Z</time></trkpt><trkpt lat="45.2067063" lon="9.0888045"><ele>76.66666666666667</ele><time>2026-03-29T09:10:30.424Z</time></trkpt><trkpt lat="45.2067695" lon="9.0887252"><ele>76.83333333333334</ele><time>2026-03-29T09:10:32.427Z</time></trkpt><trkpt lat="45.2068297" lon="9.0886524"><ele>77.0</ele><time>2026-03-29T09:10:34.408Z</time></trkpt><trkpt lat="45.2068973" lon="9.0885652"><ele>77.0</ele><time>2026-03-29T09:10:36.417Z</time></trkpt><trkpt lat="45.2069621" lon="9.0884776"><ele>77.0</ele><time>2026-03-29T09:10:38.416Z</time></trkpt><trkpt lat="45.2070258" lon="9.0883959"><ele>77.0</ele><time>2026-03-29T09:10:40.421Z</time></trkpt><trkpt lat="45.2070939" lon="9.0883084"><ele>77.0</ele><time>2026-03-29T09:10:42.417Z</time></trkpt><trkpt lat="45.2071613" lon="9.0882262"><ele>77.0</ele><time>2026-03-29T09:10:44.421Z</time></trkpt><trkpt lat="45.2072257" lon="9.0881467"><ele>77.0</ele><time>2026-03-29T09:10:46.39Z</time></trkpt><trkpt lat="45.2072907" lon="9.0880765"><ele>77.33333333333334</ele><time>2026-03-29T09:10:48.43Z</time></trkpt><trkpt lat="45.2073492" lon="9.0880121"><ele>77.66666666666667</ele><time>2026-03-29T09:10:50.423Z</time></trkpt><trkpt lat="45.207413" lon="9.0879401"><ele>78.0</ele><time>2026-03-29T09:10:52.426Z</time></trkpt><trkpt lat="45.207492" lon="9.0878908"><ele>78.33333333333333</ele><time>2026-03-29T09:10:54.427Z</time></trkpt><trkpt lat="45.2075645" lon="9.0878623"><ele>78.66666666666666</ele><time>2026-03-29T09:10:56.49Z</time></trkpt><trkpt lat="45.2076393" lon="9.0878604"><ele>79.0</ele><time>2026-03-29T09:10:58.414Z</time></trkpt><trkpt lat="45.207722" lon="9.0878579"><ele>79.0</ele><time>2026-03-29T09:11:00.42Z</time></trkpt><trkpt lat="45.2078047" lon="9.0878541"><ele>79.0</ele><time>2026-03-29T09:11:02.43Z</time></trkpt><trkpt lat="45.2078725" lon="9.0878581"><ele>79.0</ele><time>2026-03-29T09:11:04.412Z</time></trkpt><trkpt lat="45.2079475" lon="9.0878539"><ele>79.0</ele><time>2026-03-29T09:11:06.417Z</time></trkpt><trkpt lat="45.2080279" lon="9.0878691"><ele>79.0</ele><time>2026-03-29T09:11:08.428Z</time></trkpt><trkpt lat="45.2081146" lon="9.0878965"><ele>79.0</ele><time>2026-03-29T09:11:10.414Z</time></trkpt><trkpt lat="45.2081862" lon="9.0879242"><ele>78.66666666666666</ele><time>2026-03-29T09:11:12.412Z</time></trkpt><trkpt lat="45.2082684" lon="9.0879262"><ele>78.33333333333333</ele><time>2026-03-29T09:11:15.41Z</time></trkpt><trkpt lat="45.208346" lon="9.0879094"><ele>78.0</ele><time>2026-03-29T09:11:17.422Z</time></trkpt><trkpt lat="45.2084271" lon="9.0878699"><ele>77.66666666666667</ele><time>2026-03-29T09:11:19.437Z</time></trkpt><trkpt lat="45.2084867" lon="9.0877919"><ele>77.33333333333334</ele><time>2026-03-29T09:11:21.417Z</time></trkpt><trkpt lat="45.2085418" lon="9.0877131"><ele>77.0</ele><time>2026-03-29T09:11:23.425Z</time></trkpt><trkpt lat="45.2086006" lon="9.0876235"><ele>77.0</ele><time>2026-03-29T09:11:25.417Z</time></trkpt><trkpt lat="45.208652" lon="9.0875332"><ele>77.0</ele><time>2026-03-29T09:11:27.423Z</time></trkpt><trkpt lat="45.2086996" lon="9.0874614"><ele>77.0</ele><time>2026-03-29T09:11:29.428Z</time></trkpt><trkpt lat="45.2087598" lon="9.0874234"><ele>77.0</ele><time>2026-03-29T09:11:31.416Z</time></trkpt><trkpt lat="45.2088463" lon="9.0874246"><ele>77.0</ele><time>2026-03-29T09:11:33.416Z</time></trkpt><trkpt lat="45.2089209" lon="9.0874621"><ele>77.0</ele><time>2026-03-29T09:11:35.437Z</time></trkpt><trkpt lat="45.2089854" lon="9.0875229"><ele>77.4</ele><time>2026-03-29T09:11:37.411Z</time></trkpt><trkpt lat="45.209061" lon="9.0876019"><ele>77.80000000000001</ele><time>2026-03-29T09:11:39.418Z</time></trkpt><trkpt lat="45.2091215" lon="9.0876569"><ele>78.2</ele><time>2026-03-29T09:11:41.419Z</time></trkpt><trkpt lat="45.2091792" lon="9.0877077"><ele>78.60000000000001</ele><time>2026-03-29T09:11:43.42Z</time></trkpt><trkpt lat="45.209247" lon="9.0877683"><ele>79.0</ele><time>2026-03-29T09:11:45.432Z</time></trkpt><trkpt lat="45.2095322" lon="9.0880534"><ele>79.0</ele><time>2026-03-29T09:11:54.119Z</time></trkpt><trkpt lat="45.2098021" lon="9.0882513"><ele>79.0</ele><time>2026-03-29T09:12:03.117Z</time></trkpt><trkpt lat="45.2100681" lon="9.0885896"><ele>79.0</ele><time>2026-03-29T09:12:12.117Z</time></trkpt><trkpt lat="45.2102558" lon="9.0887248"><ele>79.0</ele><time>2026-03-29T09:12:21.117Z</time></trkpt><trkpt lat="45.2104727" lon="9.0883548"><ele>79.5</ele><time>2026-03-29T09:12:30.116Z</time></trkpt><trkpt lat="45.2104568" lon="9.0880993"><ele>80.0</ele><time>2026-03-29T09:12:39.136Z</time></trkpt><trkpt lat="45.2110147" lon="9.0874108"><ele>79.5</ele><time>2026-03-29T09:12:48.121Z</time></trkpt><trkpt lat="45.2112419" lon="9.086997"><ele>79.0</ele><time>2026-03-29T09:12:57.117Z</time></trkpt><trkpt lat="45.2115773" lon="9.0864751"><ele>79.0</ele><time>2026-03-29T09:13:06.113Z</time></trkpt><trkpt lat="45.2117863" lon="9.0859817"><ele>79.0</ele><time>2026-03-29T09:13:15.122Z</time></trkpt><trkpt lat="45.211842" lon="9.0859385"><ele>79.0</ele><time>2026-03-29T09:13:16.402Z</time></trkpt><trkpt lat="45.2119231" lon="9.0858584"><ele>79.0</ele><time>2026-03-29T09:13:18.402Z</time></trkpt><trkpt lat="45.2119799" lon="9.0857594"><ele>79.0</ele><time>2026-03-29T09:13:20.462Z</time></trkpt><trkpt lat="45.2120403" lon="9.0856582"><ele>79.0</ele><time>2026-03-29T09:13:22.417Z</time></trkpt><trkpt lat="45.2120948" lon="9.0855608"><ele>79.0</ele><time>2026-03-29T09:13:24.393Z</time></trkpt><trkpt lat="45.2121484" lon="9.0854726"><ele>79.0</ele><time>2026-03-29T09:13:26.397Z</time></trkpt><trkpt lat="45.2121904" lon="9.0853996"><ele>79.0</ele><time>2026-03-29T09:13:28.405Z</time></trkpt><trkpt lat="45.2122357" lon="9.085313"><ele>79.0</ele><time>2026-03-29T09:13:30.395Z</time></trkpt><trkpt lat="45.2122897" lon="9.0852213"><ele>79.0</ele><time>2026-03-29T09:13:32.399Z</time></trkpt><trkpt lat="45.2123443" lon="9.0851272"><ele>79.0</ele><time>2026-03-29T09:13:34.395Z</time></trkpt><trkpt lat="45.2124029" lon="9.0850247"><ele>79.0</ele><time>2026-03-29T09:13:36.416Z</time></trkpt><trkpt lat="45.2124653" lon="9.0849278"><ele>79.33333333333333</ele><time>2026-03-29T09:13:38.404Z</time></trkpt><trkpt lat="45.2125261" lon="9.0848375"><ele>79.66666666666666</ele><time>2026-03-29T09:13:40.402Z</time></trkpt><trkpt lat="45.2125842" lon="9.0847456"><ele>80.0</ele><time>2026-03-29T09:13:42.4Z</time></trkpt><trkpt lat="45.2126398" lon="9.0846374"><ele>80.33333333333333</ele><time>2026-03-29T09:13:44.394Z</time></trkpt><trkpt lat="45.2126975" lon="9.084534"><ele>80.66666666666667</ele><time>2026-03-29T09:13:46.401Z</time></trkpt><trkpt lat="45.2127375" lon="9.0844401"><ele>81.0</ele><time>2026-03-29T09:13:48.409Z</time></trkpt><trkpt lat="45.2127932" lon="9.0843366"><ele>81.0</ele><time>2026-03-29T09:13:51.404Z</time></trkpt><trkpt lat="45.2128422" lon="9.0842417"><ele>81.0</ele><time>2026-03-29T09:13:53.404Z</time></trkpt><trkpt lat="45.2128982" lon="9.0841495"><ele>81.0</ele><time>2026-03-29T09:13:55.405Z</time></trkpt><trkpt lat="45.2129558" lon="9.0840374"><ele>81.0</ele><time>2026-03-29T09:13:57.408Z</time></trkpt><trkpt lat="45.2130064" lon="9.0839402"><ele>81.0</ele><time>2026-03-29T09:13:59.407Z</time></trkpt><trkpt lat="45.2130554" lon="9.0838555"><ele>81.0</ele><time>2026-03-29T09:14:01.403Z</time></trkpt><trkpt lat="45.2131032" lon="9.0837587"><ele>81.0</ele><time>2026-03-29T09:14:03.4Z</time></trkpt><trkpt lat="45.2131555" lon="9.0836602"><ele>81.0</ele><time>2026-03-29T09:14:05.402Z</time></trkpt><trkpt lat="45.2132051" lon="9.0835706"><ele>81.0</ele><time>2026-03-29T09:14:07.396Z</time></trkpt><trkpt lat="45.2132678" lon="9.0834691"><ele>81.0</ele><time>2026-03-29T09:14:09.396Z</time></trkpt><trkpt lat="45.2133224" lon="9.0833771"><ele>81.0</ele><time>2026-03-29T09:14:11.4Z</time></trkpt><trkpt lat="45.2133766" lon="9.083297"><ele>81.0</ele><time>2026-03-29T09:14:13.401Z</time></trkpt><trkpt lat="45.2134284" lon="9.0832287"><ele>81.0</ele><time>2026-03-29T09:14:15.404Z</time></trkpt><trkpt lat="45.2134696" lon="9.0831324"><ele>81.0</ele><time>2026-03-29T09:14:17.412Z</time></trkpt><trkpt lat="45.2135236" lon="9.0830317"><ele>81.0</ele><time>2026-03-29T09:14:19.407Z</time></trkpt><trkpt lat="45.2135768" lon="9.0829376"><ele>81.0</ele><time>2026-03-29T09:14:21.4Z</time></trkpt><trkpt lat="45.2136341" lon="9.0828387"><ele>81.0</ele><time>2026-03-29T09:14:23.404Z</time></trkpt><trkpt lat="45.2136886" lon="9.0827535"><ele>81.0</ele><time>2026-03-29T09:14:25.414Z</time></trkpt><trkpt lat="45.2137456" lon="9.0826551"><ele>81.0</ele><time>2026-03-29T09:14:27.407Z</time></trkpt><trkpt lat="45.2137998" lon="9.0825631"><ele>81.0</ele><time>2026-03-29T09:14:29.403Z</time></trkpt><trkpt lat="45.2138451" lon="9.0824836"><ele>81.0</ele><time>2026-03-29T09:14:31.4Z</time></trkpt><trkpt lat="45.2138899" lon="9.0824098"><ele>81.0</ele><time>2026-03-29T09:14:33.397Z</time></trkpt><trkpt lat="45.2139303" lon="9.0823122"><ele>81.0</ele><time>2026-03-29T09:14:35.401Z</time></trkpt><trkpt lat="45.2139907" lon="9.0822313"><ele>81.0</ele><time>2026-03-29T09:14:37.396Z</time></trkpt><trkpt lat="45.2140409" lon="9.082131"><ele>81.0</ele><time>2026-03-29T09:14:39.395Z</time></trkpt><trkpt lat="45.2140909" lon="9.082032"><ele>81.0</ele><time>2026-03-29T09:14:41.397Z</time></trkpt><trkpt lat="45.2141362" lon="9.081937"><ele>81.0</ele><time>2026-03-29T09:14:43.395Z</time></trkpt><trkpt lat="45.2141855" lon="9.0818425"><ele>81.0</ele><time>2026-03-29T09:14:45.392Z</time></trkpt><trkpt lat="45.2142345" lon="9.0817384"><ele>81.0</ele><time>2026-03-29T09:14:47.403Z</time></trkpt><trkpt lat="45.214286" lon="9.0816368"><ele>81.0</ele><time>2026-03-29T09:14:49.467Z</time></trkpt><trkpt lat="45.2143352" lon="9.0815341"><ele>81.0</ele><time>2026-03-29T09:14:51.418Z</time></trkpt><trkpt lat="45.2144097" lon="9.0813747"><ele>81.0</ele><time>2026-03-29T09:14:54.404Z</time></trkpt><trkpt lat="45.21446" lon="9.0812699"><ele>81.0</ele><time>2026-03-29T09:14:56.395Z</time></trkpt><trkpt lat="45.2145134" lon="9.0811651"><ele>81.0</ele><time>2026-03-29T09:14:58.4Z</time></trkpt><trkpt lat="45.2145769" lon="9.0810475"><ele>81.0</ele><time>2026-03-29T09:15:00.396Z</time></trkpt><trkpt lat="45.2146326" lon="9.0809234"><ele>81.0</ele><time>2026-03-29T09:15:02.425Z</time></trkpt><trkpt lat="45.2146831" lon="9.0808094"><ele>81.0</ele><time>2026-03-29T09:15:04.416Z</time></trkpt><trkpt lat="45.2147321" lon="9.0806966"><ele>81.0</ele><time>2026-03-29T09:15:06.405Z</time></trkpt><trkpt lat="45.214772" lon="9.0806131"><ele>81.0</ele><time>2026-03-29T09:15:08.408Z</time></trkpt><trkpt lat="45.2148239" lon="9.0805173"><ele>81.0</ele><time>2026-03-29T09:15:11.397Z</time></trkpt><trkpt lat="45.2148882" lon="9.0803662"><ele>81.0</ele><time>2026-03-29T09:15:15.407Z</time></trkpt><trkpt lat="45.214916" lon="9.08028"><ele>81.0</ele><time>2026-03-29T09:15:18.413Z</time></trkpt><trkpt lat="45.2148654" lon="9.0801853"><ele>81.0</ele><time>2026-03-29T09:15:21.407Z</time></trkpt><trkpt lat="45.2148115" lon="9.0801353"><ele>81.0</ele><time>2026-03-29T09:15:23.41Z</time></trkpt><trkpt lat="45.2147382" lon="9.0800689"><ele>81.0</ele><time>2026-03-29T09:15:25.405Z</time></trkpt><trkpt lat="45.2146757" lon="9.0800045"><ele>81.0</ele><time>2026-03-29T09:15:27.492Z</time></trkpt><trkpt lat="45.2145939" lon="9.079927"><ele>81.0</ele><time>2026-03-29T09:15:30.404Z</time></trkpt><trkpt lat="45.2145207" lon="9.0798611"><ele>81.0</ele><time>2026-03-29T09:15:32.404Z</time></trkpt><trkpt lat="45.2144635" lon="9.0797897"><ele>81.0</ele><time>2026-03-29T09:15:34.393Z</time></trkpt><trkpt lat="45.2143958" lon="9.079715"><ele>81.0</ele><time>2026-03-29T09:15:36.407Z</time></trkpt><trkpt lat="45.2143284" lon="9.0796411"><ele>81.0</ele><time>2026-03-29T09:15:38.425Z</time></trkpt><trkpt lat="45.2142608" lon="9.0795664"><ele>81.0</ele><time>2026-03-29T09:15:40.4Z</time></trkpt><trkpt lat="45.214193" lon="9.079494"><ele>81.0</ele><time>2026-03-29T09:15:42.472Z</time></trkpt><trkpt lat="45.2141251" lon="9.0794166"><ele>81.0</ele><time>2026-03-29T09:15:44.423Z</time></trkpt><trkpt lat="45.214047" lon="9.0793379"><ele>81.0</ele><time>2026-03-29T09:15:46.405Z</time></trkpt><trkpt lat="45.2139617" lon="9.0792683"><ele>81.0</ele><time>2026-03-29T09:15:48.405Z</time></trkpt><trkpt lat="45.2138758" lon="9.0791771"><ele>81.0</ele><time>2026-03-29T09:15:50.402Z</time></trkpt><trkpt lat="45.2137897" lon="9.079094"><ele>79.83333333333333</ele><time>2026-03-29T09:15:52.416Z</time></trkpt><trkpt lat="45.213712" lon="9.079003"><ele>78.66666666666667</ele><time>2026-03-29T09:15:54.482Z</time></trkpt><trkpt lat="45.2136377" lon="9.0789256"><ele>77.5</ele><time>2026-03-29T09:15:56.402Z</time></trkpt><trkpt lat="45.2135586" lon="9.0788555"><ele>76.33333333333334</ele><time>2026-03-29T09:15:58.401Z</time></trkpt><trkpt lat="45.2134952" lon="9.078787"><ele>75.16666666666667</ele><time>2026-03-29T09:16:00.41Z</time></trkpt><trkpt lat="45.2134375" lon="9.0787336"><ele>74.0</ele><time>2026-03-29T09:16:02.402Z</time></trkpt><trkpt lat="45.2133847" lon="9.0786773"><ele>74.0</ele><time>2026-03-29T09:16:04.411Z</time></trkpt><trkpt lat="45.2133257" lon="9.0786077"><ele>74.0</ele><time>2026-03-29T09:16:06.406Z</time></trkpt><trkpt lat="45.2132642" lon="9.0785419"><ele>74.0</ele><time>2026-03-29T09:16:08.403Z</time></trkpt><trkpt lat="45.2132031" lon="9.0784802"><ele>74.0</ele><time>2026-03-29T09:16:10.398Z</time></trkpt><trkpt lat="45.2131475" lon="9.0784317"><ele>74.0</ele><time>2026-03-29T09:16:12.407Z</time></trkpt><trkpt lat="45.2130945" lon="9.0783585"><ele>74.0</ele><time>2026-03-29T09:16:15.4Z</time></trkpt><trkpt lat="45.2130964" lon="9.0782681"><ele>74.0</ele><time>2026-03-29T09:16:17.413Z</time></trkpt><trkpt lat="45.2131152" lon="9.0781332"><ele>74.66666666666667</ele><time>2026-03-29T09:16:20.402Z</time></trkpt><trkpt lat="45.213121" lon="9.0780346"><ele>75.33333333333334</ele><time>2026-03-29T09:16:22.399Z</time></trkpt><trkpt lat="45.2131259" lon="9.0779207"><ele>76.0</ele><time>2026-03-29T09:16:24.404Z</time></trkpt><trkpt lat="45.2131305" lon="9.0778047"><ele>76.66666666666667</ele><time>2026-03-29T09:16:26.409Z</time></trkpt><trkpt lat="45.2131343" lon="9.077694"><ele>77.33333333333333</ele><time>2026-03-29T09:16:28.401Z</time></trkpt><trkpt lat="45.2131294" lon="9.0775776"><ele>78.0</ele><time>2026-03-29T09:16:30.396Z</time></trkpt><trkpt lat="45.2131316" lon="9.0774641"><ele>77.5</ele><time>2026-03-29T09:16:32.405Z</time></trkpt><trkpt lat="45.2131368" lon="9.0773451"><ele>77.0</ele><time>2026-03-29T09:16:34.406Z</time></trkpt><trkpt lat="45.2131392" lon="9.0772367"><ele>76.5</ele><time>2026-03-29T09:16:36.414Z</time></trkpt><trkpt lat="45.2131479" lon="9.0771257"><ele>76.0</ele><time>2026-03-29T09:16:38.398Z</time></trkpt><trkpt lat="45.2131562" lon="9.0770097"><ele>75.5</ele><time>2026-03-29T09:16:41.399Z</time></trkpt><trkpt lat="45.2131822" lon="9.0769211"><ele>75.0</ele><time>2026-03-29T09:16:43.401Z</time></trkpt><trkpt lat="45.2132094" lon="9.0767927"><ele>75.0</ele><time>2026-03-29T09:16:45.4Z</time></trkpt><trkpt lat="45.2132378" lon="9.0766716"><ele>75.0</ele><time>2026-03-29T09:16:47.4Z</time></trkpt><trkpt lat="45.2132692" lon="9.0765621"><ele>75.0</ele><time>2026-03-29T09:16:49.405Z</time></trkpt><trkpt lat="45.2133062" lon="9.0764555"><ele>75.0</ele><time>2026-03-29T09:16:51.398Z</time></trkpt><trkpt lat="45.2133494" lon="9.0763536"><ele>75.0</ele><time>2026-03-29T09:16:53.405Z</time></trkpt><trkpt lat="45.2133871" lon="9.0762472"><ele>75.0</ele><time>2026-03-29T09:16:55.413Z</time></trkpt><trkpt lat="45.2134278" lon="9.0761353"><ele>74.5</ele><time>2026-03-29T09:16:57.407Z</time></trkpt><trkpt lat="45.2134649" lon="9.0760139"><ele>74.0</ele><time>2026-03-29T09:16:59.405Z</time></trkpt><trkpt lat="45.2134981" lon="9.0759121"><ele>73.5</ele><time>2026-03-29T09:17:01.4Z</time></trkpt><trkpt lat="45.2135351" lon="9.0758105"><ele>73.0</ele><time>2026-03-29T09:17:03.404Z</time></trkpt><trkpt lat="45.2135799" lon="9.0757056"><ele>72.5</ele><time>2026-03-29T09:17:05.409Z</time></trkpt><trkpt lat="45.2136311" lon="9.0756021"><ele>72.0</ele><time>2026-03-29T09:17:07.412Z</time></trkpt><trkpt lat="45.213684" lon="9.0754929"><ele>72.5</ele><time>2026-03-29T09:17:09.396Z</time></trkpt><trkpt lat="45.2137327" lon="9.0753972"><ele>73.0</ele><time>2026-03-29T09:17:11.398Z</time></trkpt><trkpt lat="45.2137954" lon="9.0753009"><ele>73.5</ele><time>2026-03-29T09:17:13.396Z</time></trkpt><trkpt lat="45.2138504" lon="9.0752104"><ele>74.0</ele><time>2026-03-29T09:17:15.396Z</time></trkpt><trkpt lat="45.2139106" lon="9.0751112"><ele>74.5</ele><time>2026-03-29T09:17:17.401Z</time></trkpt><trkpt lat="45.2139594" lon="9.0750035"><ele>75.0</ele><time>2026-03-29T09:17:19.402Z</time></trkpt><trkpt lat="45.2140117" lon="9.0748941"><ele>75.0</ele><time>2026-03-29T09:17:21.394Z</time></trkpt><trkpt lat="45.2140748" lon="9.0747979"><ele>75.0</ele><time>2026-03-29T09:17:23.398Z</time></trkpt><trkpt lat="45.2141369" lon="9.0747033"><ele>75.0</ele><time>2026-03-29T09:17:25.405Z</time></trkpt><trkpt lat="45.2141937" lon="9.07461"><ele>75.0</ele><time>2026-03-29T09:17:27.409Z</time></trkpt><trkpt lat="45.2142544" lon="9.0745239"><ele>75.0</ele><time>2026-03-29T09:17:29.402Z</time></trkpt><trkpt lat="45.2143122" lon="9.0744445"><ele>75.0</ele><time>2026-03-29T09:17:31.404Z</time></trkpt><trkpt lat="45.2143726" lon="9.0743787"><ele>75.0</ele><time>2026-03-29T09:17:33.403Z</time></trkpt><trkpt lat="45.2144463" lon="9.0742997"><ele>75.0</ele><time>2026-03-29T09:17:35.413Z</time></trkpt><trkpt lat="45.2145271" lon="9.0742428"><ele>75.0</ele><time>2026-03-29T09:17:37.412Z</time></trkpt><trkpt lat="45.2146109" lon="9.0741991"><ele>75.0</ele><time>2026-03-29T09:17:39.407Z</time></trkpt><trkpt lat="45.2146815" lon="9.0741647"><ele>75.0</ele><time>2026-03-29T09:17:41.41Z</time></trkpt><trkpt lat="45.2147503" lon="9.0741069"><ele>75.0</ele><time>2026-03-29T09:17:43.408Z</time></trkpt><trkpt lat="45.2148241" lon="9.0740234"><ele>74.66666666666667</ele><time>2026-03-29T09:17:45.395Z</time></trkpt><trkpt lat="45.2148957" lon="9.0739461"><ele>74.33333333333333</ele><time>2026-03-29T09:17:47.389Z</time></trkpt><trkpt lat="45.2149651" lon="9.0738576"><ele>74.0</ele><time>2026-03-29T09:17:49.397Z</time></trkpt><trkpt lat="45.2150294" lon="9.0737783"><ele>73.66666666666666</ele><time>2026-03-29T09:17:51.405Z</time></trkpt><trkpt lat="45.2150827" lon="9.0736878"><ele>73.33333333333333</ele><time>2026-03-29T09:17:53.395Z</time></trkpt><trkpt lat="45.2151353" lon="9.0735918"><ele>73.0</ele><time>2026-03-29T09:17:55.409Z</time></trkpt><trkpt lat="45.2151901" lon="9.0735054"><ele>73.0</ele><time>2026-03-29T09:17:57.413Z</time></trkpt><trkpt lat="45.2152494" lon="9.0734185"><ele>73.0</ele><time>2026-03-29T09:17:59.41Z</time></trkpt><trkpt lat="45.215312" lon="9.0733431"><ele>73.0</ele><time>2026-03-29T09:18:01.402Z</time></trkpt><trkpt lat="45.215387" lon="9.0732647"><ele>73.0</ele><time>2026-03-29T09:18:03.399Z</time></trkpt><trkpt lat="45.2154347" lon="9.0731934"><ele>73.0</ele><time>2026-03-29T09:18:05.396Z</time></trkpt><trkpt lat="45.2154836" lon="9.0731194"><ele>73.0</ele><time>2026-03-29T09:18:07.397Z</time></trkpt><trkpt lat="45.2155406" lon="9.0730374"><ele>73.16666666666666</ele><time>2026-03-29T09:18:09.394Z</time></trkpt><trkpt lat="45.2156071" lon="9.0729465"><ele>73.33333333333333</ele><time>2026-03-29T09:18:11.399Z</time></trkpt><trkpt lat="45.2156606" lon="9.0728628"><ele>73.5</ele><time>2026-03-29T09:18:13.403Z</time></trkpt><trkpt lat="45.2157268" lon="9.072779"><ele>73.66666666666667</ele><time>2026-03-29T09:18:15.401Z</time></trkpt><trkpt lat="45.2157821" lon="9.0726998"><ele>73.83333333333334</ele><time>2026-03-29T09:18:17.406Z</time></trkpt><trkpt lat="45.2158359" lon="9.072625"><ele>74.0</ele><time>2026-03-29T09:18:19.404Z</time></trkpt><trkpt lat="45.2158945" lon="9.0725401"><ele>74.0</ele><time>2026-03-29T09:18:21.404Z</time></trkpt><trkpt lat="45.2159503" lon="9.0724536"><ele>74.0</ele><time>2026-03-29T09:18:23.4Z</time></trkpt><trkpt lat="45.2159991" lon="9.0723767"><ele>74.0</ele><time>2026-03-29T09:18:25.403Z</time></trkpt><trkpt lat="45.2160506" lon="9.0722972"><ele>74.0</ele><time>2026-03-29T09:18:27.405Z</time></trkpt><trkpt lat="45.2161213" lon="9.0722272"><ele>74.0</ele><time>2026-03-29T09:18:29.399Z</time></trkpt><trkpt lat="45.2161909" lon="9.0721419"><ele>74.0</ele><time>2026-03-29T09:18:31.404Z</time></trkpt><trkpt lat="45.2162558" lon="9.0720461"><ele>73.83333333333334</ele><time>2026-03-29T09:18:33.412Z</time></trkpt><trkpt lat="45.2163022" lon="9.0719568"><ele>73.66666666666667</ele><time>2026-03-29T09:18:35.399Z</time></trkpt><trkpt lat="45.2163533" lon="9.0718776"><ele>73.5</ele><time>2026-03-29T09:18:37.409Z</time></trkpt><trkpt lat="45.2164021" lon="9.0717832"><ele>73.33333333333333</ele><time>2026-03-29T09:18:39.401Z</time></trkpt><trkpt lat="45.2164597" lon="9.071689"><ele>73.16666666666666</ele><time>2026-03-29T09:18:41.401Z</time></trkpt><trkpt lat="45.2165219" lon="9.0716009"><ele>73.0</ele><time>2026-03-29T09:18:43.398Z</time></trkpt><trkpt lat="45.216588" lon="9.071513"><ele>73.0</ele><time>2026-03-29T09:18:45.393Z</time></trkpt><trkpt lat="45.2166528" lon="9.0714248"><ele>73.0</ele><time>2026-03-29T09:18:47.395Z</time></trkpt><trkpt lat="45.2167341" lon="9.0713401"><ele>73.0</ele><time>2026-03-29T09:18:49.401Z</time></trkpt><trkpt lat="45.216816" lon="9.0712819"><ele>73.0</ele><time>2026-03-29T09:18:51.403Z</time></trkpt><trkpt lat="45.2169029" lon="9.071228"><ele>73.0</ele><time>2026-03-29T09:18:53.404Z</time></trkpt><trkpt lat="45.2169892" lon="9.071185"><ele>73.0</ele><time>2026-03-29T09:18:55.402Z</time></trkpt><trkpt lat="45.217071" lon="9.0711492"><ele>73.0</ele><time>2026-03-29T09:18:57.473Z</time></trkpt><trkpt lat="45.2171591" lon="9.0711005"><ele>73.0</ele><time>2026-03-29T09:18:59.401Z</time></trkpt><trkpt lat="45.2172441" lon="9.0710626"><ele>73.0</ele><time>2026-03-29T09:19:01.404Z</time></trkpt><trkpt lat="45.2173312" lon="9.0710078"><ele>73.0</ele><time>2026-03-29T09:19:03.406Z</time></trkpt><trkpt lat="45.2174167" lon="9.0709529"><ele>73.33333333333333</ele><time>2026-03-29T09:19:05.401Z</time></trkpt><trkpt lat="45.2174958" lon="9.0709079"><ele>73.66666666666666</ele><time>2026-03-29T09:19:07.407Z</time></trkpt><trkpt lat="45.2175599" lon="9.0708568"><ele>74.0</ele><time>2026-03-29T09:19:09.403Z</time></trkpt><trkpt lat="45.217629" lon="9.0707982"><ele>74.33333333333333</ele><time>2026-03-29T09:19:11.403Z</time></trkpt><trkpt lat="45.2176937" lon="9.0707038"><ele>74.66666666666667</ele><time>2026-03-29T09:19:13.41Z</time></trkpt><trkpt lat="45.2177716" lon="9.0706014"><ele>75.0</ele><time>2026-03-29T09:19:15.407Z</time></trkpt><trkpt lat="45.2178486" lon="9.0705143"><ele>75.0</ele><time>2026-03-29T09:19:17.411Z</time></trkpt><trkpt lat="45.2179218" lon="9.0704271"><ele>75.0</ele><time>2026-03-29T09:19:19.404Z</time></trkpt><trkpt lat="45.2179599" lon="9.0703214"><ele>75.0</ele><time>2026-03-29T09:19:21.409Z</time></trkpt><trkpt lat="45.2179863" lon="9.0702161"><ele>75.0</ele><time>2026-03-29T09:19:23.402Z</time></trkpt><trkpt lat="45.2180096" lon="9.0701198"><ele>75.0</ele><time>2026-03-29T09:19:25.403Z</time></trkpt><trkpt lat="45.2180199" lon="9.0700184"><ele>75.0</ele><time>2026-03-29T09:19:27.413Z</time></trkpt><trkpt lat="45.2180099" lon="9.0699026"><ele>74.8</ele><time>2026-03-29T09:19:29.414Z</time></trkpt><trkpt lat="45.2179768" lon="9.0697454"><ele>74.6</ele><time>2026-03-29T09:19:31.407Z</time></trkpt><trkpt lat="45.2179397" lon="9.0696105"><ele>74.4</ele><time>2026-03-29T09:19:33.405Z</time></trkpt><trkpt lat="45.2178955" lon="9.0694805"><ele>74.2</ele><time>2026-03-29T09:19:35.404Z</time></trkpt><trkpt lat="45.2178546" lon="9.0693582"><ele>74.0</ele><time>2026-03-29T09:19:37.409Z</time></trkpt><trkpt lat="45.217817" lon="9.0692285"><ele>74.0</ele><time>2026-03-29T09:19:39.409Z</time></trkpt><trkpt lat="45.2177685" lon="9.0691102"><ele>74.0</ele><time>2026-03-29T09:19:41.404Z</time></trkpt><trkpt lat="45.2177165" lon="9.0690001"><ele>74.0</ele><time>2026-03-29T09:19:43.407Z</time></trkpt><trkpt lat="45.2176605" lon="9.0688849"><ele>74.0</ele><time>2026-03-29T09:19:45.401Z</time></trkpt><trkpt lat="45.2176084" lon="9.0687633"><ele>74.0</ele><time>2026-03-29T09:19:47.399Z</time></trkpt><trkpt lat="45.21756" lon="9.0686322"><ele>74.0</ele><time>2026-03-29T09:19:49.413Z</time></trkpt><trkpt lat="45.2175194" lon="9.0684822"><ele>74.0</ele><time>2026-03-29T09:19:51.397Z</time></trkpt><trkpt lat="45.2174802" lon="9.068337"><ele>74.0</ele><time>2026-03-29T09:19:53.407Z</time></trkpt><trkpt lat="45.2174558" lon="9.0681937"><ele>74.0</ele><time>2026-03-29T09:19:55.394Z</time></trkpt><trkpt lat="45.2174364" lon="9.068064"><ele>74.0</ele><time>2026-03-29T09:19:57.395Z</time></trkpt><trkpt lat="45.2174109" lon="9.0679328"><ele>74.0</ele><time>2026-03-29T09:19:59.4Z</time></trkpt><trkpt lat="45.2173888" lon="9.0677899"><ele>74.0</ele><time>2026-03-29T09:20:01.485Z</time></trkpt><trkpt lat="45.2173708" lon="9.0676602"><ele>74.0</ele><time>2026-03-29T09:20:03.409Z</time></trkpt><trkpt lat="45.2173524" lon="9.0675269"><ele>74.0</ele><time>2026-03-29T09:20:05.404Z</time></trkpt><trkpt lat="45.2173309" lon="9.0673989"><ele>74.0</ele><time>2026-03-29T09:20:07.401Z</time></trkpt><trkpt lat="45.2173183" lon="9.0672767"><ele>73.83333333333334</ele><time>2026-03-29T09:20:09.402Z</time></trkpt><trkpt lat="45.2172832" lon="9.0671683"><ele>73.66666666666667</ele><time>2026-03-29T09:20:11.406Z</time></trkpt><trkpt lat="45.2172656" lon="9.0670658"><ele>73.5</ele><time>2026-03-29T09:20:13.404Z</time></trkpt><trkpt lat="45.2172513" lon="9.0669684"><ele>73.33333333333333</ele><time>2026-03-29T09:20:15.407Z</time></trkpt><trkpt lat="45.2172683" lon="9.0668454"><ele>73.16666666666666</ele><time>2026-03-29T09:20:18.392Z</time></trkpt><trkpt lat="45.2173291" lon="9.0667672"><ele>73.0</ele><time>2026-03-29T09:20:20.411Z</time></trkpt><trkpt lat="45.2173995" lon="9.0666972"><ele>73.5</ele><time>2026-03-29T09:20:22.413Z</time></trkpt><trkpt lat="45.2174743" lon="9.0666304"><ele>74.0</ele><time>2026-03-29T09:20:24.412Z</time></trkpt><trkpt lat="45.2175448" lon="9.06657"><ele>74.5</ele><time>2026-03-29T09:20:26.411Z</time></trkpt><trkpt lat="45.2176229" lon="9.066517"><ele>75.0</ele><time>2026-03-29T09:20:28.398Z</time></trkpt><trkpt lat="45.2176916" lon="9.0664554"><ele>75.5</ele><time>2026-03-29T09:20:30.406Z</time></trkpt><trkpt lat="45.2177539" lon="9.0664037"><ele>76.0</ele><time>2026-03-29T09:20:32.408Z</time></trkpt><trkpt lat="45.2178318" lon="9.0663451"><ele>76.0</ele><time>2026-03-29T09:20:34.403Z</time></trkpt><trkpt lat="45.2179079" lon="9.0662874"><ele>76.0</ele><time>2026-03-29T09:20:36.431Z</time></trkpt><trkpt lat="45.2179684" lon="9.0662236"><ele>76.0</ele><time>2026-03-29T09:20:38.474Z</time></trkpt><trkpt lat="45.2180183" lon="9.0661587"><ele>76.0</ele><time>2026-03-29T09:20:40.408Z</time></trkpt><trkpt lat="45.21803" lon="9.06606"><ele>76.0</ele><time>2026-03-29T09:20:42.407Z</time></trkpt><trkpt lat="45.2179962" lon="9.0659434"><ele>76.0</ele><time>2026-03-29T09:20:44.406Z</time></trkpt><trkpt lat="45.2179649" lon="9.0658291"><ele>76.0</ele><time>2026-03-29T09:20:46.41Z</time></trkpt><trkpt lat="45.2179421" lon="9.0657042"><ele>76.0</ele><time>2026-03-29T09:20:48.401Z</time></trkpt><trkpt lat="45.217918" lon="9.0655835"><ele>76.0</ele><time>2026-03-29T09:20:50.487Z</time></trkpt><trkpt lat="45.2178986" lon="9.0654703"><ele>76.0</ele><time>2026-03-29T09:20:52.408Z</time></trkpt><trkpt lat="45.2178751" lon="9.0653454"><ele>76.0</ele><time>2026-03-29T09:20:54.397Z</time></trkpt><trkpt lat="45.217845" lon="9.0652238"><ele>76.0</ele><time>2026-03-29T09:20:56.407Z</time></trkpt><trkpt lat="45.2178206" lon="9.0651051"><ele>76.0</ele><time>2026-03-29T09:20:58.402Z</time></trkpt><trkpt lat="45.2177922" lon="9.0649979"><ele>76.0</ele><time>2026-03-29T09:21:00.42Z</time></trkpt><trkpt lat="45.2177733" lon="9.0648854"><ele>76.0</ele><time>2026-03-29T09:21:02.406Z</time></trkpt><trkpt lat="45.2177496" lon="9.0647774"><ele>76.0</ele><time>2026-03-29T09:21:04.417Z</time></trkpt><trkpt lat="45.217719" lon="9.0646607"><ele>76.0</ele><time>2026-03-29T09:21:06.403Z</time></trkpt><trkpt lat="45.2176969" lon="9.0645443"><ele>76.0</ele><time>2026-03-29T09:21:08.399Z</time></trkpt><trkpt lat="45.2176726" lon="9.0644229"><ele>76.0</ele><time>2026-03-29T09:21:10.398Z</time></trkpt><trkpt lat="45.2176397" lon="9.0642957"><ele>76.0</ele><time>2026-03-29T09:21:12.395Z</time></trkpt><trkpt lat="45.2176139" lon="9.0641655"><ele>76.0</ele><time>2026-03-29T09:21:14.408Z</time></trkpt><trkpt lat="45.2175917" lon="9.0640486"><ele>76.0</ele><time>2026-03-29T09:21:16.421Z</time></trkpt><trkpt lat="45.2175671" lon="9.0639465"><ele>76.0</ele><time>2026-03-29T09:21:18.402Z</time></trkpt><trkpt lat="45.2175437" lon="9.0638189"><ele>76.0</ele><time>2026-03-29T09:21:20.401Z</time></trkpt><trkpt lat="45.2175149" lon="9.063694"><ele>76.0</ele><time>2026-03-29T09:21:22.407Z</time></trkpt><trkpt lat="45.2174905" lon="9.0635904"><ele>76.0</ele><time>2026-03-29T09:21:24.408Z</time></trkpt><trkpt lat="45.2174686" lon="9.0634946"><ele>76.0</ele><time>2026-03-29T09:21:26.409Z</time></trkpt><trkpt lat="45.2174448" lon="9.0633851"><ele>76.0</ele><time>2026-03-29T09:21:28.408Z</time></trkpt><trkpt lat="45.217423" lon="9.0632719"><ele>76.0</ele><time>2026-03-29T09:21:30.402Z</time></trkpt><trkpt lat="45.2173959" lon="9.0631604"><ele>76.0</ele><time>2026-03-29T09:21:32.405Z</time></trkpt><trkpt lat="45.2173694" lon="9.0630434"><ele>76.0</ele><time>2026-03-29T09:21:34.399Z</time></trkpt><trkpt lat="45.2173527" lon="9.0629346"><ele>76.0</ele><time>2026-03-29T09:21:36.408Z</time></trkpt><trkpt lat="45.217329" lon="9.0628242"><ele>76.0</ele><time>2026-03-29T09:21:38.413Z</time></trkpt><trkpt lat="45.2173079" lon="9.0627306"><ele>76.0</ele><time>2026-03-29T09:21:40.405Z</time></trkpt><trkpt lat="45.2173273" lon="9.0626375"><ele>76.0</ele><time>2026-03-29T09:21:42.482Z</time></trkpt><trkpt lat="45.2173598" lon="9.0625514"><ele>76.0</ele><time>2026-03-29T09:21:44.417Z</time></trkpt><trkpt lat="45.2173569" lon="9.0624339"><ele>76.0</ele><time>2026-03-29T09:21:46.399Z</time></trkpt><trkpt lat="45.2173404" lon="9.0623405"><ele>75.57142857142857</ele><time>2026-03-29T09:21:48.406Z</time></trkpt><trkpt lat="45.2173177" lon="9.0622566"><ele>75.14285714285715</ele><time>2026-03-29T09:21:50.405Z</time></trkpt><trkpt lat="45.2172919" lon="9.0621673"><ele>74.71428571428572</ele><time>2026-03-29T09:21:52.41Z</time></trkpt><trkpt lat="45.21726" lon="9.0620374"><ele>74.28571428571428</ele><time>2026-03-29T09:21:55.413Z</time></trkpt><trkpt lat="45.2172302" lon="9.0619358"><ele>73.85714285714286</ele><time>2026-03-29T09:21:57.396Z</time></trkpt><trkpt lat="45.217198" lon="9.0618402"><ele>73.42857142857143</ele><time>2026-03-29T09:21:59.405Z</time></trkpt><trkpt lat="45.2171726" lon="9.0617572"><ele>73.0</ele><time>2026-03-29T09:22:01.411Z</time></trkpt><trkpt lat="45.2172363" lon="9.0616591"><ele>73.0</ele><time>2026-03-29T09:22:04.404Z</time></trkpt><trkpt lat="45.2173176" lon="9.0616337"><ele>73.0</ele><time>2026-03-29T09:22:06.404Z</time></trkpt><trkpt lat="45.2173736" lon="9.0615799"><ele>73.0</ele><time>2026-03-29T09:22:08.399Z</time></trkpt><trkpt lat="45.217418" lon="9.0615072"><ele>73.0</ele><time>2026-03-29T09:22:10.403Z</time></trkpt><trkpt lat="45.2174648" lon="9.0614247"><ele>73.0</ele><time>2026-03-29T09:22:12.41Z</time></trkpt><trkpt lat="45.2174899" lon="9.0613068"><ele>73.0</ele><time>2026-03-29T09:22:14.433Z</time></trkpt><trkpt lat="45.2175179" lon="9.0612038"><ele>73.5</ele><time>2026-03-29T09:22:16.4Z</time></trkpt><trkpt lat="45.2175582" lon="9.0611272"><ele>74.0</ele><time>2026-03-29T09:22:18.406Z</time></trkpt><trkpt lat="45.217633" lon="9.0610506"><ele>74.5</ele><time>2026-03-29T09:22:21.401Z</time></trkpt><trkpt lat="45.2176855" lon="9.0609991"><ele>75.0</ele><time>2026-03-29T09:22:23.413Z</time></trkpt><trkpt lat="45.2177485" lon="9.0609431"><ele>75.5</ele><time>2026-03-29T09:22:25.405Z</time></trkpt><trkpt lat="45.2178158" lon="9.0608839"><ele>76.0</ele><time>2026-03-29T09:22:27.406Z</time></trkpt><trkpt lat="45.2178846" lon="9.0608331"><ele>76.0</ele><time>2026-03-29T09:22:29.411Z</time></trkpt><trkpt lat="45.2179623" lon="9.0607859"><ele>76.0</ele><time>2026-03-29T09:22:31.405Z</time></trkpt><trkpt lat="45.2180261" lon="9.0607389"><ele>76.0</ele><time>2026-03-29T09:22:33.402Z</time></trkpt><trkpt lat="45.2180996" lon="9.0607184"><ele>76.0</ele><time>2026-03-29T09:22:35.395Z</time></trkpt><trkpt lat="45.2181622" lon="9.0606502"><ele>76.0</ele><time>2026-03-29T09:22:37.4Z</time></trkpt><trkpt lat="45.2181724" lon="9.0605249"><ele>76.0</ele><time>2026-03-29T09:22:39.414Z</time></trkpt><trkpt lat="45.2181266" lon="9.0604126"><ele>76.0</ele><time>2026-03-29T09:22:42.399Z</time></trkpt><trkpt lat="45.2180574" lon="9.0603479"><ele>76.0</ele><time>2026-03-29T09:22:44.403Z</time></trkpt><trkpt lat="45.2179869" lon="9.0602826"><ele>76.0</ele><time>2026-03-29T09:22:46.406Z</time></trkpt><trkpt lat="45.217917" lon="9.0602193"><ele>76.0</ele><time>2026-03-29T09:22:48.4Z</time></trkpt><trkpt lat="45.2178451" lon="9.0601897"><ele>76.0</ele><time>2026-03-29T09:22:50.471Z</time></trkpt><trkpt lat="45.2177847" lon="9.0601638"><ele>76.0</ele><time>2026-03-29T09:22:52.439Z</time></trkpt><trkpt lat="45.217699" lon="9.0600976"><ele>76.0</ele><time>2026-03-29T09:22:55.399Z</time></trkpt><trkpt lat="45.2176608" lon="9.0600058"><ele>76.0</ele><time>2026-03-29T09:22:57.41Z</time></trkpt><trkpt lat="45.2176365" lon="9.0599184"><ele>76.0</ele><time>2026-03-29T09:22:59.409Z</time></trkpt><trkpt lat="45.2176204" lon="9.0598257"><ele>76.0</ele><time>2026-03-29T09:23:01.48Z</time></trkpt><trkpt lat="45.2176072" lon="9.0597292"><ele>76.0</ele><time>2026-03-29T09:23:03.411Z</time></trkpt><trkpt lat="45.217595" lon="9.059626"><ele>76.0</ele><time>2026-03-29T09:23:05.406Z</time></trkpt><trkpt lat="45.2175992" lon="9.0594945"><ele>76.0</ele><time>2026-03-29T09:23:08.396Z</time></trkpt><trkpt lat="45.2176419" lon="9.0594246"><ele>75.5</ele><time>2026-03-29T09:23:10.407Z</time></trkpt><trkpt lat="45.2177106" lon="9.0593695"><ele>75.0</ele><time>2026-03-29T09:23:12.413Z</time></trkpt><trkpt lat="45.2177857" lon="9.05932"><ele>74.5</ele><time>2026-03-29T09:23:14.396Z</time></trkpt><trkpt lat="45.2178512" lon="9.0592777"><ele>74.0</ele><time>2026-03-29T09:23:16.477Z</time></trkpt><trkpt lat="45.2179222" lon="9.059219"><ele>73.5</ele><time>2026-03-29T09:23:18.425Z</time></trkpt><trkpt lat="45.2179843" lon="9.0591652"><ele>73.0</ele><time>2026-03-29T09:23:20.397Z</time></trkpt><trkpt lat="45.218055" lon="9.0591235"><ele>73.14285714285714</ele><time>2026-03-29T09:23:22.398Z</time></trkpt><trkpt lat="45.2181187" lon="9.0591135"><ele>73.28571428571429</ele><time>2026-03-29T09:23:24.396Z</time></trkpt><trkpt lat="45.2181865" lon="9.0591088"><ele>73.42857142857143</ele><time>2026-03-29T09:23:26.396Z</time></trkpt><trkpt lat="45.2182595" lon="9.0591036"><ele>73.57142857142857</ele><time>2026-03-29T09:23:28.405Z</time></trkpt><trkpt lat="45.2183242" lon="9.0591174"><ele>73.71428571428571</ele><time>2026-03-29T09:23:30.411Z</time></trkpt><trkpt lat="45.2184192" lon="9.0591043"><ele>73.85714285714286</ele><time>2026-03-29T09:23:33.407Z</time></trkpt><trkpt lat="45.2184917" lon="9.0591128"><ele>74.0</ele><time>2026-03-29T09:23:35.398Z</time></trkpt><trkpt lat="45.2185588" lon="9.0591309"><ele>74.0</ele><time>2026-03-29T09:23:37.405Z</time></trkpt><trkpt lat="45.2186397" lon="9.0591514"><ele>74.0</ele><time>2026-03-29T09:23:39.405Z</time></trkpt><trkpt lat="45.2187241" lon="9.0592004"><ele>74.0</ele><time>2026-03-29T09:23:41.393Z</time></trkpt><trkpt lat="45.2187895" lon="9.0592532"><ele>74.0</ele><time>2026-03-29T09:23:43.402Z</time></trkpt><trkpt lat="45.2188387" lon="9.0593313"><ele>74.0</ele><time>2026-03-29T09:23:45.404Z</time></trkpt><trkpt lat="45.2189069" lon="9.0593697"><ele>74.0</ele><time>2026-03-29T09:23:47.412Z</time></trkpt><trkpt lat="45.2189797" lon="9.0594544"><ele>73.66666666666667</ele><time>2026-03-29T09:23:50.403Z</time></trkpt><trkpt lat="45.2190717" lon="9.0594531"><ele>73.33333333333334</ele><time>2026-03-29T09:23:53.404Z</time></trkpt><trkpt lat="45.219146" lon="9.0594106"><ele>73.0</ele><time>2026-03-29T09:23:55.395Z</time></trkpt><trkpt lat="45.2192273" lon="9.0593776"><ele>72.66666666666667</ele><time>2026-03-29T09:23:57.412Z</time></trkpt><trkpt lat="45.2193105" lon="9.0593554"><ele>72.33333333333333</ele><time>2026-03-29T09:23:59.408Z</time></trkpt><trkpt lat="45.2193737" lon="9.0593801"><ele>72.0</ele><time>2026-03-29T09:24:01.403Z</time></trkpt><trkpt lat="45.2194356" lon="9.0594381"><ele>72.0</ele><time>2026-03-29T09:24:03.404Z</time></trkpt><trkpt lat="45.2195008" lon="9.0594179"><ele>72.0</ele><time>2026-03-29T09:24:05.406Z</time></trkpt><trkpt lat="45.2195792" lon="9.059422"><ele>72.0</ele><time>2026-03-29T09:24:08.398Z</time></trkpt><trkpt lat="45.2196594" lon="9.0594366"><ele>72.0</ele><time>2026-03-29T09:24:11.411Z</time></trkpt><trkpt lat="45.2197473" lon="9.0594306"><ele>72.0</ele><time>2026-03-29T09:24:14.408Z</time></trkpt><trkpt lat="45.2198075" lon="9.059458"><ele>72.0</ele><time>2026-03-29T09:24:16.392Z</time></trkpt><trkpt lat="45.2198774" lon="9.0594205"><ele>72.14285714285715</ele><time>2026-03-29T09:24:19.404Z</time></trkpt><trkpt lat="45.2199284" lon="9.0593578"><ele>72.28571428571429</ele><time>2026-03-29T09:24:22.401Z</time></trkpt><trkpt lat="45.2199947" lon="9.0593055"><ele>72.42857142857143</ele><time>2026-03-29T09:24:25.393Z</time></trkpt><trkpt lat="45.2200721" lon="9.059336"><ele>72.57142857142858</ele><time>2026-03-29T09:24:28.418Z</time></trkpt><trkpt lat="45.2201572" lon="9.0593281"><ele>72.71428571428572</ele><time>2026-03-29T09:24:31.408Z</time></trkpt><trkpt lat="45.2202219" lon="9.0593386"><ele>72.85714285714286</ele><time>2026-03-29T09:24:33.416Z</time></trkpt><trkpt lat="45.2202865" lon="9.0593562"><ele>73.0</ele><time>2026-03-29T09:24:35.404Z</time></trkpt><trkpt lat="45.2203739" lon="9.0593624"><ele>73.0</ele><time>2026-03-29T09:24:38.396Z</time></trkpt><trkpt lat="45.2204479" lon="9.0593583"><ele>73.0</ele><time>2026-03-29T09:24:41.403Z</time></trkpt><trkpt lat="45.2205228" lon="9.0593422"><ele>73.0</ele><time>2026-03-29T09:24:44.405Z</time></trkpt><trkpt lat="45.2205912" lon="9.0593443"><ele>73.0</ele><time>2026-03-29T09:24:47.411Z</time></trkpt><trkpt lat="45.2206778" lon="9.0593437"><ele>73.0</ele><time>2026-03-29T09:24:51.407Z</time></trkpt><trkpt lat="45.2207694" lon="9.059345"><ele>73.0</ele><time>2026-03-29T09:24:54.402Z</time></trkpt><trkpt lat="45.2208493" lon="9.0593291"><ele>72.71428571428571</ele><time>2026-03-29T09:24:56.397Z</time></trkpt><trkpt lat="45.2209164" lon="9.0593247"><ele>72.42857142857143</ele><time>2026-03-29T09:24:58.401Z</time></trkpt><trkpt lat="45.2209823" lon="9.0592987"><ele>72.14285714285714</ele><time>2026-03-29T09:25:00.407Z</time></trkpt><trkpt lat="45.2210714" lon="9.0592733"><ele>71.85714285714286</ele><time>2026-03-29T09:25:03.403Z</time></trkpt><trkpt lat="45.2211379" lon="9.0592688"><ele>71.57142857142857</ele><time>2026-03-29T09:25:05.402Z</time></trkpt><trkpt lat="45.2212213" lon="9.0592818"><ele>71.28571428571428</ele><time>2026-03-29T09:25:08.4Z</time></trkpt><trkpt lat="45.2212936" lon="9.0592851"><ele>71.0</ele><time>2026-03-29T09:25:11.4Z</time></trkpt><trkpt lat="45.2213746" lon="9.0593083"><ele>71.0</ele><time>2026-03-29T09:25:14.408Z</time></trkpt><trkpt lat="45.2214506" lon="9.0592583"><ele>71.0</ele><time>2026-03-29T09:25:17.402Z</time></trkpt><trkpt lat="45.2215271" lon="9.0591913"><ele>71.0</ele><time>2026-03-29T09:25:20.393Z</time></trkpt><trkpt lat="45.2216156" lon="9.0591436"><ele>71.0</ele><time>2026-03-29T09:25:23.392Z</time></trkpt><trkpt lat="45.2216988" lon="9.0591235"><ele>71.0</ele><time>2026-03-29T09:25:26.399Z</time></trkpt><trkpt lat="45.2217628" lon="9.0590494"><ele>71.0</ele><time>2026-03-29T09:25:29.396Z</time></trkpt><trkpt lat="45.2218123" lon="9.0589842"><ele>70.0</ele><time>2026-03-29T09:25:31.403Z</time></trkpt><trkpt lat="45.2218472" lon="9.0589014"><ele>69.0</ele><time>2026-03-29T09:25:33.403Z</time></trkpt><trkpt lat="45.2219159" lon="9.0588223"><ele>68.0</ele><time>2026-03-29T09:25:36.405Z</time></trkpt><trkpt lat="45.2219905" lon="9.0587831"><ele>67.0</ele><time>2026-03-29T09:25:39.397Z</time></trkpt><trkpt lat="45.2220508" lon="9.0587434"><ele>66.0</ele><time>2026-03-29T09:25:41.404Z</time></trkpt><trkpt lat="45.222131" lon="9.0586684"><ele>65.0</ele><time>2026-03-29T09:25:44.394Z</time></trkpt><trkpt lat="45.2221719" lon="9.0585558"><ele>65.00000000000001</ele><time>2026-03-29T09:25:47.4Z</time></trkpt><trkpt lat="45.2221677" lon="9.0584362"><ele>65.0</ele><time>2026-03-29T09:25:50.398Z</time></trkpt><trkpt lat="45.2222226" lon="9.05837"><ele>65.0</ele><time>2026-03-29T09:25:52.393Z</time></trkpt><trkpt lat="45.2222937" lon="9.0583218"><ele>65.0</ele><time>2026-03-29T09:25:55.401Z</time></trkpt><trkpt lat="45.2223517" lon="9.0582775"><ele>65.0</ele><time>2026-03-29T09:25:57.402Z</time></trkpt><trkpt lat="45.2224212" lon="9.0582507"><ele>65.00000000000001</ele><time>2026-03-29T09:25:59.4Z</time></trkpt><trkpt lat="45.2224922" lon="9.0582192"><ele>65.0</ele><time>2026-03-29T09:26:01.396Z</time></trkpt><trkpt lat="45.2225604" lon="9.0581848"><ele>65.0</ele><time>2026-03-29T09:26:03.402Z</time></trkpt><trkpt lat="45.2226193" lon="9.0581317"><ele>65.0</ele><time>2026-03-29T09:26:05.469Z</time></trkpt><trkpt lat="45.2226763" lon="9.0580753"><ele>65.0</ele><time>2026-03-29T09:26:07.41Z</time></trkpt><trkpt lat="45.2227668" lon="9.0580535"><ele>65.0</ele><time>2026-03-29T09:26:10.394Z</time></trkpt><trkpt lat="45.2228409" lon="9.0580717"><ele>65.0</ele><time>2026-03-29T09:26:12.406Z</time></trkpt><trkpt lat="45.2229074" lon="9.0580842"><ele>65.0</ele><time>2026-03-29T09:26:14.405Z</time></trkpt><trkpt lat="45.222991" lon="9.0580469"><ele>65.00000000000001</ele><time>2026-03-29T09:26:17.4Z</time></trkpt><trkpt lat="45.2230572" lon="9.0580304"><ele>65.0</ele><time>2026-03-29T09:26:19.402Z</time></trkpt><trkpt lat="45.2231254" lon="9.0580567"><ele>65.0</ele><time>2026-03-29T09:26:21.411Z</time></trkpt><trkpt lat="45.2231914" lon="9.0580859"><ele>65.0</ele><time>2026-03-29T09:26:23.403Z</time></trkpt><trkpt lat="45.2232663" lon="9.058112"><ele>65.0</ele><time>2026-03-29T09:26:25.402Z</time></trkpt><trkpt lat="45.2233351" lon="9.0581433"><ele>65.00000000000001</ele><time>2026-03-29T09:26:27.395Z</time></trkpt><trkpt lat="45.2234049" lon="9.0581616"><ele>65.0</ele><time>2026-03-29T09:26:29.401Z</time></trkpt><trkpt lat="45.2234757" lon="9.0581822"><ele>65.66666666666667</ele><time>2026-03-29T09:26:31.391Z</time></trkpt><trkpt lat="45.2235413" lon="9.0582122"><ele>66.33333333333334</ele><time>2026-03-29T09:26:33.398Z</time></trkpt><trkpt lat="45.2236266" lon="9.0582385"><ele>67.0</ele><time>2026-03-29T09:26:35.4Z</time></trkpt><trkpt lat="45.223719" lon="9.0582355"><ele>67.66666666666667</ele><time>2026-03-29T09:26:37.402Z</time></trkpt><trkpt lat="45.2238213" lon="9.0582508"><ele>68.33333333333333</ele><time>2026-03-29T09:26:39.4Z</time></trkpt><trkpt lat="45.2238822" lon="9.0582766"><ele>69.0</ele><time>2026-03-29T09:26:40.397Z</time></trkpt><trkpt lat="45.2239501" lon="9.0582935"><ele>69.71428571428572</ele><time>2026-03-29T09:26:41.418Z</time></trkpt><trkpt lat="45.2240199" lon="9.0582994"><ele>70.42857142857143</ele><time>2026-03-29T09:26:42.406Z</time></trkpt><trkpt lat="45.2240977" lon="9.0583035"><ele>71.14285714285714</ele><time>2026-03-29T09:26:43.398Z</time></trkpt><trkpt lat="45.2241681" lon="9.0583056"><ele>71.85714285714286</ele><time>2026-03-29T09:26:44.467Z</time></trkpt><trkpt lat="45.2242457" lon="9.0583152"><ele>72.57142857142857</ele><time>2026-03-29T09:26:45.396Z</time></trkpt><trkpt lat="45.2243183" lon="9.0583192"><ele>73.28571428571429</ele><time>2026-03-29T09:26:46.419Z</time></trkpt><trkpt lat="45.224382" lon="9.0583165"><ele>74.0</ele><time>2026-03-29T09:26:47.399Z</time></trkpt><trkpt lat="45.2245092" lon="9.0582868"><ele>74.0</ele><time>2026-03-29T09:26:49.397Z</time></trkpt><trkpt lat="45.2246226" lon="9.058275"><ele>74.0</ele><time>2026-03-29T09:26:51.399Z</time></trkpt><trkpt lat="45.2247007" lon="9.0583351"><ele>74.0</ele><time>2026-03-29T09:26:53.396Z</time></trkpt><trkpt lat="45.2247503" lon="9.0584176"><ele>74.0</ele><time>2026-03-29T09:26:55.401Z</time></trkpt><trkpt lat="45.2247584" lon="9.0585142"><ele>74.0</ele><time>2026-03-29T09:26:57.402Z</time></trkpt><trkpt lat="45.2247459" lon="9.0586023"><ele>74.0</ele><time>2026-03-29T09:26:59.396Z</time></trkpt><trkpt lat="45.2247377" lon="9.058692"><ele>74.0</ele><time>2026-03-29T09:27:01.4Z</time></trkpt><trkpt lat="45.2247793" lon="9.0587632"><ele>74.0</ele><time>2026-03-29T09:27:04.4Z</time></trkpt><trkpt lat="45.224835" lon="9.058706"><ele>74.0</ele><time>2026-03-29T09:27:06.398Z</time></trkpt><trkpt lat="45.2248999" lon="9.0586605"><ele>74.0</ele><time>2026-03-29T09:27:08.394Z</time></trkpt><trkpt lat="45.2249736" lon="9.0585828"><ele>74.0</ele><time>2026-03-29T09:27:10.408Z</time></trkpt><trkpt lat="45.2250332" lon="9.0585297"><ele>74.0</ele><time>2026-03-29T09:27:12.402Z</time></trkpt><trkpt lat="45.2250864" lon="9.0584684"><ele>74.0</ele><time>2026-03-29T09:27:14.403Z</time></trkpt><trkpt lat="45.2251439" lon="9.0584077"><ele>74.14285714285714</ele><time>2026-03-29T09:27:16.402Z</time></trkpt><trkpt lat="45.2251903" lon="9.0583391"><ele>74.28571428571428</ele><time>2026-03-29T09:27:18.412Z</time></trkpt><trkpt lat="45.2252345" lon="9.0582534"><ele>74.42857142857142</ele><time>2026-03-29T09:27:20.476Z</time></trkpt><trkpt lat="45.2252778" lon="9.0581814"><ele>74.57142857142857</ele><time>2026-03-29T09:27:22.414Z</time></trkpt><trkpt lat="45.2253314" lon="9.058074"><ele>74.71428571428571</ele><time>2026-03-29T09:27:25.408Z</time></trkpt><trkpt lat="45.225374" lon="9.0579895"><ele>74.85714285714285</ele><time>2026-03-29T09:27:27.414Z</time></trkpt><trkpt lat="45.2254107" lon="9.0578976"><ele>75.0</ele><time>2026-03-29T09:27:29.406Z</time></trkpt><trkpt lat="45.2254449" lon="9.0577882"><ele>75.0</ele><time>2026-03-29T09:27:31.401Z</time></trkpt><trkpt lat="45.2254844" lon="9.057674"><ele>75.0</ele><time>2026-03-29T09:27:33.399Z</time></trkpt><trkpt lat="45.2255249" lon="9.0575788"><ele>75.0</ele><time>2026-03-29T09:27:35.402Z</time></trkpt><trkpt lat="45.2255701" lon="9.0574817"><ele>75.0</ele><time>2026-03-29T09:27:37.402Z</time></trkpt><trkpt lat="45.2256192" lon="9.0573743"><ele>75.0</ele><time>2026-03-29T09:27:39.399Z</time></trkpt><trkpt lat="45.2256656" lon="9.0572476"><ele>75.0</ele><time>2026-03-29T09:27:41.404Z</time></trkpt><trkpt lat="45.2257099" lon="9.0571531"><ele>75.33333333333333</ele><time>2026-03-29T09:27:43.401Z</time></trkpt><trkpt lat="45.2257516" lon="9.0570394"><ele>75.66666666666667</ele><time>2026-03-29T09:27:45.393Z</time></trkpt><trkpt lat="45.2258024" lon="9.0569498"><ele>76.0</ele><time>2026-03-29T09:27:47.407Z</time></trkpt><trkpt lat="45.2258508" lon="9.0568605"><ele>76.33333333333334</ele><time>2026-03-29T09:27:49.4Z</time></trkpt><trkpt lat="45.2259069" lon="9.0567949"><ele>76.66666666666667</ele><time>2026-03-29T09:27:51.404Z</time></trkpt><trkpt lat="45.2259764" lon="9.0567318"><ele>77.0</ele><time>2026-03-29T09:27:53.405Z</time></trkpt><trkpt lat="45.2260503" lon="9.0566725"><ele>76.5</ele><time>2026-03-29T09:27:55.404Z</time></trkpt><trkpt lat="45.2261262" lon="9.0566028"><ele>76.0</ele><time>2026-03-29T09:27:57.419Z</time></trkpt><trkpt lat="45.2261893" lon="9.0565219"><ele>75.5</ele><time>2026-03-29T09:27:59.401Z</time></trkpt><trkpt lat="45.2262273" lon="9.0564219"><ele>75.0</ele><time>2026-03-29T09:28:01.406Z</time></trkpt><trkpt lat="45.2262734" lon="9.0563124"><ele>74.5</ele><time>2026-03-29T09:28:04.397Z</time></trkpt><trkpt lat="45.2263077" lon="9.0562321"><ele>74.0</ele><time>2026-03-29T09:28:06.407Z</time></trkpt><trkpt lat="45.2263429" lon="9.0561326"><ele>74.0</ele><time>2026-03-29T09:28:08.399Z</time></trkpt><trkpt lat="45.2263869" lon="9.0560451"><ele>74.0</ele><time>2026-03-29T09:28:10.397Z</time></trkpt><trkpt lat="45.2264302" lon="9.0559586"><ele>74.0</ele><time>2026-03-29T09:28:12.409Z</time></trkpt><trkpt lat="45.2264762" lon="9.0558638"><ele>74.0</ele><time>2026-03-29T09:28:14.403Z</time></trkpt><trkpt lat="45.2265231" lon="9.0557457"><ele>74.0</ele><time>2026-03-29T09:28:16.405Z</time></trkpt><trkpt lat="45.2265637" lon="9.0556489"><ele>74.0</ele><time>2026-03-29T09:28:18.396Z</time></trkpt><trkpt lat="45.2266052" lon="9.0555213"><ele>74.16666666666667</ele><time>2026-03-29T09:28:20.399Z</time></trkpt><trkpt lat="45.2266389" lon="9.0553947"><ele>74.33333333333334</ele><time>2026-03-29T09:28:22.409Z</time></trkpt><trkpt lat="45.2266815" lon="9.0552743"><ele>74.5</ele><time>2026-03-29T09:28:24.404Z</time></trkpt><trkpt lat="45.2267204" lon="9.0551552"><ele>74.66666666666667</ele><time>2026-03-29T09:28:26.475Z</time></trkpt><trkpt lat="45.2267515" lon="9.0550493"><ele>74.83333333333333</ele><time>2026-03-29T09:28:28.404Z</time></trkpt><trkpt lat="45.2267868" lon="9.0549544"><ele>75.0</ele><time>2026-03-29T09:28:30.401Z</time></trkpt><trkpt lat="45.2268269" lon="9.054867"><ele>75.0</ele><time>2026-03-29T09:28:32.394Z</time></trkpt><trkpt lat="45.2268677" lon="9.0547823"><ele>75.0</ele><time>2026-03-29T09:28:34.403Z</time></trkpt><trkpt lat="45.2268984" lon="9.0546495"><ele>75.0</ele><time>2026-03-29T09:28:36.397Z</time></trkpt><trkpt lat="45.2269353" lon="9.0545282"><ele>75.0</ele><time>2026-03-29T09:28:38.395Z</time></trkpt><trkpt lat="45.2269731" lon="9.0544043"><ele>75.0</ele><time>2026-03-29T09:28:40.403Z</time></trkpt><trkpt lat="45.2269994" lon="9.0542951"><ele>75.0</ele><time>2026-03-29T09:28:42.403Z</time></trkpt><trkpt lat="45.2270412" lon="9.0541856"><ele>74.16666666666667</ele><time>2026-03-29T09:28:45.412Z</time></trkpt><trkpt lat="45.2270791" lon="9.0541055"><ele>73.33333333333333</ele><time>2026-03-29T09:28:47.403Z</time></trkpt><trkpt lat="45.2271098" lon="9.0540151"><ele>72.5</ele><time>2026-03-29T09:28:49.405Z</time></trkpt><trkpt lat="45.2271481" lon="9.0539186"><ele>71.66666666666666</ele><time>2026-03-29T09:28:51.407Z</time></trkpt><trkpt lat="45.2271863" lon="9.0538224"><ele>70.83333333333333</ele><time>2026-03-29T09:28:53.403Z</time></trkpt><trkpt lat="45.2272271" lon="9.0537226"><ele>70.0</ele><time>2026-03-29T09:28:55.398Z</time></trkpt><trkpt lat="45.2272683" lon="9.0536248"><ele>71.16666666666666</ele><time>2026-03-29T09:28:57.417Z</time></trkpt><trkpt lat="45.2273252" lon="9.0535524"><ele>72.33333333333333</ele><time>2026-03-29T09:28:59.408Z</time></trkpt><trkpt lat="45.2273994" lon="9.0535254"><ele>73.5</ele><time>2026-03-29T09:29:01.405Z</time></trkpt><trkpt lat="45.2274687" lon="9.0535141"><ele>74.66666666666667</ele><time>2026-03-29T09:29:03.399Z</time></trkpt><trkpt lat="45.2275614" lon="9.053534"><ele>75.83333333333334</ele><time>2026-03-29T09:29:05.395Z</time></trkpt><trkpt lat="45.2276357" lon="9.0535584"><ele>77.0</ele><time>2026-03-29T09:29:07.404Z</time></trkpt><trkpt lat="45.2277068" lon="9.0536183"><ele>77.0</ele><time>2026-03-29T09:29:09.405Z</time></trkpt><trkpt lat="45.2277881" lon="9.0536661"><ele>77.0</ele><time>2026-03-29T09:29:11.4Z</time></trkpt><trkpt lat="45.2278619" lon="9.0537231"><ele>77.0</ele><time>2026-03-29T09:29:13.398Z</time></trkpt><trkpt lat="45.2279339" lon="9.0537729"><ele>77.0</ele><time>2026-03-29T09:29:15.398Z</time></trkpt><trkpt lat="45.2280306" lon="9.0538073"><ele>77.0</ele><time>2026-03-29T09:29:17.48Z</time></trkpt><trkpt lat="45.2281052" lon="9.0538475"><ele>77.0</ele><time>2026-03-29T09:29:19.403Z</time></trkpt><trkpt lat="45.2281739" lon="9.0538871"><ele>77.33333333333334</ele><time>2026-03-29T09:29:21.397Z</time></trkpt><trkpt lat="45.2282358" lon="9.0539177"><ele>77.66666666666667</ele><time>2026-03-29T09:29:23.398Z</time></trkpt><trkpt lat="45.2283235" lon="9.053917"><ele>78.0</ele><time>2026-03-29T09:29:26.403Z</time></trkpt><trkpt lat="45.2283919" lon="9.053842"><ele>78.33333333333333</ele><time>2026-03-29T09:29:29.4Z</time></trkpt><trkpt lat="45.228461" lon="9.0537488"><ele>78.66666666666666</ele><time>2026-03-29T09:29:32.402Z</time></trkpt><trkpt lat="45.2285074" lon="9.0536837"><ele>79.0</ele><time>2026-03-29T09:29:34.397Z</time></trkpt><trkpt lat="45.2285476" lon="9.0535955"><ele>79.0</ele><time>2026-03-29T09:29:36.394Z</time></trkpt><trkpt lat="45.2285979" lon="9.0535051"><ele>79.0</ele><time>2026-03-29T09:29:38.399Z</time></trkpt><trkpt lat="45.2286145" lon="9.0533717"><ele>79.0</ele><time>2026-03-29T09:29:40.394Z</time></trkpt><trkpt lat="45.2286289" lon="9.0532209"><ele>79.0</ele><time>2026-03-29T09:29:42.407Z</time></trkpt><trkpt lat="45.2286421" lon="9.053079"><ele>79.0</ele><time>2026-03-29T09:29:44.402Z</time></trkpt><trkpt lat="45.2286499" lon="9.0529394"><ele>78.5</ele><time>2026-03-29T09:29:46.4Z</time></trkpt><trkpt lat="45.2286593" lon="9.0528287"><ele>78.0</ele><time>2026-03-29T09:29:48.392Z</time></trkpt><trkpt lat="45.228669" lon="9.0527257"><ele>77.5</ele><time>2026-03-29T09:29:50.395Z</time></trkpt><trkpt lat="45.2286784" lon="9.0526115"><ele>77.0</ele><time>2026-03-29T09:29:52.4Z</time></trkpt><trkpt lat="45.2286866" lon="9.0524906"><ele>76.5</ele><time>2026-03-29T09:29:54.48Z</time></trkpt><trkpt lat="45.2286983" lon="9.052378"><ele>76.0</ele><time>2026-03-29T09:29:56.47Z</time></trkpt><trkpt lat="45.228705" lon="9.0522779"><ele>76.0</ele><time>2026-03-29T09:29:58.409Z</time></trkpt><trkpt lat="45.2287157" lon="9.0521477"><ele>76.0</ele><time>2026-03-29T09:30:01.411Z</time></trkpt><trkpt lat="45.2287289" lon="9.0520504"><ele>76.0</ele><time>2026-03-29T09:30:03.397Z</time></trkpt><trkpt lat="45.2287301" lon="9.0519409"><ele>76.0</ele><time>2026-03-29T09:30:05.396Z</time></trkpt><trkpt lat="45.2287403" lon="9.0518259"><ele>76.0</ele><time>2026-03-29T09:30:07.4Z</time></trkpt><trkpt lat="45.2287498" lon="9.0517159"><ele>76.0</ele><time>2026-03-29T09:30:09.397Z</time></trkpt><trkpt lat="45.228756" lon="9.0516263"><ele>76.5</ele><time>2026-03-29T09:30:11.397Z</time></trkpt><trkpt lat="45.2287036" lon="9.0515324"><ele>77.0</ele><time>2026-03-29T09:30:14.395Z</time></trkpt><trkpt lat="45.2286246" lon="9.0514981"><ele>77.5</ele><time>2026-03-29T09:30:16.397Z</time></trkpt><trkpt lat="45.2285502" lon="9.0514878"><ele>78.0</ele><time>2026-03-29T09:30:18.403Z</time></trkpt><trkpt lat="45.2284975" lon="9.0514107"><ele>78.5</ele><time>2026-03-29T09:30:20.408Z</time></trkpt><trkpt lat="45.2284881" lon="9.0513041"><ele>79.0</ele><time>2026-03-29T09:30:22.413Z</time></trkpt><trkpt lat="45.2285048" lon="9.0511903"><ele>79.0</ele><time>2026-03-29T09:30:24.4Z</time></trkpt><trkpt lat="45.2285276" lon="9.0510747"><ele>79.0</ele><time>2026-03-29T09:30:26.398Z</time></trkpt><trkpt lat="45.2285483" lon="9.0509661"><ele>79.0</ele><time>2026-03-29T09:30:28.395Z</time></trkpt><trkpt lat="45.2285678" lon="9.0508583"><ele>79.0</ele><time>2026-03-29T09:30:30.397Z</time></trkpt><trkpt lat="45.2285894" lon="9.0507574"><ele>79.0</ele><time>2026-03-29T09:30:32.398Z</time></trkpt><trkpt lat="45.228609" lon="9.0506497"><ele>79.0</ele><time>2026-03-29T09:30:34.399Z</time></trkpt><trkpt lat="45.2286314" lon="9.0505367"><ele>79.0</ele><time>2026-03-29T09:30:36.398Z</time></trkpt><trkpt lat="45.2286598" lon="9.0504322"><ele>79.0</ele><time>2026-03-29T09:30:38.401Z</time></trkpt><trkpt lat="45.2286913" lon="9.0503206"><ele>79.0</ele><time>2026-03-29T09:30:40.399Z</time></trkpt><trkpt lat="45.2287168" lon="9.0502178"><ele>79.0</ele><time>2026-03-29T09:30:42.402Z</time></trkpt><trkpt lat="45.2286875" lon="9.0501035"><ele>79.0</ele><time>2026-03-29T09:30:45.403Z</time></trkpt><trkpt lat="45.2286187" lon="9.0500709"><ele>79.0</ele><time>2026-03-29T09:30:47.402Z</time></trkpt><trkpt lat="45.2285287" lon="9.0500416"><ele>79.0</ele><time>2026-03-29T09:30:49.404Z</time></trkpt><trkpt lat="45.2284483" lon="9.0500014"><ele>79.0</ele><time>2026-03-29T09:30:51.406Z</time></trkpt><trkpt lat="45.2283794" lon="9.0499246"><ele>79.0</ele><time>2026-03-29T09:30:53.399Z</time></trkpt><trkpt lat="45.2283617" lon="9.0498067"><ele>79.0</ele><time>2026-03-29T09:30:55.4Z</time></trkpt><trkpt lat="45.2283774" lon="9.0497057"><ele>79.0</ele><time>2026-03-29T09:30:57.404Z</time></trkpt><trkpt lat="45.228398" lon="9.0495787"><ele>79.0</ele><time>2026-03-29T09:30:59.402Z</time></trkpt><trkpt lat="45.2284173" lon="9.0494436"><ele>79.0</ele><time>2026-03-29T09:31:01.397Z</time></trkpt><trkpt lat="45.2284272" lon="9.0493239"><ele>79.0</ele><time>2026-03-29T09:31:03.4Z</time></trkpt><trkpt lat="45.2284408" lon="9.0492136"><ele>79.0</ele><time>2026-03-29T09:31:05.395Z</time></trkpt><trkpt lat="45.2284612" lon="9.0490938"><ele>79.0</ele><time>2026-03-29T09:31:07.408Z</time></trkpt><trkpt lat="45.2284758" lon="9.0489644"><ele>79.0</ele><time>2026-03-29T09:31:10.403Z</time></trkpt><trkpt lat="45.2284797" lon="9.0488595"><ele>79.0</ele><time>2026-03-29T09:31:12.407Z</time></trkpt><trkpt lat="45.228495" lon="9.0487431"><ele>79.0</ele><time>2026-03-29T09:31:14.398Z</time></trkpt><trkpt lat="45.2285132" lon="9.0486212"><ele>79.0</ele><time>2026-03-29T09:31:16.395Z</time></trkpt><trkpt lat="45.2285248" lon="9.0485122"><ele>79.0</ele><time>2026-03-29T09:31:18.403Z</time></trkpt><trkpt lat="45.2285294" lon="9.0483977"><ele>79.0</ele><time>2026-03-29T09:31:20.4Z</time></trkpt><trkpt lat="45.2285388" lon="9.048282"><ele>79.0</ele><time>2026-03-29T09:31:22.395Z</time></trkpt><trkpt lat="45.2285543" lon="9.0481491"><ele>79.0</ele><time>2026-03-29T09:31:24.406Z</time></trkpt><trkpt lat="45.2285735" lon="9.0480028"><ele>78.4</ele><time>2026-03-29T09:31:26.483Z</time></trkpt><trkpt lat="45.2285916" lon="9.0478582"><ele>77.80000000000001</ele><time>2026-03-29T09:31:28.412Z</time></trkpt><trkpt lat="45.2286056" lon="9.0477183"><ele>77.19999999999999</ele><time>2026-03-29T09:31:30.404Z</time></trkpt><trkpt lat="45.2286263" lon="9.0475758"><ele>76.6</ele><time>2026-03-29T09:31:32.393Z</time></trkpt><trkpt lat="45.2286468" lon="9.0474306"><ele>76.0</ele><time>2026-03-29T09:31:34.402Z</time></trkpt><trkpt lat="45.2286686" lon="9.0472881"><ele>75.83333333333333</ele><time>2026-03-29T09:31:36.464Z</time></trkpt><trkpt lat="45.2286836" lon="9.0471501"><ele>75.66666666666666</ele><time>2026-03-29T09:31:38.492Z</time></trkpt><trkpt lat="45.2286649" lon="9.0470227"><ele>75.5</ele><time>2026-03-29T09:31:40.416Z</time></trkpt><trkpt lat="45.2286228" lon="9.0469312"><ele>75.33333333333333</ele><time>2026-03-29T09:31:42.396Z</time></trkpt><trkpt lat="45.2285647" lon="9.0468766"><ele>75.16666666666667</ele><time>2026-03-29T09:31:44.405Z</time></trkpt><trkpt lat="45.2284767" lon="9.0468939"><ele>75.0</ele><time>2026-03-29T09:31:47.395Z</time></trkpt><trkpt lat="45.2284006" lon="9.046891"><ele>75.0</ele><time>2026-03-29T09:31:49.399Z</time></trkpt><trkpt lat="45.2283076" lon="9.0468614"><ele>75.0</ele><time>2026-03-29T09:31:51.406Z</time></trkpt><trkpt lat="45.2282267" lon="9.046837"><ele>75.0</ele><time>2026-03-29T09:31:53.412Z</time></trkpt><trkpt lat="45.2281389" lon="9.0468062"><ele>75.0</ele><time>2026-03-29T09:31:55.404Z</time></trkpt><trkpt lat="45.2280498" lon="9.0467821"><ele>75.0</ele><time>2026-03-29T09:31:57.406Z</time></trkpt><trkpt lat="45.2279638" lon="9.0467627"><ele>75.0</ele><time>2026-03-29T09:31:59.397Z</time></trkpt><trkpt lat="45.2278793" lon="9.0467389"><ele>75.0</ele><time>2026-03-29T09:32:01.402Z</time></trkpt><trkpt lat="45.2277949" lon="9.0467049"><ele>75.0</ele><time>2026-03-29T09:32:03.401Z</time></trkpt><trkpt lat="45.2277118" lon="9.0466761"><ele>75.0</ele><time>2026-03-29T09:32:05.397Z</time></trkpt><trkpt lat="45.2276293" lon="9.0466536"><ele>75.0</ele><time>2026-03-29T09:32:07.409Z</time></trkpt><trkpt lat="45.2275399" lon="9.0466277"><ele>75.0</ele><time>2026-03-29T09:32:09.403Z</time></trkpt><trkpt lat="45.2274559" lon="9.0466016"><ele>75.0</ele><time>2026-03-29T09:32:11.403Z</time></trkpt><trkpt lat="45.2273812" lon="9.0465838"><ele>75.0</ele><time>2026-03-29T09:32:13.397Z</time></trkpt><trkpt lat="45.2273134" lon="9.0465568"><ele>75.0</ele><time>2026-03-29T09:32:15.398Z</time></trkpt><trkpt lat="45.2272416" lon="9.0465068"><ele>75.0</ele><time>2026-03-29T09:32:17.398Z</time></trkpt><trkpt lat="45.2271813" lon="9.0464044"><ele>75.0</ele><time>2026-03-29T09:32:19.395Z</time></trkpt><trkpt lat="45.227148" lon="9.0462918"><ele>75.0</ele><time>2026-03-29T09:32:21.397Z</time></trkpt><trkpt lat="45.2271452" lon="9.0461942"><ele>75.0</ele><time>2026-03-29T09:32:23.396Z</time></trkpt><trkpt lat="45.2271389" lon="9.046096"><ele>74.83333333333333</ele><time>2026-03-29T09:32:25.397Z</time></trkpt><trkpt lat="45.227132" lon="9.0459954"><ele>74.66666666666667</ele><time>2026-03-29T09:32:27.408Z</time></trkpt><trkpt lat="45.2271243" lon="9.0459001"><ele>74.5</ele><time>2026-03-29T09:32:29.4Z</time></trkpt><trkpt lat="45.2271158" lon="9.0458072"><ele>74.33333333333334</ele><time>2026-03-29T09:32:31.392Z</time></trkpt><trkpt lat="45.2270813" lon="9.045689"><ele>74.16666666666667</ele><time>2026-03-29T09:32:34.401Z</time></trkpt><trkpt lat="45.2269915" lon="9.0456487"><ele>74.0</ele><time>2026-03-29T09:32:37.399Z</time></trkpt><trkpt lat="45.2269221" lon="9.0456802"><ele>74.0</ele><time>2026-03-29T09:32:39.406Z</time></trkpt><trkpt lat="45.2268437" lon="9.045806"><ele>74.0</ele><time>2026-03-29T09:32:41.399Z</time></trkpt><trkpt lat="45.2268644" lon="9.0459435"><ele>74.0</ele><time>2026-03-29T09:32:43.393Z</time></trkpt><trkpt lat="45.2269091" lon="9.0461039"><ele>74.0</ele><time>2026-03-29T09:32:45.403Z</time></trkpt><trkpt lat="45.2269159" lon="9.0462061"><ele>74.0</ele><time>2026-03-29T09:32:46.408Z</time></trkpt><trkpt lat="45.2269021" lon="9.046323"><ele>74.0</ele><time>2026-03-29T09:32:47.398Z</time></trkpt><trkpt lat="45.2268778" lon="9.0464141"><ele>74.0</ele><time>2026-03-29T09:32:48.404Z</time></trkpt><trkpt lat="45.2267996" lon="9.0465348"><ele>74.0</ele><time>2026-03-29T09:32:50.402Z</time></trkpt><trkpt lat="45.2267566" lon="9.0466219"><ele>74.0</ele><time>2026-03-29T09:32:51.394Z</time></trkpt><trkpt lat="45.2267041" lon="9.0466812"><ele>74.0</ele><time>2026-03-29T09:32:52.406Z</time></trkpt><trkpt lat="45.2266204" lon="9.0467631"><ele>74.0</ele><time>2026-03-29T09:32:54.406Z</time></trkpt><trkpt lat="45.2265143" lon="9.0467808"><ele>72.33333333333334</ele><time>2026-03-29T09:32:56.461Z</time></trkpt><trkpt lat="45.2264464" lon="9.0468008"><ele>70.66666666666667</ele><time>2026-03-29T09:32:57.394Z</time></trkpt><trkpt lat="45.2263731" lon="9.0468159"><ele>69.0</ele><time>2026-03-29T09:32:58.407Z</time></trkpt><trkpt lat="45.2263016" lon="9.0468135"><ele>67.33333333333333</ele><time>2026-03-29T09:32:59.397Z</time></trkpt><trkpt lat="45.2262348" lon="9.0468134"><ele>65.66666666666666</ele><time>2026-03-29T09:33:00.39Z</time></trkpt><trkpt lat="45.2261325" lon="9.0468265"><ele>64.0</ele><time>2026-03-29T09:33:02.397Z</time></trkpt><trkpt lat="45.2260256" lon="9.0468453"><ele>63.99999999999999</ele><time>2026-03-29T09:33:04.392Z</time></trkpt><trkpt lat="45.2259324" lon="9.0468537"><ele>64.0</ele><time>2026-03-29T09:33:06.397Z</time></trkpt><trkpt lat="45.2258496" lon="9.046862"><ele>64.0</ele><time>2026-03-29T09:33:08.466Z</time></trkpt><trkpt lat="45.2257531" lon="9.0468813"><ele>64.0</ele><time>2026-03-29T09:33:10.408Z</time></trkpt><trkpt lat="45.2256733" lon="9.0468862"><ele>63.99999999999999</ele><time>2026-03-29T09:33:12.403Z</time></trkpt><trkpt lat="45.2255934" lon="9.0468943"><ele>64.0</ele><time>2026-03-29T09:33:14.4Z</time></trkpt><trkpt lat="45.2255177" lon="9.0469033"><ele>64.16666666666666</ele><time>2026-03-29T09:33:16.403Z</time></trkpt><trkpt lat="45.2254411" lon="9.0469166"><ele>64.33333333333333</ele><time>2026-03-29T09:33:18.396Z</time></trkpt><trkpt lat="45.2253676" lon="9.046897"><ele>64.5</ele><time>2026-03-29T09:33:20.402Z</time></trkpt><trkpt lat="45.225311" lon="9.0468385"><ele>64.66666666666667</ele><time>2026-03-29T09:33:22.395Z</time></trkpt><trkpt lat="45.2252468" lon="9.0467744"><ele>64.83333333333334</ele><time>2026-03-29T09:33:26.397Z</time></trkpt><trkpt lat="45.2251797" lon="9.0466826"><ele>65.0</ele><time>2026-03-29T09:33:29.408Z</time></trkpt><trkpt lat="45.2251345" lon="9.0466037"><ele>65.16666666666667</ele><time>2026-03-29T09:33:31.403Z</time></trkpt><trkpt lat="45.2251246" lon="9.0464899"><ele>65.33333333333334</ele><time>2026-03-29T09:33:33.397Z</time></trkpt><trkpt lat="45.2251579" lon="9.0463841"><ele>65.5</ele><time>2026-03-29T09:33:35.392Z</time></trkpt><trkpt lat="45.2252006" lon="9.0462951"><ele>65.66666666666667</ele><time>2026-03-29T09:33:37.397Z</time></trkpt><trkpt lat="45.2252421" lon="9.0461764"><ele>65.83333333333333</ele><time>2026-03-29T09:33:39.396Z</time></trkpt><trkpt lat="45.2252836" lon="9.0460848"><ele>66.0</ele><time>2026-03-29T09:33:41.395Z</time></trkpt><trkpt lat="45.2253278" lon="9.0459719"><ele>66.0</ele><time>2026-03-29T09:33:43.399Z</time></trkpt><trkpt lat="45.2253654" lon="9.0458376"><ele>66.0</ele><time>2026-03-29T09:33:45.404Z</time></trkpt><trkpt lat="45.2254065" lon="9.0457238"><ele>66.0</ele><time>2026-03-29T09:33:47.403Z</time></trkpt><trkpt lat="45.2254379" lon="9.0456298"><ele>66.0</ele><time>2026-03-29T09:33:49.476Z</time></trkpt><trkpt lat="45.2254524" lon="9.0455326"><ele>66.0</ele><time>2026-03-29T09:33:51.406Z</time></trkpt><trkpt lat="45.225472" lon="9.0454427"><ele>66.0</ele><time>2026-03-29T09:33:53.398Z</time></trkpt><trkpt lat="45.2255138" lon="9.0453399"><ele>66.0</ele><time>2026-03-29T09:33:55.404Z</time></trkpt><trkpt lat="45.2255681" lon="9.0452259"><ele>66.0</ele><time>2026-03-29T09:33:57.405Z</time></trkpt><trkpt lat="45.2255903" lon="9.0451163"><ele>66.0</ele><time>2026-03-29T09:33:59.394Z</time></trkpt><trkpt lat="45.2255805" lon="9.0449992"><ele>66.0</ele><time>2026-03-29T09:34:02.399Z</time></trkpt><trkpt lat="45.2255623" lon="9.0449136"><ele>66.0</ele><time>2026-03-29T09:34:04.407Z</time></trkpt><trkpt lat="45.2255525" lon="9.0448071"><ele>66.0</ele><time>2026-03-29T09:34:06.407Z</time></trkpt><trkpt lat="45.2255403" lon="9.044702"><ele>65.71428571428571</ele><time>2026-03-29T09:34:08.389Z</time></trkpt><trkpt lat="45.225516" lon="9.0446186"><ele>65.42857142857143</ele><time>2026-03-29T09:34:10.392Z</time></trkpt><trkpt lat="45.2254817" lon="9.0445404"><ele>65.14285714285714</ele><time>2026-03-29T09:34:12.394Z</time></trkpt><trkpt lat="45.2254376" lon="9.0444629"><ele>64.85714285714286</ele><time>2026-03-29T09:34:14.4Z</time></trkpt><trkpt lat="45.2253778" lon="9.0443775"><ele>64.57142857142857</ele><time>2026-03-29T09:34:16.397Z</time></trkpt><trkpt lat="45.2253424" lon="9.0442927"><ele>64.28571428571428</ele><time>2026-03-29T09:34:18.405Z</time></trkpt><trkpt lat="45.2252964" lon="9.0441946"><ele>64.0</ele><time>2026-03-29T09:34:21.399Z</time></trkpt><trkpt lat="45.2252327" lon="9.0441399"><ele>63.99999999999999</ele><time>2026-03-29T09:34:23.403Z</time></trkpt><trkpt lat="45.2251523" lon="9.0441085"><ele>64.0</ele><time>2026-03-29T09:34:26.4Z</time></trkpt><trkpt lat="45.2250713" lon="9.0441287"><ele>64.0</ele><time>2026-03-29T09:34:46.45Z</time></trkpt><trkpt lat="45.225002" lon="9.0442234"><ele>64.0</ele><time>2026-03-29T09:34:57.42Z</time></trkpt><trkpt lat="45.2249337" lon="9.0442677"><ele>63.99999999999999</ele><time>2026-03-29T09:35:00.417Z</time></trkpt><trkpt lat="45.224852" lon="9.0442466"><ele>64.0</ele><time>2026-03-29T09:35:03.406Z</time></trkpt><trkpt lat="45.2247833" lon="9.0442336"><ele>63.99999999999999</ele><time>2026-03-29T09:35:05.416Z</time></trkpt><trkpt lat="45.2247019" lon="9.0442745"><ele>64.0</ele><time>2026-03-29T09:35:08.421Z</time></trkpt><trkpt lat="45.2246303" lon="9.0442454"><ele>64.0</ele><time>2026-03-29T09:35:11.411Z</time></trkpt><trkpt lat="45.2245962" lon="9.0441656"><ele>64.0</ele><time>2026-03-29T09:35:13.41Z</time></trkpt><trkpt lat="45.2245661" lon="9.0440861"><ele>63.99999999999999</ele><time>2026-03-29T09:35:15.4Z</time></trkpt><trkpt lat="45.2245207" lon="9.0439775"><ele>64.0</ele><time>2026-03-29T09:35:18.413Z</time></trkpt><trkpt lat="45.2244793" lon="9.0438224"><ele>64.33333333333333</ele><time>2026-03-29T09:35:24.414Z</time></trkpt><trkpt lat="45.2244155" lon="9.0437375"><ele>64.66666666666666</ele><time>2026-03-29T09:35:30.483Z</time></trkpt><trkpt lat="45.2243759" lon="9.043645"><ele>65.0</ele><time>2026-03-29T09:35:35.414Z</time></trkpt><trkpt lat="45.2242857" lon="9.043654"><ele>65.33333333333333</ele><time>2026-03-29T09:35:38.429Z</time></trkpt><trkpt lat="45.2242212" lon="9.0436352"><ele>65.66666666666667</ele><time>2026-03-29T09:35:40.467Z</time></trkpt><trkpt lat="45.2242232" lon="9.043515"><ele>66.0</ele><time>2026-03-29T09:35:43.478Z</time></trkpt><trkpt lat="45.224237" lon="9.0433939"><ele>66.5</ele><time>2026-03-29T09:35:46.395Z</time></trkpt><trkpt lat="45.2242217" lon="9.0432956"><ele>67.0</ele><time>2026-03-29T09:35:49.403Z</time></trkpt><trkpt lat="45.2241883" lon="9.0432063"><ele>67.5</ele><time>2026-03-29T09:35:52.397Z</time></trkpt><trkpt lat="45.2241591" lon="9.0430971"><ele>68.0</ele><time>2026-03-29T09:35:56.473Z</time></trkpt><trkpt lat="45.2240953" lon="9.0430428"><ele>68.5</ele><time>2026-03-29T09:35:59.4Z</time></trkpt><trkpt lat="45.2240555" lon="9.0429267"><ele>69.0</ele><time>2026-03-29T09:36:03.396Z</time></trkpt><trkpt lat="45.2240584" lon="9.0428317"><ele>69.0</ele><time>2026-03-29T09:36:06.396Z</time></trkpt><trkpt lat="45.2240492" lon="9.0427234"><ele>69.0</ele><time>2026-03-29T09:36:09.398Z</time></trkpt><trkpt lat="45.224011" lon="9.042608"><ele>69.0</ele><time>2026-03-29T09:36:12.397Z</time></trkpt><trkpt lat="45.2239787" lon="9.0424819"><ele>69.0</ele><time>2026-03-29T09:36:15.394Z</time></trkpt><trkpt lat="45.223967" lon="9.0423699"><ele>69.0</ele><time>2026-03-29T09:36:18.396Z</time></trkpt><trkpt lat="45.2239542" lon="9.0422572"><ele>69.0</ele><time>2026-03-29T09:36:21.473Z</time></trkpt><trkpt lat="45.2239321" lon="9.0421292"><ele>68.0</ele><time>2026-03-29T09:36:24.395Z</time></trkpt><trkpt lat="45.2239428" lon="9.0420033"><ele>67.0</ele><time>2026-03-29T09:36:27.401Z</time></trkpt><trkpt lat="45.2239478" lon="9.0418839"><ele>66.0</ele><time>2026-03-29T09:36:30.395Z</time></trkpt><trkpt lat="45.2239454" lon="9.0417773"><ele>65.0</ele><time>2026-03-29T09:36:33.401Z</time></trkpt><trkpt lat="45.2239153" lon="9.0416575"><ele>64.0</ele><time>2026-03-29T09:36:36.425Z</time></trkpt><trkpt lat="45.2238874" lon="9.0415671"><ele>63.0</ele><time>2026-03-29T09:36:38.402Z</time></trkpt><trkpt lat="45.2238509" lon="9.0414849"><ele>63.0</ele><time>2026-03-29T09:36:40.406Z</time></trkpt><trkpt lat="45.2238215" lon="9.0413898"><ele>63.0</ele><time>2026-03-29T09:36:42.407Z</time></trkpt><trkpt lat="45.2238199" lon="9.041278"><ele>63.0</ele><time>2026-03-29T09:36:45.401Z</time></trkpt><trkpt lat="45.2238509" lon="9.0411544"><ele>63.0</ele><time>2026-03-29T09:36:48.39Z</time></trkpt><trkpt lat="45.2238958" lon="9.0410742"><ele>63.0</ele><time>2026-03-29T09:36:51.393Z</time></trkpt><trkpt lat="45.2239354" lon="9.0409643"><ele>63.0</ele><time>2026-03-29T09:36:54.414Z</time></trkpt><trkpt lat="45.2239691" lon="9.0408736"><ele>63.42857142857143</ele><time>2026-03-29T09:36:57.403Z</time></trkpt><trkpt lat="45.2240157" lon="9.040788"><ele>63.85714285714286</ele><time>2026-03-29T09:37:00.473Z</time></trkpt><trkpt lat="45.2240555" lon="9.0407156"><ele>64.28571428571428</ele><time>2026-03-29T09:37:02.429Z</time></trkpt><trkpt lat="45.2241293" lon="9.0406473"><ele>64.71428571428572</ele><time>2026-03-29T09:37:05.397Z</time></trkpt><trkpt lat="45.2241918" lon="9.0406095"><ele>65.14285714285714</ele><time>2026-03-29T09:37:07.394Z</time></trkpt><trkpt lat="45.2242659" lon="9.0405688"><ele>65.57142857142857</ele><time>2026-03-29T09:37:10.402Z</time></trkpt><trkpt lat="45.2243192" lon="9.0405009"><ele>66.0</ele><time>2026-03-29T09:37:13.479Z</time></trkpt><trkpt lat="45.2243664" lon="9.0403484"><ele>66.0</ele><time>2026-03-29T09:37:19.397Z</time></trkpt><trkpt lat="45.2243981" lon="9.0402387"><ele>66.0</ele><time>2026-03-29T09:37:22.4Z</time></trkpt><trkpt lat="45.2244431" lon="9.0401717"><ele>66.0</ele><time>2026-03-29T09:37:24.469Z</time></trkpt><trkpt lat="45.2245145" lon="9.0400913"><ele>66.0</ele><time>2026-03-29T09:37:27.394Z</time></trkpt><trkpt lat="45.224592" lon="9.0400272"><ele>66.0</ele><time>2026-03-29T09:37:30.394Z</time></trkpt><trkpt lat="45.2246441" lon="9.0399715"><ele>66.0</ele><time>2026-03-29T09:37:33.396Z</time></trkpt><trkpt lat="45.2246985" lon="9.0398832"><ele>66.0</ele><time>2026-03-29T09:37:36.4Z</time></trkpt><trkpt lat="45.2247493" lon="9.0397774"><ele>66.0</ele><time>2026-03-29T09:37:39.475Z</time></trkpt><trkpt lat="45.2247999" lon="9.0396965"><ele>66.0</ele><time>2026-03-29T09:37:42.393Z</time></trkpt><trkpt lat="45.2248413" lon="9.0396204"><ele>66.0</ele><time>2026-03-29T09:37:45.413Z</time></trkpt><trkpt lat="45.224896" lon="9.0395221"><ele>66.0</ele><time>2026-03-29T09:37:48.397Z</time></trkpt><trkpt lat="45.2249559" lon="9.0394363"><ele>66.0</ele><time>2026-03-29T09:37:51.399Z</time></trkpt><trkpt lat="45.2250185" lon="9.0393573"><ele>66.0</ele><time>2026-03-29T09:37:54.41Z</time></trkpt><trkpt lat="45.225087" lon="9.0392964"><ele>66.0</ele><time>2026-03-29T09:37:57.401Z</time></trkpt><trkpt lat="45.2251449" lon="9.0392608"><ele>66.0</ele><time>2026-03-29T09:38:00.4Z</time></trkpt><trkpt lat="45.2251839" lon="9.039173"><ele>66.0</ele><time>2026-03-29T09:38:04.397Z</time></trkpt><trkpt lat="45.225183" lon="9.0390774"><ele>66.0</ele><time>2026-03-29T09:38:07.395Z</time></trkpt><trkpt lat="45.225211" lon="9.038946"><ele>66.0</ele><time>2026-03-29T09:38:10.415Z</time></trkpt><trkpt lat="45.2252274" lon="9.0388518"><ele>66.0</ele><time>2026-03-29T09:38:12.408Z</time></trkpt><trkpt lat="45.2252686" lon="9.0387507"><ele>65.83333333333333</ele><time>2026-03-29T09:38:14.396Z</time></trkpt><trkpt lat="45.22531" lon="9.0386527"><ele>65.66666666666667</ele><time>2026-03-29T09:38:16.405Z</time></trkpt><trkpt lat="45.2253497" lon="9.0385562"><ele>65.5</ele><time>2026-03-29T09:38:18.4Z</time></trkpt><trkpt lat="45.2253969" lon="9.0384164"><ele>65.33333333333334</ele><time>2026-03-29T09:38:20.4Z</time></trkpt><trkpt lat="45.225454" lon="9.0383253"><ele>65.16666666666667</ele><time>2026-03-29T09:38:22.411Z</time></trkpt><trkpt lat="45.2254942" lon="9.0382499"><ele>65.0</ele><time>2026-03-29T09:38:24.419Z</time></trkpt><trkpt lat="45.2255529" lon="9.0381693"><ele>64.83333333333334</ele><time>2026-03-29T09:38:27.394Z</time></trkpt><trkpt lat="45.2256249" lon="9.0380676"><ele>64.66666666666667</ele><time>2026-03-29T09:38:30.477Z</time></trkpt><trkpt lat="45.2256712" lon="9.0380004"><ele>64.5</ele><time>2026-03-29T09:38:32.399Z</time></trkpt><trkpt lat="45.2257371" lon="9.0378965"><ele>64.33333333333333</ele><time>2026-03-29T09:38:35.403Z</time></trkpt><trkpt lat="45.225762" lon="9.0378139"><ele>64.16666666666666</ele><time>2026-03-29T09:38:37.404Z</time></trkpt><trkpt lat="45.2258086" lon="9.0377198"><ele>64.0</ele><time>2026-03-29T09:38:39.399Z</time></trkpt><trkpt lat="45.2258677" lon="9.0376174"><ele>63.99999999999999</ele><time>2026-03-29T09:38:41.404Z</time></trkpt><trkpt lat="45.2259183" lon="9.0375357"><ele>64.0</ele><time>2026-03-29T09:38:43.478Z</time></trkpt><trkpt lat="45.2259631" lon="9.0374489"><ele>64.0</ele><time>2026-03-29T09:38:45.407Z</time></trkpt><trkpt lat="45.2260119" lon="9.0373757"><ele>64.0</ele><time>2026-03-29T09:38:47.402Z</time></trkpt><trkpt lat="45.2260763" lon="9.0373086"><ele>63.99999999999999</ele><time>2026-03-29T09:38:49.4Z</time></trkpt><trkpt lat="45.2261239" lon="9.0372393"><ele>64.0</ele><time>2026-03-29T09:38:51.401Z</time></trkpt><trkpt lat="45.226194" lon="9.0371867"><ele>64.0</ele><time>2026-03-29T09:38:54.401Z</time></trkpt><trkpt lat="45.2262659" lon="9.0371807"><ele>63.99999999999999</ele><time>2026-03-29T09:38:56.404Z</time></trkpt><trkpt lat="45.2263485" lon="9.0371894"><ele>64.0</ele><time>2026-03-29T09:38:59.479Z</time></trkpt><trkpt lat="45.2263989" lon="9.037133"><ele>64.0</ele><time>2026-03-29T09:39:03.401Z</time></trkpt><trkpt lat="45.2264586" lon="9.0370414"><ele>63.99999999999999</ele><time>2026-03-29T09:39:06.402Z</time></trkpt><trkpt lat="45.2264989" lon="9.03697"><ele>64.0</ele><time>2026-03-29T09:39:08.403Z</time></trkpt><trkpt lat="45.2265489" lon="9.036908"><ele>64.0</ele><time>2026-03-29T09:39:10.404Z</time></trkpt><trkpt lat="45.2266165" lon="9.0368719"><ele>63.83333333333333</ele><time>2026-03-29T09:39:12.394Z</time></trkpt><trkpt lat="45.2266941" lon="9.0368122"><ele>63.666666666666664</ele><time>2026-03-29T09:39:14.395Z</time></trkpt><trkpt lat="45.2267328" lon="9.0366829"><ele>63.5</ele><time>2026-03-29T09:39:17.402Z</time></trkpt><trkpt lat="45.2267736" lon="9.0365688"><ele>63.33333333333333</ele><time>2026-03-29T09:39:19.402Z</time></trkpt><trkpt lat="45.2268237" lon="9.0364889"><ele>63.166666666666664</ele><time>2026-03-29T09:39:21.395Z</time></trkpt><trkpt lat="45.2268727" lon="9.0363913"><ele>63.0</ele><time>2026-03-29T09:39:23.396Z</time></trkpt><trkpt lat="45.2268983" lon="9.0363083"><ele>62.833333333333336</ele><time>2026-03-29T09:39:24.475Z</time></trkpt><trkpt lat="45.2269438" lon="9.036207"><ele>62.66666666666667</ele><time>2026-03-29T09:39:26.41Z</time></trkpt><trkpt lat="45.2269785" lon="9.0360845"><ele>62.5</ele><time>2026-03-29T09:39:28.393Z</time></trkpt><trkpt lat="45.2270278" lon="9.0359886"><ele>62.333333333333336</ele><time>2026-03-29T09:39:30.397Z</time></trkpt><trkpt lat="45.2270563" lon="9.0358805"><ele>62.16666666666667</ele><time>2026-03-29T09:39:32.399Z</time></trkpt><trkpt lat="45.2270811" lon="9.035793"><ele>62.0</ele><time>2026-03-29T09:39:34.396Z</time></trkpt><trkpt lat="45.2271094" lon="9.0356979"><ele>61.85714285714286</ele><time>2026-03-29T09:39:36.405Z</time></trkpt><trkpt lat="45.2271122" lon="9.0356009"><ele>61.71428571428572</ele><time>2026-03-29T09:39:38.411Z</time></trkpt><trkpt lat="45.2271275" lon="9.0355018"><ele>61.57142857142857</ele><time>2026-03-29T09:39:40.415Z</time></trkpt><trkpt lat="45.2271722" lon="9.0354079"><ele>61.42857142857143</ele><time>2026-03-29T09:39:42.4Z</time></trkpt><trkpt lat="45.227218" lon="9.0353241"><ele>61.285714285714285</ele><time>2026-03-29T09:39:44.4Z</time></trkpt><trkpt lat="45.2272697" lon="9.0352545"><ele>61.14285714285714</ele><time>2026-03-29T09:39:46.399Z</time></trkpt><trkpt lat="45.2273238" lon="9.0351806"><ele>60.99999999999999</ele><time>2026-03-29T09:39:48.395Z</time></trkpt><trkpt lat="45.227387" lon="9.035126"><ele>61.166666666666664</ele><time>2026-03-29T09:39:50.466Z</time></trkpt><trkpt lat="45.2274546" lon="9.035075"><ele>61.33333333333333</ele><time>2026-03-29T09:39:52.403Z</time></trkpt><trkpt lat="45.227524" lon="9.0350168"><ele>61.5</ele><time>2026-03-29T09:39:54.401Z</time></trkpt><trkpt lat="45.2276007" lon="9.0349813"><ele>61.66666666666667</ele><time>2026-03-29T09:39:56.404Z</time></trkpt><trkpt lat="45.2276708" lon="9.0349517"><ele>61.833333333333336</ele><time>2026-03-29T09:39:58.41Z</time></trkpt><trkpt lat="45.227741" lon="9.034916"><ele>62.0</ele><time>2026-03-29T09:40:00.409Z</time></trkpt><trkpt lat="45.2278021" lon="9.0348719"><ele>62.00000000000001</ele><time>2026-03-29T09:40:02.41Z</time></trkpt><trkpt lat="45.2278633" lon="9.0348186"><ele>62.0</ele><time>2026-03-29T09:40:04.402Z</time></trkpt><trkpt lat="45.2279189" lon="9.0347594"><ele>62.0</ele><time>2026-03-29T09:40:06.391Z</time></trkpt><trkpt lat="45.2279923" lon="9.0346721"><ele>62.0</ele><time>2026-03-29T09:40:09.396Z</time></trkpt><trkpt lat="45.228063" lon="9.034577"><ele>62.00000000000001</ele><time>2026-03-29T09:40:12.404Z</time></trkpt><trkpt lat="45.2281317" lon="9.034497"><ele>62.0</ele><time>2026-03-29T09:40:14.397Z</time></trkpt><trkpt lat="45.2281929" lon="9.0344101"><ele>62.333333333333336</ele><time>2026-03-29T09:40:16.46Z</time></trkpt><trkpt lat="45.2282489" lon="9.0342852"><ele>62.66666666666667</ele><time>2026-03-29T09:40:18.418Z</time></trkpt><trkpt lat="45.2283106" lon="9.034219"><ele>63.0</ele><time>2026-03-29T09:40:20.397Z</time></trkpt><trkpt lat="45.2283726" lon="9.0341471"><ele>63.33333333333333</ele><time>2026-03-29T09:40:22.401Z</time></trkpt><trkpt lat="45.2284337" lon="9.0340795"><ele>63.666666666666664</ele><time>2026-03-29T09:40:24.397Z</time></trkpt><trkpt lat="45.2284949" lon="9.0340307"><ele>64.0</ele><time>2026-03-29T09:40:26.409Z</time></trkpt><trkpt lat="45.2285465" lon="9.0339638"><ele>64.16666666666666</ele><time>2026-03-29T09:40:28.407Z</time></trkpt><trkpt lat="45.2286122" lon="9.0338966"><ele>64.33333333333333</ele><time>2026-03-29T09:40:30.399Z</time></trkpt><trkpt lat="45.2286622" lon="9.0338323"><ele>64.5</ele><time>2026-03-29T09:40:32.394Z</time></trkpt><trkpt lat="45.2287206" lon="9.0337625"><ele>64.66666666666667</ele><time>2026-03-29T09:40:34.398Z</time></trkpt><trkpt lat="45.2287812" lon="9.033692"><ele>64.83333333333334</ele><time>2026-03-29T09:40:36.413Z</time></trkpt><trkpt lat="45.2288358" lon="9.0336303"><ele>65.0</ele><time>2026-03-29T09:40:38.402Z</time></trkpt><trkpt lat="45.2289014" lon="9.0335573"><ele>65.0</ele><time>2026-03-29T09:40:40.396Z</time></trkpt><trkpt lat="45.2289589" lon="9.0334603"><ele>65.0</ele><time>2026-03-29T09:40:42.397Z</time></trkpt><trkpt lat="45.229021" lon="9.0333519"><ele>65.0</ele><time>2026-03-29T09:40:44.403Z</time></trkpt><trkpt lat="45.2290675" lon="9.0332488"><ele>65.0</ele><time>2026-03-29T09:40:46.399Z</time></trkpt><trkpt lat="45.2291369" lon="9.033196"><ele>65.0</ele><time>2026-03-29T09:40:48.395Z</time></trkpt><trkpt lat="45.2292104" lon="9.0331263"><ele>65.0</ele><time>2026-03-29T09:40:50.404Z</time></trkpt><trkpt lat="45.2292725" lon="9.0330763"><ele>65.0</ele><time>2026-03-29T09:40:52.398Z</time></trkpt><trkpt lat="45.2293329" lon="9.0330066"><ele>65.0</ele><time>2026-03-29T09:40:54.408Z</time></trkpt><trkpt lat="45.2294068" lon="9.0328824"><ele>65.0</ele><time>2026-03-29T09:40:56.404Z</time></trkpt><trkpt lat="45.2294761" lon="9.0327851"><ele>65.0</ele><time>2026-03-29T09:40:58.394Z</time></trkpt><trkpt lat="45.2295323" lon="9.0326941"><ele>65.0</ele><time>2026-03-29T09:41:00.405Z</time></trkpt><trkpt lat="45.2296027" lon="9.0326061"><ele>65.0</ele><time>2026-03-29T09:41:02.398Z</time></trkpt><trkpt lat="45.2296672" lon="9.0325138"><ele>65.0</ele><time>2026-03-29T09:41:04.4Z</time></trkpt><trkpt lat="45.2297292" lon="9.0324198"><ele>65.0</ele><time>2026-03-29T09:41:06.393Z</time></trkpt><trkpt lat="45.2297933" lon="9.03237"><ele>65.0</ele><time>2026-03-29T09:41:08.473Z</time></trkpt><trkpt lat="45.2298792" lon="9.0323444"><ele>65.0</ele><time>2026-03-29T09:41:11.396Z</time></trkpt><trkpt lat="45.2299581" lon="9.0323065"><ele>65.0</ele><time>2026-03-29T09:41:14.393Z</time></trkpt><trkpt lat="45.2300265" lon="9.0322783"><ele>65.16666666666667</ele><time>2026-03-29T09:41:16.395Z</time></trkpt><trkpt lat="45.2301014" lon="9.0322449"><ele>65.33333333333334</ele><time>2026-03-29T09:41:18.411Z</time></trkpt><trkpt lat="45.2301873" lon="9.0322044"><ele>65.5</ele><time>2026-03-29T09:41:20.402Z</time></trkpt><trkpt lat="45.2302631" lon="9.0321569"><ele>65.66666666666667</ele><time>2026-03-29T09:41:22.405Z</time></trkpt><trkpt lat="45.2303458" lon="9.032109"><ele>65.83333333333333</ele><time>2026-03-29T09:41:24.397Z</time></trkpt><trkpt lat="45.2304253" lon="9.0320651"><ele>66.0</ele><time>2026-03-29T09:41:26.395Z</time></trkpt><trkpt lat="45.2304895" lon="9.0320209"><ele>66.0</ele><time>2026-03-29T09:41:28.395Z</time></trkpt><trkpt lat="45.2305427" lon="9.0319683"><ele>66.0</ele><time>2026-03-29T09:41:30.407Z</time></trkpt><trkpt lat="45.2306019" lon="9.0319168"><ele>66.0</ele><time>2026-03-29T09:41:32.468Z</time></trkpt><trkpt lat="45.2306649" lon="9.0318525"><ele>66.0</ele><time>2026-03-29T09:41:34.405Z</time></trkpt><trkpt lat="45.2307227" lon="9.0317867"><ele>66.0</ele><time>2026-03-29T09:41:36.396Z</time></trkpt><trkpt lat="45.230769" lon="9.0317126"><ele>66.0</ele><time>2026-03-29T09:41:38.4Z</time></trkpt><trkpt lat="45.230802" lon="9.0316029"><ele>66.0</ele><time>2026-03-29T09:41:40.4Z</time></trkpt><trkpt lat="45.2308344" lon="9.031508"><ele>66.16666666666667</ele><time>2026-03-29T09:41:42.4Z</time></trkpt><trkpt lat="45.2308659" lon="9.0313826"><ele>66.33333333333333</ele><time>2026-03-29T09:41:44.403Z</time></trkpt><trkpt lat="45.2309097" lon="9.0312778"><ele>66.5</ele><time>2026-03-29T09:41:46.4Z</time></trkpt><trkpt lat="45.2309632" lon="9.0312133"><ele>66.66666666666666</ele><time>2026-03-29T09:41:48.469Z</time></trkpt><trkpt lat="45.2310216" lon="9.031133"><ele>66.83333333333333</ele><time>2026-03-29T09:41:50.42Z</time></trkpt><trkpt lat="45.231098" lon="9.0310634"><ele>67.0</ele><time>2026-03-29T09:41:53.402Z</time></trkpt><trkpt lat="45.2311559" lon="9.0309649"><ele>67.0</ele><time>2026-03-29T09:41:56.395Z</time></trkpt><trkpt lat="45.2312166" lon="9.0309213"><ele>67.0</ele><time>2026-03-29T09:41:58.395Z</time></trkpt><trkpt lat="45.2312819" lon="9.0308994"><ele>67.0</ele><time>2026-03-29T09:42:00.468Z</time></trkpt><trkpt lat="45.2313491" lon="9.0308932"><ele>67.0</ele><time>2026-03-29T09:42:02.408Z</time></trkpt><trkpt lat="45.2314162" lon="9.0309097"><ele>67.0</ele><time>2026-03-29T09:42:04.401Z</time></trkpt><trkpt lat="45.2314911" lon="9.0309366"><ele>67.0</ele><time>2026-03-29T09:42:06.399Z</time></trkpt><trkpt lat="45.2315602" lon="9.030966"><ele>67.0</ele><time>2026-03-29T09:42:08.402Z</time></trkpt><trkpt lat="45.2316237" lon="9.0309853"><ele>66.66666666666666</ele><time>2026-03-29T09:42:10.401Z</time></trkpt><trkpt lat="45.2316872" lon="9.0309851"><ele>66.33333333333333</ele><time>2026-03-29T09:42:12.398Z</time></trkpt><trkpt lat="45.2317798" lon="9.031023"><ele>66.0</ele><time>2026-03-29T09:42:15.475Z</time></trkpt><trkpt lat="45.2318459" lon="9.031035"><ele>65.66666666666667</ele><time>2026-03-29T09:42:17.411Z</time></trkpt><trkpt lat="45.2319275" lon="9.0310513"><ele>65.33333333333334</ele><time>2026-03-29T09:42:20.397Z</time></trkpt><trkpt lat="45.2319919" lon="9.0310764"><ele>65.0</ele><time>2026-03-29T09:42:22.404Z</time></trkpt><trkpt lat="45.2320856" lon="9.0311024"><ele>65.0</ele><time>2026-03-29T09:42:25.397Z</time></trkpt><trkpt lat="45.2321446" lon="9.0311444"><ele>65.0</ele><time>2026-03-29T09:42:27.392Z</time></trkpt><trkpt lat="45.2322099" lon="9.0311846"><ele>65.0</ele><time>2026-03-29T09:42:29.398Z</time></trkpt><trkpt lat="45.2322764" lon="9.0312485"><ele>65.0</ele><time>2026-03-29T09:42:31.403Z</time></trkpt><trkpt lat="45.2323464" lon="9.0313144"><ele>65.0</ele><time>2026-03-29T09:42:33.399Z</time></trkpt><trkpt lat="45.2324123" lon="9.0313763"><ele>65.0</ele><time>2026-03-29T09:42:35.402Z</time></trkpt><trkpt lat="45.232472" lon="9.0314339"><ele>65.00000000000001</ele><time>2026-03-29T09:42:37.402Z</time></trkpt><trkpt lat="45.2325311" lon="9.0314804"><ele>65.0</ele><time>2026-03-29T09:42:39.396Z</time></trkpt><trkpt lat="45.2325862" lon="9.0315286"><ele>65.0</ele><time>2026-03-29T09:42:41.396Z</time></trkpt><trkpt lat="45.2326418" lon="9.0315765"><ele>65.0</ele><time>2026-03-29T09:42:43.4Z</time></trkpt><trkpt lat="45.2326984" lon="9.0316373"><ele>65.0</ele><time>2026-03-29T09:42:45.411Z</time></trkpt><trkpt lat="45.2327551" lon="9.0316914"><ele>65.00000000000001</ele><time>2026-03-29T09:42:47.401Z</time></trkpt><trkpt lat="45.2328418" lon="9.0317576"><ele>65.0</ele><time>2026-03-29T09:42:50.41Z</time></trkpt><trkpt lat="45.2329279" lon="9.0318318"><ele>65.0</ele><time>2026-03-29T09:42:53.403Z</time></trkpt><trkpt lat="45.2329921" lon="9.0318843"><ele>65.0</ele><time>2026-03-29T09:42:55.391Z</time></trkpt><trkpt lat="45.2330598" lon="9.0319534"><ele>65.0</ele><time>2026-03-29T09:42:57.397Z</time></trkpt><trkpt lat="45.2331413" lon="9.0320174"><ele>65.0</ele><time>2026-03-29T09:42:59.397Z</time></trkpt><trkpt lat="45.2332309" lon="9.0320888"><ele>65.0</ele><time>2026-03-29T09:43:01.398Z</time></trkpt><trkpt lat="45.2333148" lon="9.0321606"><ele>65.0</ele><time>2026-03-29T09:43:03.402Z</time></trkpt><trkpt lat="45.2333853" lon="9.0322214"><ele>65.0</ele><time>2026-03-29T09:43:05.401Z</time></trkpt><trkpt lat="45.2334537" lon="9.0322755"><ele>65.0</ele><time>2026-03-29T09:43:07.475Z</time></trkpt><trkpt lat="45.2335289" lon="9.0323381"><ele>65.0</ele><time>2026-03-29T09:43:09.401Z</time></trkpt><trkpt lat="45.2335984" lon="9.0323939"><ele>65.0</ele><time>2026-03-29T09:43:11.396Z</time></trkpt><trkpt lat="45.2336675" lon="9.0324584"><ele>65.0</ele><time>2026-03-29T09:43:13.395Z</time></trkpt><trkpt lat="45.2337443" lon="9.0325264"><ele>64.83333333333334</ele><time>2026-03-29T09:43:15.392Z</time></trkpt><trkpt lat="45.2338227" lon="9.0325992"><ele>64.66666666666667</ele><time>2026-03-29T09:43:17.399Z</time></trkpt><trkpt lat="45.2338969" lon="9.0326558"><ele>64.5</ele><time>2026-03-29T09:43:19.41Z</time></trkpt><trkpt lat="45.2339616" lon="9.0327053"><ele>64.33333333333333</ele><time>2026-03-29T09:43:21.391Z</time></trkpt><trkpt lat="45.2340237" lon="9.0327536"><ele>64.16666666666666</ele><time>2026-03-29T09:43:23.395Z</time></trkpt><trkpt lat="45.2340862" lon="9.0328171"><ele>64.0</ele><time>2026-03-29T09:43:25.397Z</time></trkpt><trkpt lat="45.2341636" lon="9.0328759"><ele>64.5</ele><time>2026-03-29T09:43:27.395Z</time></trkpt><trkpt lat="45.2342366" lon="9.0329294"><ele>65.0</ele><time>2026-03-29T09:43:29.402Z</time></trkpt><trkpt lat="45.2343104" lon="9.0329974"><ele>65.5</ele><time>2026-03-29T09:43:31.406Z</time></trkpt><trkpt lat="45.2343854" lon="9.0330782"><ele>66.0</ele><time>2026-03-29T09:43:33.395Z</time></trkpt><trkpt lat="45.2344642" lon="9.0331506"><ele>66.5</ele><time>2026-03-29T09:43:35.394Z</time></trkpt><trkpt lat="45.2345175" lon="9.0332139"><ele>67.0</ele><time>2026-03-29T09:43:37.398Z</time></trkpt><trkpt lat="45.2345867" lon="9.0332854"><ele>66.85714285714286</ele><time>2026-03-29T09:43:40.395Z</time></trkpt><trkpt lat="45.2346435" lon="9.033331"><ele>66.71428571428571</ele><time>2026-03-29T09:43:42.405Z</time></trkpt><trkpt lat="45.2347081" lon="9.033385"><ele>66.57142857142857</ele><time>2026-03-29T09:43:44.401Z</time></trkpt><trkpt lat="45.234778" lon="9.0334516"><ele>66.42857142857143</ele><time>2026-03-29T09:43:46.398Z</time></trkpt><trkpt lat="45.2348397" lon="9.0335018"><ele>66.28571428571429</ele><time>2026-03-29T09:43:48.394Z</time></trkpt><trkpt lat="45.2349093" lon="9.0335511"><ele>66.14285714285714</ele><time>2026-03-29T09:43:50.397Z</time></trkpt><trkpt lat="45.2349702" lon="9.0336053"><ele>66.0</ele><time>2026-03-29T09:43:52.397Z</time></trkpt><trkpt lat="45.2350387" lon="9.0336578"><ele>66.0</ele><time>2026-03-29T09:43:54.401Z</time></trkpt><trkpt lat="45.2351101" lon="9.0336988"><ele>66.0</ele><time>2026-03-29T09:43:56.405Z</time></trkpt><trkpt lat="45.235177" lon="9.033734"><ele>66.0</ele><time>2026-03-29T09:43:58.393Z</time></trkpt><trkpt lat="45.2352457" lon="9.0337791"><ele>66.0</ele><time>2026-03-29T09:44:00.4Z</time></trkpt><trkpt lat="45.2353037" lon="9.03382"><ele>66.0</ele><time>2026-03-29T09:44:02.394Z</time></trkpt><trkpt lat="45.2353659" lon="9.0338716"><ele>66.0</ele><time>2026-03-29T09:44:04.391Z</time></trkpt><trkpt lat="45.2354322" lon="9.0339318"><ele>66.0</ele><time>2026-03-29T09:44:06.398Z</time></trkpt><trkpt lat="45.2354957" lon="9.0339972"><ele>66.0</ele><time>2026-03-29T09:44:08.403Z</time></trkpt><trkpt lat="45.23556" lon="9.0340605"><ele>66.0</ele><time>2026-03-29T09:44:10.39Z</time></trkpt><trkpt lat="45.2356308" lon="9.0341222"><ele>66.0</ele><time>2026-03-29T09:44:12.394Z</time></trkpt><trkpt lat="45.2357003" lon="9.0341942"><ele>66.0</ele><time>2026-03-29T09:44:14.407Z</time></trkpt><trkpt lat="45.235759" lon="9.0342441"><ele>66.0</ele><time>2026-03-29T09:44:16.396Z</time></trkpt><trkpt lat="45.2358476" lon="9.0342985"><ele>66.0</ele><time>2026-03-29T09:44:19.395Z</time></trkpt><trkpt lat="45.2359228" lon="9.0343531"><ele>66.16666666666667</ele><time>2026-03-29T09:44:21.393Z</time></trkpt><trkpt lat="45.2359831" lon="9.0344156"><ele>66.33333333333333</ele><time>2026-03-29T09:44:23.393Z</time></trkpt><trkpt lat="45.2360437" lon="9.0344667"><ele>66.5</ele><time>2026-03-29T09:44:25.406Z</time></trkpt><trkpt lat="45.2361096" lon="9.0345208"><ele>66.66666666666666</ele><time>2026-03-29T09:44:27.4Z</time></trkpt><trkpt lat="45.2361755" lon="9.0345797"><ele>66.83333333333333</ele><time>2026-03-29T09:44:29.397Z</time></trkpt><trkpt lat="45.2362504" lon="9.0346452"><ele>67.0</ele><time>2026-03-29T09:44:32.382Z</time></trkpt><trkpt lat="45.2363051" lon="9.0347116"><ele>67.0</ele><time>2026-03-29T09:44:35.404Z</time></trkpt><trkpt lat="45.2363598" lon="9.0347596"><ele>67.0</ele><time>2026-03-29T09:44:38.395Z</time></trkpt><trkpt lat="45.2364353" lon="9.0348268"><ele>67.0</ele><time>2026-03-29T09:44:42.395Z</time></trkpt><trkpt lat="45.2364656" lon="9.034914"><ele>67.0</ele><time>2026-03-29T09:44:46.392Z</time></trkpt><trkpt lat="45.236508" lon="9.0349835"><ele>67.0</ele><time>2026-03-29T09:44:50.415Z</time></trkpt><trkpt lat="45.2365505" lon="9.0350902"><ele>67.0</ele><time>2026-03-29T09:44:54.393Z</time></trkpt><trkpt lat="45.236566" lon="9.0352141"><ele>67.0</ele><time>2026-03-29T09:44:57.408Z</time></trkpt><trkpt lat="45.2365674" lon="9.0353321"><ele>67.0</ele><time>2026-03-29T09:45:00.467Z</time></trkpt><trkpt lat="45.2365563" lon="9.0354617"><ele>67.0</ele><time>2026-03-29T09:45:03.399Z</time></trkpt><trkpt lat="45.236549" lon="9.0355722"><ele>67.0</ele><time>2026-03-29T09:45:05.4Z</time></trkpt><trkpt lat="45.236535" lon="9.0356756"><ele>67.0</ele><time>2026-03-29T09:45:07.4Z</time></trkpt><trkpt lat="45.2365055" lon="9.03578"><ele>67.0</ele><time>2026-03-29T09:45:09.389Z</time></trkpt><trkpt lat="45.236469" lon="9.0358688"><ele>67.0</ele><time>2026-03-29T09:45:11.4Z</time></trkpt><trkpt lat="45.2364332" lon="9.0359444"><ele>67.0</ele><time>2026-03-29T09:45:13.407Z</time></trkpt><trkpt lat="45.236384" lon="9.0360237"><ele>67.0</ele><time>2026-03-29T09:45:16.47Z</time></trkpt><trkpt lat="45.2363448" lon="9.0361085"><ele>67.0</ele><time>2026-03-29T09:45:19.402Z</time></trkpt><trkpt lat="45.2362945" lon="9.0361714"><ele>67.0</ele><time>2026-03-29T09:45:22.388Z</time></trkpt><trkpt lat="45.2362387" lon="9.0362296"><ele>67.0</ele><time>2026-03-29T09:45:25.393Z</time></trkpt><trkpt lat="45.2361681" lon="9.0362996"><ele>67.0</ele><time>2026-03-29T09:45:28.399Z</time></trkpt><trkpt lat="45.2361046" lon="9.0363742"><ele>67.0</ele><time>2026-03-29T09:45:31.393Z</time></trkpt><trkpt lat="45.2360435" lon="9.0364694"><ele>67.0</ele><time>2026-03-29T09:45:34.408Z</time></trkpt><trkpt lat="45.235996" lon="9.0365469"><ele>67.0</ele><time>2026-03-29T09:45:36.405Z</time></trkpt><trkpt lat="45.23595" lon="9.0366275"><ele>67.0</ele><time>2026-03-29T09:45:38.398Z</time></trkpt><trkpt lat="45.2358906" lon="9.0367161"><ele>67.0</ele><time>2026-03-29T09:45:40.403Z</time></trkpt><trkpt lat="45.235843" lon="9.0368117"><ele>67.0</ele><time>2026-03-29T09:45:42.475Z</time></trkpt><trkpt lat="45.2357895" lon="9.036886"><ele>66.0</ele><time>2026-03-29T09:45:44.395Z</time></trkpt><trkpt lat="45.2357344" lon="9.0369671"><ele>66.0</ele><time>2026-03-29T09:45:46.398Z</time></trkpt><trkpt lat="45.2356755" lon="9.0370424"><ele>66.0</ele><time>2026-03-29T09:45:48.398Z</time></trkpt><trkpt lat="45.2356021" lon="9.0371196"><ele>67.0</ele><time>2026-03-29T09:45:51.388Z</time></trkpt></trkseg></trk></gpx>